<?xml version="1.0" encoding="UTF-8" standalone="no" ?>
<gpx xmlns="http://www.topografix.com/GPX/1/1" xmlns:xsi="http://www.w3.org/2001/XMLSchema-instance" xsi:schemaLocation="http://www.topografix.com/GPX/1/1 http://www.topografix.com/GPX/1/1/gpx.xsd" version="1.1" creator="VisuGPX - https://www.visugpx.com">
  <metadata>
    <name>Cluny-Tramayes</name>
    <desc><![CDATA[Chemin de Compostelle 2015 : Cluny-Tramayes]]></desc>
  </metadata>
  <trk>
    <name><![CDATA[23 Cluny - Tramayes]]></name>
    <trkseg>
      <trkpt lat="46.43357" lon="4.6578">
        <ele>252</ele>
        <time>2015-07-06T09:22:06Z</time>
      </trkpt>
      <trkpt lat="46.43351" lon="4.65787">
        <ele>250</ele>
        <time>2015-07-06T09:22:38Z</time>
      </trkpt>
      <trkpt lat="46.4333" lon="4.65834">
        <ele>239</ele>
        <time>2015-07-06T09:23:10Z</time>
      </trkpt>
      <trkpt lat="46.43328" lon="4.6586">
        <ele>239</ele>
        <time>2015-07-06T09:23:27Z</time>
      </trkpt>
      <trkpt lat="46.43325" lon="4.65873">
        <ele>240</ele>
        <time>2015-07-06T09:23:38Z</time>
      </trkpt>
      <trkpt lat="46.43321" lon="4.65914">
        <ele>245</ele>
        <time>2015-07-06T09:24:02Z</time>
      </trkpt>
      <trkpt lat="46.43302" lon="4.65964">
        <ele>234</ele>
        <time>2015-07-06T09:24:29Z</time>
      </trkpt>
      <trkpt lat="46.43293" lon="4.65972">
        <ele>232</ele>
        <time>2015-07-06T09:24:36Z</time>
      </trkpt>
      <trkpt lat="46.43284" lon="4.65976">
        <ele>232</ele>
        <time>2015-07-06T09:24:42Z</time>
      </trkpt>
      <trkpt lat="46.43262" lon="4.66021">
        <ele>233</ele>
        <time>2015-07-06T09:25:14Z</time>
      </trkpt>
      <trkpt lat="46.43255" lon="4.6603">
        <ele>234</ele>
        <time>2015-07-06T09:25:22Z</time>
      </trkpt>
      <trkpt lat="46.43238" lon="4.66079">
        <ele>238</ele>
        <time>2015-07-06T09:25:53Z</time>
      </trkpt>
      <trkpt lat="46.43233" lon="4.66087">
        <ele>238</ele>
        <time>2015-07-06T09:25:59Z</time>
      </trkpt>
      <trkpt lat="46.43222" lon="4.66095">
        <ele>238</ele>
        <time>2015-07-06T09:26:06Z</time>
      </trkpt>
      <trkpt lat="46.43213" lon="4.6612">
        <ele>236</ele>
        <time>2015-07-06T09:26:20Z</time>
      </trkpt>
      <trkpt lat="46.4321" lon="4.6615">
        <ele>234</ele>
        <time>2015-07-06T09:26:36Z</time>
      </trkpt>
      <trkpt lat="46.43207" lon="4.66166">
        <ele>234</ele>
        <time>2015-07-06T09:26:44Z</time>
      </trkpt>
      <trkpt lat="46.43204" lon="4.66166">
        <ele>234</ele>
        <time>2015-07-06T09:26:48Z</time>
      </trkpt>
      <trkpt lat="46.432" lon="4.66165">
        <ele>234</ele>
        <time>2015-07-06T09:26:54Z</time>
      </trkpt>
      <trkpt lat="46.43196" lon="4.6616">
        <ele>234</ele>
        <time>2015-07-06T09:26:58Z</time>
      </trkpt>
      <trkpt lat="46.43184" lon="4.66158">
        <ele>234</ele>
        <time>2015-07-06T09:27:08Z</time>
      </trkpt>
      <trkpt lat="46.43169" lon="4.66166">
        <ele>234</ele>
        <time>2015-07-06T09:27:23Z</time>
      </trkpt>
      <trkpt lat="46.43131" lon="4.66162">
        <ele>234</ele>
        <time>2015-07-06T09:27:47Z</time>
      </trkpt>
      <trkpt lat="46.4312" lon="4.66161">
        <ele>234</ele>
        <time>2015-07-06T09:27:59Z</time>
      </trkpt>
      <trkpt lat="46.43119" lon="4.66172">
        <ele>235</ele>
        <time>2015-07-06T09:28:16Z</time>
      </trkpt>
      <trkpt lat="46.43116" lon="4.66165">
        <ele>235</ele>
        <time>2015-07-06T09:28:30Z</time>
      </trkpt>
      <trkpt lat="46.43114" lon="4.66164">
        <ele>234</ele>
        <time>2015-07-06T09:28:43Z</time>
      </trkpt>
      <trkpt lat="46.4309" lon="4.66164">
        <ele>234</ele>
        <time>2015-07-06T09:29:02Z</time>
      </trkpt>
      <trkpt lat="46.43084" lon="4.6616">
        <ele>234</ele>
        <time>2015-07-06T09:29:05Z</time>
      </trkpt>
      <trkpt lat="46.43065" lon="4.66165">
        <ele>234</ele>
        <time>2015-07-06T09:29:25Z</time>
      </trkpt>
      <trkpt lat="46.43057" lon="4.66173">
        <ele>234</ele>
        <time>2015-07-06T09:29:32Z</time>
      </trkpt>
      <trkpt lat="46.4302" lon="4.6618">
        <ele>235</ele>
        <time>2015-07-06T09:29:58Z</time>
      </trkpt>
      <trkpt lat="46.43011" lon="4.66182">
        <ele>234</ele>
        <time>2015-07-06T09:30:05Z</time>
      </trkpt>
      <trkpt lat="46.43002" lon="4.66184">
        <ele>235</ele>
        <time>2015-07-06T09:30:13Z</time>
      </trkpt>
      <trkpt lat="46.43" lon="4.66191">
        <ele>235</ele>
        <time>2015-07-06T09:30:17Z</time>
      </trkpt>
      <trkpt lat="46.42996" lon="4.66193">
        <ele>235</ele>
        <time>2015-07-06T09:30:22Z</time>
      </trkpt>
      <trkpt lat="46.42991" lon="4.66193">
        <ele>235</ele>
        <time>2015-07-06T09:30:26Z</time>
      </trkpt>
      <trkpt lat="46.42986" lon="4.66192">
        <ele>236</ele>
        <time>2015-07-06T09:30:29Z</time>
      </trkpt>
      <trkpt lat="46.42964" lon="4.66192">
        <ele>239</ele>
        <time>2015-07-06T09:30:46Z</time>
      </trkpt>
      <trkpt lat="46.42959" lon="4.66193">
        <ele>239</ele>
        <time>2015-07-06T09:30:51Z</time>
      </trkpt>
      <trkpt lat="46.42956" lon="4.66189">
        <ele>237</ele>
        <time>2015-07-06T09:30:57Z</time>
      </trkpt>
      <trkpt lat="46.42935" lon="4.66186">
        <ele>237</ele>
        <time>2015-07-06T09:31:14Z</time>
      </trkpt>
      <trkpt lat="46.42925" lon="4.66189">
        <ele>237</ele>
        <time>2015-07-06T09:31:20Z</time>
      </trkpt>
      <trkpt lat="46.42915" lon="4.66188">
        <ele>236</ele>
        <time>2015-07-06T09:31:31Z</time>
      </trkpt>
      <trkpt lat="46.42907" lon="4.66185">
        <ele>236</ele>
        <time>2015-07-06T09:31:38Z</time>
      </trkpt>
      <trkpt lat="46.42897" lon="4.66183">
        <ele>234</ele>
        <time>2015-07-06T09:31:46Z</time>
      </trkpt>
      <trkpt lat="46.4286" lon="4.66183">
        <ele>235</ele>
        <time>2015-07-06T09:32:16Z</time>
      </trkpt>
      <trkpt lat="46.42849" lon="4.66183">
        <ele>236</ele>
        <time>2015-07-06T09:32:24Z</time>
      </trkpt>
      <trkpt lat="46.42845" lon="4.66178">
        <ele>237</ele>
        <time>2015-07-06T09:32:28Z</time>
      </trkpt>
      <trkpt lat="46.42842" lon="4.66173">
        <ele>237</ele>
        <time>2015-07-06T09:32:32Z</time>
      </trkpt>
      <trkpt lat="46.42837" lon="4.6617">
        <ele>238</ele>
        <time>2015-07-06T09:32:37Z</time>
      </trkpt>
      <trkpt lat="46.42831" lon="4.66172">
        <ele>239</ele>
        <time>2015-07-06T09:32:42Z</time>
      </trkpt>
      <trkpt lat="46.42826" lon="4.66173">
        <ele>238</ele>
        <time>2015-07-06T09:32:46Z</time>
      </trkpt>
      <trkpt lat="46.42816" lon="4.66172">
        <ele>238</ele>
        <time>2015-07-06T09:32:54Z</time>
      </trkpt>
      <trkpt lat="46.4281" lon="4.66169">
        <ele>238</ele>
        <time>2015-07-06T09:32:58Z</time>
      </trkpt>
      <trkpt lat="46.4281" lon="4.66161">
        <ele>238</ele>
        <time>2015-07-06T09:33:03Z</time>
      </trkpt>
      <trkpt lat="46.42807" lon="4.66149">
        <ele>237</ele>
        <time>2015-07-06T09:33:08Z</time>
      </trkpt>
      <trkpt lat="46.42806" lon="4.66142">
        <ele>237</ele>
        <time>2015-07-06T09:33:12Z</time>
      </trkpt>
      <trkpt lat="46.42801" lon="4.66137">
        <ele>237</ele>
        <time>2015-07-06T09:33:17Z</time>
      </trkpt>
      <trkpt lat="46.42799" lon="4.66132">
        <ele>238</ele>
        <time>2015-07-06T09:33:51Z</time>
      </trkpt>
      <trkpt lat="46.42797" lon="4.66133">
        <ele>238</ele>
        <time>2015-07-06T09:33:57Z</time>
      </trkpt>
      <trkpt lat="46.42799" lon="4.66128">
        <ele>238</ele>
        <time>2015-07-06T09:34:55Z</time>
      </trkpt>
      <trkpt lat="46.42797" lon="4.66124">
        <ele>239</ele>
        <time>2015-07-06T09:35:15Z</time>
      </trkpt>
      <trkpt lat="46.42799" lon="4.66133">
        <ele>239</ele>
        <time>2015-07-06T09:43:47Z</time>
      </trkpt>
      <trkpt lat="46.42792" lon="4.66142">
        <ele>239</ele>
        <time>2015-07-06T09:44:02Z</time>
      </trkpt>
      <trkpt lat="46.42786" lon="4.66142">
        <ele>241</ele>
        <time>2015-07-06T09:44:11Z</time>
      </trkpt>
      <trkpt lat="46.42785" lon="4.66135">
        <ele>245</ele>
        <time>2015-07-06T09:44:18Z</time>
      </trkpt>
      <trkpt lat="46.42786" lon="4.66128">
        <ele>246</ele>
        <time>2015-07-06T09:44:23Z</time>
      </trkpt>
      <trkpt lat="46.42786" lon="4.6612">
        <ele>246</ele>
        <time>2015-07-06T09:44:27Z</time>
      </trkpt>
      <trkpt lat="46.42783" lon="4.66097">
        <ele>244</ele>
        <time>2015-07-06T09:44:39Z</time>
      </trkpt>
      <trkpt lat="46.42781" lon="4.6609">
        <ele>244</ele>
        <time>2015-07-06T09:44:43Z</time>
      </trkpt>
      <trkpt lat="46.42774" lon="4.66079">
        <ele>241</ele>
        <time>2015-07-06T09:44:52Z</time>
      </trkpt>
      <trkpt lat="46.4277" lon="4.66077">
        <ele>240</ele>
        <time>2015-07-06T09:44:56Z</time>
      </trkpt>
      <trkpt lat="46.4275" lon="4.66076">
        <ele>244</ele>
        <time>2015-07-06T09:45:15Z</time>
      </trkpt>
      <trkpt lat="46.4274" lon="4.66075">
        <ele>244</ele>
        <time>2015-07-06T09:45:24Z</time>
      </trkpt>
      <trkpt lat="46.4273" lon="4.66069">
        <ele>245</ele>
        <time>2015-07-06T09:45:32Z</time>
      </trkpt>
      <trkpt lat="46.42721" lon="4.66064">
        <ele>244</ele>
        <time>2015-07-06T09:45:39Z</time>
      </trkpt>
      <trkpt lat="46.42709" lon="4.66062">
        <ele>245</ele>
        <time>2015-07-06T09:45:48Z</time>
      </trkpt>
      <trkpt lat="46.42686" lon="4.66047">
        <ele>245</ele>
        <time>2015-07-06T09:46:08Z</time>
      </trkpt>
      <trkpt lat="46.42682" lon="4.66047">
        <ele>245</ele>
        <time>2015-07-06T09:46:11Z</time>
      </trkpt>
      <trkpt lat="46.42676" lon="4.66045">
        <ele>245</ele>
        <time>2015-07-06T09:46:15Z</time>
      </trkpt>
      <trkpt lat="46.42672" lon="4.66041">
        <ele>245</ele>
        <time>2015-07-06T09:46:20Z</time>
      </trkpt>
      <trkpt lat="46.42666" lon="4.66043">
        <ele>245</ele>
        <time>2015-07-06T09:46:24Z</time>
      </trkpt>
      <trkpt lat="46.42662" lon="4.66046">
        <ele>246</ele>
        <time>2015-07-06T09:46:28Z</time>
      </trkpt>
      <trkpt lat="46.42656" lon="4.66047">
        <ele>246</ele>
        <time>2015-07-06T09:46:33Z</time>
      </trkpt>
      <trkpt lat="46.42649" lon="4.66047">
        <ele>247</ele>
        <time>2015-07-06T09:46:39Z</time>
      </trkpt>
      <trkpt lat="46.42647" lon="4.66044">
        <ele>247</ele>
        <time>2015-07-06T09:46:47Z</time>
      </trkpt>
      <trkpt lat="46.42648" lon="4.66038">
        <ele>247</ele>
        <time>2015-07-06T09:46:48Z</time>
      </trkpt>
      <trkpt lat="46.42643" lon="4.66037">
        <ele>247</ele>
        <time>2015-07-06T09:47:01Z</time>
      </trkpt>
      <trkpt lat="46.42639" lon="4.66036">
        <ele>247</ele>
        <time>2015-07-06T09:47:05Z</time>
      </trkpt>
      <trkpt lat="46.42633" lon="4.66033">
        <ele>247</ele>
        <time>2015-07-06T09:47:09Z</time>
      </trkpt>
      <trkpt lat="46.42622" lon="4.6603">
        <ele>250</ele>
        <time>2015-07-06T09:47:18Z</time>
      </trkpt>
      <trkpt lat="46.42617" lon="4.66028">
        <ele>250</ele>
        <time>2015-07-06T09:47:21Z</time>
      </trkpt>
      <trkpt lat="46.42602" lon="4.66026">
        <ele>249</ele>
        <time>2015-07-06T09:47:34Z</time>
      </trkpt>
      <trkpt lat="46.42597" lon="4.66024">
        <ele>249</ele>
        <time>2015-07-06T09:47:38Z</time>
      </trkpt>
      <trkpt lat="46.42594" lon="4.66019">
        <ele>249</ele>
        <time>2015-07-06T09:47:44Z</time>
      </trkpt>
      <trkpt lat="46.42579" lon="4.66005">
        <ele>249</ele>
        <time>2015-07-06T09:47:55Z</time>
      </trkpt>
      <trkpt lat="46.42574" lon="4.66007">
        <ele>249</ele>
        <time>2015-07-06T09:48:00Z</time>
      </trkpt>
      <trkpt lat="46.42569" lon="4.66006">
        <ele>250</ele>
        <time>2015-07-06T09:48:04Z</time>
      </trkpt>
      <trkpt lat="46.4256" lon="4.65995">
        <ele>250</ele>
        <time>2015-07-06T09:48:10Z</time>
      </trkpt>
      <trkpt lat="46.42555" lon="4.65995">
        <ele>250</ele>
        <time>2015-07-06T09:48:18Z</time>
      </trkpt>
      <trkpt lat="46.42541" lon="4.65986">
        <ele>250</ele>
        <time>2015-07-06T09:48:28Z</time>
      </trkpt>
      <trkpt lat="46.4253" lon="4.65984">
        <ele>250</ele>
        <time>2015-07-06T09:48:37Z</time>
      </trkpt>
      <trkpt lat="46.42525" lon="4.65984">
        <ele>250</ele>
        <time>2015-07-06T09:48:40Z</time>
      </trkpt>
      <trkpt lat="46.42521" lon="4.65983">
        <ele>250</ele>
        <time>2015-07-06T09:48:43Z</time>
      </trkpt>
      <trkpt lat="46.42515" lon="4.65982">
        <ele>251</ele>
        <time>2015-07-06T09:48:48Z</time>
      </trkpt>
      <trkpt lat="46.42476" lon="4.65965">
        <ele>252</ele>
        <time>2015-07-06T09:49:21Z</time>
      </trkpt>
      <trkpt lat="46.42471" lon="4.65962">
        <ele>252</ele>
        <time>2015-07-06T09:49:25Z</time>
      </trkpt>
      <trkpt lat="46.42467" lon="4.65957">
        <ele>252</ele>
        <time>2015-07-06T09:49:29Z</time>
      </trkpt>
      <trkpt lat="46.42464" lon="4.65952">
        <ele>252</ele>
        <time>2015-07-06T09:49:33Z</time>
      </trkpt>
      <trkpt lat="46.42458" lon="4.6595">
        <ele>252</ele>
        <time>2015-07-06T09:49:37Z</time>
      </trkpt>
      <trkpt lat="46.42453" lon="4.65948">
        <ele>251</ele>
        <time>2015-07-06T09:49:41Z</time>
      </trkpt>
      <trkpt lat="46.42417" lon="4.65939">
        <ele>252</ele>
        <time>2015-07-06T09:50:13Z</time>
      </trkpt>
      <trkpt lat="46.42393" lon="4.6594">
        <ele>252</ele>
        <time>2015-07-06T09:50:28Z</time>
      </trkpt>
      <trkpt lat="46.42389" lon="4.65937">
        <ele>252</ele>
        <time>2015-07-06T09:50:32Z</time>
      </trkpt>
      <trkpt lat="46.42386" lon="4.65932">
        <ele>251</ele>
        <time>2015-07-06T09:50:37Z</time>
      </trkpt>
      <trkpt lat="46.42347" lon="4.65908">
        <ele>252</ele>
        <time>2015-07-06T09:51:10Z</time>
      </trkpt>
      <trkpt lat="46.42342" lon="4.65906">
        <ele>252</ele>
        <time>2015-07-06T09:51:14Z</time>
      </trkpt>
      <trkpt lat="46.42316" lon="4.65892">
        <ele>253</ele>
        <time>2015-07-06T09:51:34Z</time>
      </trkpt>
      <trkpt lat="46.42306" lon="4.65889">
        <ele>252</ele>
        <time>2015-07-06T09:51:44Z</time>
      </trkpt>
      <trkpt lat="46.42286" lon="4.65868">
        <ele>252</ele>
        <time>2015-07-06T09:52:02Z</time>
      </trkpt>
      <trkpt lat="46.42272" lon="4.65857">
        <ele>253</ele>
        <time>2015-07-06T09:52:14Z</time>
      </trkpt>
      <trkpt lat="46.4226" lon="4.65842">
        <ele>254</ele>
        <time>2015-07-06T09:52:26Z</time>
      </trkpt>
      <trkpt lat="46.42251" lon="4.65833">
        <ele>254</ele>
        <time>2015-07-06T09:52:34Z</time>
      </trkpt>
      <trkpt lat="46.42247" lon="4.6583">
        <ele>253</ele>
        <time>2015-07-06T09:52:38Z</time>
      </trkpt>
      <trkpt lat="46.42237" lon="4.65815">
        <ele>254</ele>
        <time>2015-07-06T09:52:48Z</time>
      </trkpt>
      <trkpt lat="46.42232" lon="4.6581">
        <ele>254</ele>
        <time>2015-07-06T09:52:53Z</time>
      </trkpt>
      <trkpt lat="46.42214" lon="4.65778">
        <ele>251</ele>
        <time>2015-07-06T09:53:11Z</time>
      </trkpt>
      <trkpt lat="46.42208" lon="4.65767">
        <ele>251</ele>
        <time>2015-07-06T09:53:20Z</time>
      </trkpt>
      <trkpt lat="46.42205" lon="4.65761">
        <ele>251</ele>
        <time>2015-07-06T09:53:24Z</time>
      </trkpt>
      <trkpt lat="46.42203" lon="4.65754">
        <ele>251</ele>
        <time>2015-07-06T09:53:27Z</time>
      </trkpt>
      <trkpt lat="46.422" lon="4.65748">
        <ele>251</ele>
        <time>2015-07-06T09:53:31Z</time>
      </trkpt>
      <trkpt lat="46.42193" lon="4.65737">
        <ele>253</ele>
        <time>2015-07-06T09:53:39Z</time>
      </trkpt>
      <trkpt lat="46.4219" lon="4.65731">
        <ele>253</ele>
        <time>2015-07-06T09:53:43Z</time>
      </trkpt>
      <trkpt lat="46.42184" lon="4.65719">
        <ele>253</ele>
        <time>2015-07-06T09:53:51Z</time>
      </trkpt>
      <trkpt lat="46.42181" lon="4.65713">
        <ele>253</ele>
        <time>2015-07-06T09:53:55Z</time>
      </trkpt>
      <trkpt lat="46.42178" lon="4.65707">
        <ele>253</ele>
        <time>2015-07-06T09:53:59Z</time>
      </trkpt>
      <trkpt lat="46.42173" lon="4.65695">
        <ele>252</ele>
        <time>2015-07-06T09:54:06Z</time>
      </trkpt>
      <trkpt lat="46.42166" lon="4.65685">
        <ele>251</ele>
        <time>2015-07-06T09:54:15Z</time>
      </trkpt>
      <trkpt lat="46.42164" lon="4.65679">
        <ele>251</ele>
        <time>2015-07-06T09:54:19Z</time>
      </trkpt>
      <trkpt lat="46.42161" lon="4.65674">
        <ele>251</ele>
        <time>2015-07-06T09:54:23Z</time>
      </trkpt>
      <trkpt lat="46.42151" lon="4.65654">
        <ele>253</ele>
        <time>2015-07-06T09:54:38Z</time>
      </trkpt>
      <trkpt lat="46.42143" lon="4.65644">
        <ele>253</ele>
        <time>2015-07-06T09:54:46Z</time>
      </trkpt>
      <trkpt lat="46.42112" lon="4.65602">
        <ele>258</ele>
        <time>2015-07-06T09:55:18Z</time>
      </trkpt>
      <trkpt lat="46.42104" lon="4.65591">
        <ele>256</ele>
        <time>2015-07-06T09:55:27Z</time>
      </trkpt>
      <trkpt lat="46.42088" lon="4.65538">
        <ele>258</ele>
        <time>2015-07-06T09:56:00Z</time>
      </trkpt>
      <trkpt lat="46.42086" lon="4.6553">
        <ele>258</ele>
        <time>2015-07-06T09:56:04Z</time>
      </trkpt>
      <trkpt lat="46.42083" lon="4.65517">
        <ele>257</ele>
        <time>2015-07-06T09:56:10Z</time>
      </trkpt>
      <trkpt lat="46.4208" lon="4.65502">
        <ele>259</ele>
        <time>2015-07-06T09:56:19Z</time>
      </trkpt>
      <trkpt lat="46.42081" lon="4.65496">
        <ele>259</ele>
        <time>2015-07-06T09:56:22Z</time>
      </trkpt>
      <trkpt lat="46.42081" lon="4.65491">
        <ele>259</ele>
        <time>2015-07-06T09:56:25Z</time>
      </trkpt>
      <trkpt lat="46.42081" lon="4.65478">
        <ele>257</ele>
        <time>2015-07-06T09:56:33Z</time>
      </trkpt>
      <trkpt lat="46.42083" lon="4.6547">
        <ele>256</ele>
        <time>2015-07-06T09:56:38Z</time>
      </trkpt>
      <trkpt lat="46.42084" lon="4.65462">
        <ele>256</ele>
        <time>2015-07-06T09:56:42Z</time>
      </trkpt>
      <trkpt lat="46.42084" lon="4.65454">
        <ele>256</ele>
        <time>2015-07-06T09:56:46Z</time>
      </trkpt>
      <trkpt lat="46.42084" lon="4.65446">
        <ele>258</ele>
        <time>2015-07-06T09:56:50Z</time>
      </trkpt>
      <trkpt lat="46.42084" lon="4.65439">
        <ele>259</ele>
        <time>2015-07-06T09:56:54Z</time>
      </trkpt>
      <trkpt lat="46.42085" lon="4.65425">
        <ele>258</ele>
        <time>2015-07-06T09:57:02Z</time>
      </trkpt>
      <trkpt lat="46.42091" lon="4.65365">
        <ele>259</ele>
        <time>2015-07-06T09:57:34Z</time>
      </trkpt>
      <trkpt lat="46.42103" lon="4.65302">
        <ele>260</ele>
        <time>2015-07-06T09:58:08Z</time>
      </trkpt>
      <trkpt lat="46.42108" lon="4.65289">
        <ele>260</ele>
        <time>2015-07-06T09:58:15Z</time>
      </trkpt>
      <trkpt lat="46.42111" lon="4.65283">
        <ele>260</ele>
        <time>2015-07-06T09:58:19Z</time>
      </trkpt>
      <trkpt lat="46.42121" lon="4.65255">
        <ele>260</ele>
        <time>2015-07-06T09:58:37Z</time>
      </trkpt>
      <trkpt lat="46.42137" lon="4.65206">
        <ele>258</ele>
        <time>2015-07-06T09:59:09Z</time>
      </trkpt>
      <trkpt lat="46.42141" lon="4.652">
        <ele>257</ele>
        <time>2015-07-06T09:59:13Z</time>
      </trkpt>
      <trkpt lat="46.42143" lon="4.65177">
        <ele>256</ele>
        <time>2015-07-06T09:59:25Z</time>
      </trkpt>
      <trkpt lat="46.4214" lon="4.65172">
        <ele>256</ele>
        <time>2015-07-06T09:59:30Z</time>
      </trkpt>
      <trkpt lat="46.42135" lon="4.65172">
        <ele>255</ele>
        <time>2015-07-06T09:59:34Z</time>
      </trkpt>
      <trkpt lat="46.4213" lon="4.65172">
        <ele>253</ele>
        <time>2015-07-06T09:59:38Z</time>
      </trkpt>
      <trkpt lat="46.42125" lon="4.65173">
        <ele>254</ele>
        <time>2015-07-06T09:59:42Z</time>
      </trkpt>
      <trkpt lat="46.4212" lon="4.65174">
        <ele>254</ele>
        <time>2015-07-06T09:59:46Z</time>
      </trkpt>
      <trkpt lat="46.42111" lon="4.65177">
        <ele>253</ele>
        <time>2015-07-06T09:59:54Z</time>
      </trkpt>
      <trkpt lat="46.42106" lon="4.65181">
        <ele>253</ele>
        <time>2015-07-06T09:59:58Z</time>
      </trkpt>
      <trkpt lat="46.42102" lon="4.65186">
        <ele>253</ele>
        <time>2015-07-06T10:00:04Z</time>
      </trkpt>
      <trkpt lat="46.42098" lon="4.65188">
        <ele>253</ele>
        <time>2015-07-06T10:00:08Z</time>
      </trkpt>
      <trkpt lat="46.4209" lon="4.65196">
        <ele>253</ele>
        <time>2015-07-06T10:00:16Z</time>
      </trkpt>
      <trkpt lat="46.42087" lon="4.65201">
        <ele>253</ele>
        <time>2015-07-06T10:00:19Z</time>
      </trkpt>
      <trkpt lat="46.42064" lon="4.65226">
        <ele>252</ele>
        <time>2015-07-06T10:00:42Z</time>
      </trkpt>
      <trkpt lat="46.42038" lon="4.65267">
        <ele>250</ele>
        <time>2015-07-06T10:01:12Z</time>
      </trkpt>
      <trkpt lat="46.42035" lon="4.65272">
        <ele>250</ele>
        <time>2015-07-06T10:01:17Z</time>
      </trkpt>
      <trkpt lat="46.42023" lon="4.65288">
        <ele>249</ele>
        <time>2015-07-06T10:01:28Z</time>
      </trkpt>
      <trkpt lat="46.42018" lon="4.65293">
        <ele>249</ele>
        <time>2015-07-06T10:01:34Z</time>
      </trkpt>
      <trkpt lat="46.41984" lon="4.65324">
        <ele>248</ele>
        <time>2015-07-06T10:02:05Z</time>
      </trkpt>
      <trkpt lat="46.41968" lon="4.65338">
        <ele>249</ele>
        <time>2015-07-06T10:02:18Z</time>
      </trkpt>
      <trkpt lat="46.41962" lon="4.65337">
        <ele>249</ele>
        <time>2015-07-06T10:02:22Z</time>
      </trkpt>
      <trkpt lat="46.41958" lon="4.65334">
        <ele>249</ele>
        <time>2015-07-06T10:02:27Z</time>
      </trkpt>
      <trkpt lat="46.41954" lon="4.65328">
        <ele>249</ele>
        <time>2015-07-06T10:02:31Z</time>
      </trkpt>
      <trkpt lat="46.4195" lon="4.65315">
        <ele>250</ele>
        <time>2015-07-06T10:02:41Z</time>
      </trkpt>
      <trkpt lat="46.41946" lon="4.65303">
        <ele>250</ele>
        <time>2015-07-06T10:02:48Z</time>
      </trkpt>
      <trkpt lat="46.41942" lon="4.653">
        <ele>249</ele>
        <time>2015-07-06T10:02:52Z</time>
      </trkpt>
      <trkpt lat="46.41937" lon="4.653">
        <ele>249</ele>
        <time>2015-07-06T10:02:56Z</time>
      </trkpt>
      <trkpt lat="46.41921" lon="4.65305">
        <ele>252</ele>
        <time>2015-07-06T10:03:07Z</time>
      </trkpt>
      <trkpt lat="46.41919" lon="4.65311">
        <ele>253</ele>
        <time>2015-07-06T10:03:12Z</time>
      </trkpt>
      <trkpt lat="46.41914" lon="4.65315">
        <ele>253</ele>
        <time>2015-07-06T10:03:17Z</time>
      </trkpt>
      <trkpt lat="46.41909" lon="4.65316">
        <ele>253</ele>
        <time>2015-07-06T10:03:21Z</time>
      </trkpt>
      <trkpt lat="46.41904" lon="4.65318">
        <ele>253</ele>
        <time>2015-07-06T10:03:26Z</time>
      </trkpt>
      <trkpt lat="46.41899" lon="4.65318">
        <ele>252</ele>
        <time>2015-07-06T10:03:30Z</time>
      </trkpt>
      <trkpt lat="46.41895" lon="4.65322">
        <ele>252</ele>
        <time>2015-07-06T10:03:34Z</time>
      </trkpt>
      <trkpt lat="46.41892" lon="4.65327">
        <ele>252</ele>
        <time>2015-07-06T10:03:37Z</time>
      </trkpt>
      <trkpt lat="46.41859" lon="4.65348">
        <ele>260</ele>
        <time>2015-07-06T10:04:04Z</time>
      </trkpt>
      <trkpt lat="46.4185" lon="4.6535">
        <ele>260</ele>
        <time>2015-07-06T10:04:12Z</time>
      </trkpt>
      <trkpt lat="46.41817" lon="4.65338">
        <ele>258</ele>
        <time>2015-07-06T10:04:40Z</time>
      </trkpt>
      <trkpt lat="46.41797" lon="4.65333">
        <ele>259</ele>
        <time>2015-07-06T10:04:55Z</time>
      </trkpt>
      <trkpt lat="46.41791" lon="4.65331">
        <ele>259</ele>
        <time>2015-07-06T10:05:00Z</time>
      </trkpt>
      <trkpt lat="46.41757" lon="4.65315">
        <ele>262</ele>
        <time>2015-07-06T10:05:29Z</time>
      </trkpt>
      <trkpt lat="46.41746" lon="4.65313">
        <ele>262</ele>
        <time>2015-07-06T10:05:37Z</time>
      </trkpt>
      <trkpt lat="46.41706" lon="4.65296">
        <ele>265</ele>
        <time>2015-07-06T10:06:10Z</time>
      </trkpt>
      <trkpt lat="46.41697" lon="4.65291">
        <ele>268</ele>
        <time>2015-07-06T10:06:18Z</time>
      </trkpt>
      <trkpt lat="46.4169" lon="4.65287">
        <ele>268</ele>
        <time>2015-07-06T10:06:24Z</time>
      </trkpt>
      <trkpt lat="46.41658" lon="4.65275">
        <ele>269</ele>
        <time>2015-07-06T10:06:48Z</time>
      </trkpt>
      <trkpt lat="46.4165" lon="4.65267">
        <ele>268</ele>
        <time>2015-07-06T10:06:59Z</time>
      </trkpt>
      <trkpt lat="46.41646" lon="4.65262">
        <ele>269</ele>
        <time>2015-07-06T10:07:05Z</time>
      </trkpt>
      <trkpt lat="46.41642" lon="4.65259">
        <ele>268</ele>
        <time>2015-07-06T10:07:08Z</time>
      </trkpt>
      <trkpt lat="46.41636" lon="4.65256">
        <ele>267</ele>
        <time>2015-07-06T10:07:13Z</time>
      </trkpt>
      <trkpt lat="46.41632" lon="4.65255">
        <ele>268</ele>
        <time>2015-07-06T10:07:17Z</time>
      </trkpt>
      <trkpt lat="46.41622" lon="4.65253">
        <ele>268</ele>
        <time>2015-07-06T10:07:23Z</time>
      </trkpt>
      <trkpt lat="46.41618" lon="4.6525">
        <ele>267</ele>
        <time>2015-07-06T10:07:27Z</time>
      </trkpt>
      <trkpt lat="46.41614" lon="4.65244">
        <ele>267</ele>
        <time>2015-07-06T10:07:31Z</time>
      </trkpt>
      <trkpt lat="46.4161" lon="4.65243">
        <ele>266</ele>
        <time>2015-07-06T10:07:35Z</time>
      </trkpt>
      <trkpt lat="46.416" lon="4.65236">
        <ele>266</ele>
        <time>2015-07-06T10:07:43Z</time>
      </trkpt>
      <trkpt lat="46.41586" lon="4.65227">
        <ele>268</ele>
        <time>2015-07-06T10:07:56Z</time>
      </trkpt>
      <trkpt lat="46.41581" lon="4.65224">
        <ele>268</ele>
        <time>2015-07-06T10:08:01Z</time>
      </trkpt>
      <trkpt lat="46.41564" lon="4.65216">
        <ele>271</ele>
        <time>2015-07-06T10:08:13Z</time>
      </trkpt>
      <trkpt lat="46.41545" lon="4.65206">
        <ele>271</ele>
        <time>2015-07-06T10:08:30Z</time>
      </trkpt>
      <trkpt lat="46.41537" lon="4.65197">
        <ele>271</ele>
        <time>2015-07-06T10:08:39Z</time>
      </trkpt>
      <trkpt lat="46.41532" lon="4.65195">
        <ele>272</ele>
        <time>2015-07-06T10:08:43Z</time>
      </trkpt>
      <trkpt lat="46.41507" lon="4.65184">
        <ele>273</ele>
        <time>2015-07-06T10:09:03Z</time>
      </trkpt>
      <trkpt lat="46.41502" lon="4.65181">
        <ele>273</ele>
        <time>2015-07-06T10:09:07Z</time>
      </trkpt>
      <trkpt lat="46.41497" lon="4.6518">
        <ele>272</ele>
        <time>2015-07-06T10:09:11Z</time>
      </trkpt>
      <trkpt lat="46.41494" lon="4.65178">
        <ele>273</ele>
        <time>2015-07-06T10:09:13Z</time>
      </trkpt>
      <trkpt lat="46.41488" lon="4.65175">
        <ele>273</ele>
        <time>2015-07-06T10:09:18Z</time>
      </trkpt>
      <trkpt lat="46.41487" lon="4.65169">
        <ele>272</ele>
        <time>2015-07-06T10:09:28Z</time>
      </trkpt>
      <trkpt lat="46.41481" lon="4.65163">
        <ele>272</ele>
        <time>2015-07-06T10:13:34Z</time>
      </trkpt>
      <trkpt lat="46.41474" lon="4.65156">
        <ele>272</ele>
        <time>2015-07-06T10:13:41Z</time>
      </trkpt>
      <trkpt lat="46.4147" lon="4.6515">
        <ele>271</ele>
        <time>2015-07-06T10:13:46Z</time>
      </trkpt>
      <trkpt lat="46.41461" lon="4.65145">
        <ele>268</ele>
        <time>2015-07-06T10:13:57Z</time>
      </trkpt>
      <trkpt lat="46.41456" lon="4.65141">
        <ele>268</ele>
        <time>2015-07-06T10:14:01Z</time>
      </trkpt>
      <trkpt lat="46.41447" lon="4.65132">
        <ele>270</ele>
        <time>2015-07-06T10:14:09Z</time>
      </trkpt>
      <trkpt lat="46.41443" lon="4.65129">
        <ele>270</ele>
        <time>2015-07-06T10:14:13Z</time>
      </trkpt>
      <trkpt lat="46.4143" lon="4.65119">
        <ele>268</ele>
        <time>2015-07-06T10:14:24Z</time>
      </trkpt>
      <trkpt lat="46.41414" lon="4.65111">
        <ele>269</ele>
        <time>2015-07-06T10:14:35Z</time>
      </trkpt>
      <trkpt lat="46.41397" lon="4.65109">
        <ele>268</ele>
        <time>2015-07-06T10:14:48Z</time>
      </trkpt>
      <trkpt lat="46.41392" lon="4.65113">
        <ele>267</ele>
        <time>2015-07-06T10:14:54Z</time>
      </trkpt>
      <trkpt lat="46.41382" lon="4.65115">
        <ele>266</ele>
        <time>2015-07-06T10:15:01Z</time>
      </trkpt>
      <trkpt lat="46.41377" lon="4.65115">
        <ele>266</ele>
        <time>2015-07-06T10:15:06Z</time>
      </trkpt>
      <trkpt lat="46.41373" lon="4.65113">
        <ele>266</ele>
        <time>2015-07-06T10:15:09Z</time>
      </trkpt>
      <trkpt lat="46.41355" lon="4.65112">
        <ele>266</ele>
        <time>2015-07-06T10:15:22Z</time>
      </trkpt>
      <trkpt lat="46.41345" lon="4.65112">
        <ele>265</ele>
        <time>2015-07-06T10:15:31Z</time>
      </trkpt>
      <trkpt lat="46.41338" lon="4.65116">
        <ele>265</ele>
        <time>2015-07-06T10:15:35Z</time>
      </trkpt>
      <trkpt lat="46.41317" lon="4.65109">
        <ele>268</ele>
        <time>2015-07-06T10:15:54Z</time>
      </trkpt>
      <trkpt lat="46.41311" lon="4.6511">
        <ele>267</ele>
        <time>2015-07-06T10:15:58Z</time>
      </trkpt>
      <trkpt lat="46.41306" lon="4.65108">
        <ele>267</ele>
        <time>2015-07-06T10:16:03Z</time>
      </trkpt>
      <trkpt lat="46.41297" lon="4.65107">
        <ele>267</ele>
        <time>2015-07-06T10:16:10Z</time>
      </trkpt>
      <trkpt lat="46.41292" lon="4.65104">
        <ele>267</ele>
        <time>2015-07-06T10:16:16Z</time>
      </trkpt>
      <trkpt lat="46.41283" lon="4.65099">
        <ele>267</ele>
        <time>2015-07-06T10:16:22Z</time>
      </trkpt>
      <trkpt lat="46.41278" lon="4.65092">
        <ele>265</ele>
        <time>2015-07-06T10:16:32Z</time>
      </trkpt>
      <trkpt lat="46.41266" lon="4.65088">
        <ele>264</ele>
        <time>2015-07-06T10:16:40Z</time>
      </trkpt>
      <trkpt lat="46.41261" lon="4.65088">
        <ele>264</ele>
        <time>2015-07-06T10:16:44Z</time>
      </trkpt>
      <trkpt lat="46.41256" lon="4.65087">
        <ele>264</ele>
        <time>2015-07-06T10:16:48Z</time>
      </trkpt>
      <trkpt lat="46.41251" lon="4.65089">
        <ele>265</ele>
        <time>2015-07-06T10:16:53Z</time>
      </trkpt>
      <trkpt lat="46.41237" lon="4.65083">
        <ele>265</ele>
        <time>2015-07-06T10:17:03Z</time>
      </trkpt>
      <trkpt lat="46.41221" lon="4.65078">
        <ele>268</ele>
        <time>2015-07-06T10:17:13Z</time>
      </trkpt>
      <trkpt lat="46.41212" lon="4.65074">
        <ele>267</ele>
        <time>2015-07-06T10:17:19Z</time>
      </trkpt>
      <trkpt lat="46.41198" lon="4.65071">
        <ele>268</ele>
        <time>2015-07-06T10:17:28Z</time>
      </trkpt>
      <trkpt lat="46.41194" lon="4.65068">
        <ele>267</ele>
        <time>2015-07-06T10:17:35Z</time>
      </trkpt>
      <trkpt lat="46.41191" lon="4.65062">
        <ele>266</ele>
        <time>2015-07-06T10:17:40Z</time>
      </trkpt>
      <trkpt lat="46.41186" lon="4.6506">
        <ele>265</ele>
        <time>2015-07-06T10:17:45Z</time>
      </trkpt>
      <trkpt lat="46.41181" lon="4.65057">
        <ele>264</ele>
        <time>2015-07-06T10:17:48Z</time>
      </trkpt>
      <trkpt lat="46.41175" lon="4.65057">
        <ele>264</ele>
        <time>2015-07-06T10:17:52Z</time>
      </trkpt>
      <trkpt lat="46.4117" lon="4.65057">
        <ele>265</ele>
        <time>2015-07-06T10:17:56Z</time>
      </trkpt>
      <trkpt lat="46.41166" lon="4.65054">
        <ele>265</ele>
        <time>2015-07-06T10:18:03Z</time>
      </trkpt>
      <trkpt lat="46.41152" lon="4.65048">
        <ele>264</ele>
        <time>2015-07-06T10:18:12Z</time>
      </trkpt>
      <trkpt lat="46.41131" lon="4.65043">
        <ele>267</ele>
        <time>2015-07-06T10:18:30Z</time>
      </trkpt>
      <trkpt lat="46.41126" lon="4.65042">
        <ele>267</ele>
        <time>2015-07-06T10:18:33Z</time>
      </trkpt>
      <trkpt lat="46.41121" lon="4.65039">
        <ele>266</ele>
        <time>2015-07-06T10:18:37Z</time>
      </trkpt>
      <trkpt lat="46.41115" lon="4.65036">
        <ele>266</ele>
        <time>2015-07-06T10:18:41Z</time>
      </trkpt>
      <trkpt lat="46.41096" lon="4.6503">
        <ele>266</ele>
        <time>2015-07-06T10:18:57Z</time>
      </trkpt>
      <trkpt lat="46.41082" lon="4.65028">
        <ele>265</ele>
        <time>2015-07-06T10:19:08Z</time>
      </trkpt>
      <trkpt lat="46.41073" lon="4.65021">
        <ele>264</ele>
        <time>2015-07-06T10:19:16Z</time>
      </trkpt>
      <trkpt lat="46.41066" lon="4.65023">
        <ele>264</ele>
        <time>2015-07-06T10:19:22Z</time>
      </trkpt>
      <trkpt lat="46.41062" lon="4.65028">
        <ele>264</ele>
        <time>2015-07-06T10:19:28Z</time>
      </trkpt>
      <trkpt lat="46.41058" lon="4.65025">
        <ele>264</ele>
        <time>2015-07-06T10:19:31Z</time>
      </trkpt>
      <trkpt lat="46.41042" lon="4.6501">
        <ele>266</ele>
        <time>2015-07-06T10:19:46Z</time>
      </trkpt>
      <trkpt lat="46.41036" lon="4.65011">
        <ele>266</ele>
        <time>2015-07-06T10:19:51Z</time>
      </trkpt>
      <trkpt lat="46.4103" lon="4.65014">
        <ele>266</ele>
        <time>2015-07-06T10:19:57Z</time>
      </trkpt>
      <trkpt lat="46.41026" lon="4.65011">
        <ele>267</ele>
        <time>2015-07-06T10:19:59Z</time>
      </trkpt>
      <trkpt lat="46.41017" lon="4.65004">
        <ele>266</ele>
        <time>2015-07-06T10:20:06Z</time>
      </trkpt>
      <trkpt lat="46.41014" lon="4.64999">
        <ele>266</ele>
        <time>2015-07-06T10:20:09Z</time>
      </trkpt>
      <trkpt lat="46.4099" lon="4.64987">
        <ele>263</ele>
        <time>2015-07-06T10:20:29Z</time>
      </trkpt>
      <trkpt lat="46.40985" lon="4.64986">
        <ele>262</ele>
        <time>2015-07-06T10:20:33Z</time>
      </trkpt>
      <trkpt lat="46.40979" lon="4.64985">
        <ele>262</ele>
        <time>2015-07-06T10:20:37Z</time>
      </trkpt>
      <trkpt lat="46.40975" lon="4.6498">
        <ele>263</ele>
        <time>2015-07-06T10:20:43Z</time>
      </trkpt>
      <trkpt lat="46.40972" lon="4.64975">
        <ele>263</ele>
        <time>2015-07-06T10:20:48Z</time>
      </trkpt>
      <trkpt lat="46.40967" lon="4.64975">
        <ele>262</ele>
        <time>2015-07-06T10:20:51Z</time>
      </trkpt>
      <trkpt lat="46.4096" lon="4.64976">
        <ele>261</ele>
        <time>2015-07-06T10:20:56Z</time>
      </trkpt>
      <trkpt lat="46.40951" lon="4.64979">
        <ele>260</ele>
        <time>2015-07-06T10:21:02Z</time>
      </trkpt>
      <trkpt lat="46.40942" lon="4.6498">
        <ele>260</ele>
        <time>2015-07-06T10:21:09Z</time>
      </trkpt>
      <trkpt lat="46.40937" lon="4.64978">
        <ele>260</ele>
        <time>2015-07-06T10:21:13Z</time>
      </trkpt>
      <trkpt lat="46.40932" lon="4.6498">
        <ele>260</ele>
        <time>2015-07-06T10:21:17Z</time>
      </trkpt>
      <trkpt lat="46.40928" lon="4.64983">
        <ele>260</ele>
        <time>2015-07-06T10:21:22Z</time>
      </trkpt>
      <trkpt lat="46.40922" lon="4.64984">
        <ele>260</ele>
        <time>2015-07-06T10:21:26Z</time>
      </trkpt>
      <trkpt lat="46.40919" lon="4.64988">
        <ele>260</ele>
        <time>2015-07-06T10:21:29Z</time>
      </trkpt>
      <trkpt lat="46.40918" lon="4.64991">
        <ele>261</ele>
        <time>2015-07-06T10:21:30Z</time>
      </trkpt>
      <trkpt lat="46.40915" lon="4.64997">
        <ele>260</ele>
        <time>2015-07-06T10:21:34Z</time>
      </trkpt>
      <trkpt lat="46.40888" lon="4.65015">
        <ele>255</ele>
        <time>2015-07-06T10:21:59Z</time>
      </trkpt>
      <trkpt lat="46.40885" lon="4.6502">
        <ele>255</ele>
        <time>2015-07-06T10:22:02Z</time>
      </trkpt>
      <trkpt lat="46.40875" lon="4.65022">
        <ele>256</ele>
        <time>2015-07-06T10:22:09Z</time>
      </trkpt>
      <trkpt lat="46.40861" lon="4.6501">
        <ele>253</ele>
        <time>2015-07-06T10:22:19Z</time>
      </trkpt>
      <trkpt lat="46.40851" lon="4.64998">
        <ele>253</ele>
        <time>2015-07-06T10:22:29Z</time>
      </trkpt>
      <trkpt lat="46.40846" lon="4.65">
        <ele>253</ele>
        <time>2015-07-06T10:22:36Z</time>
      </trkpt>
      <trkpt lat="46.40841" lon="4.64997">
        <ele>253</ele>
        <time>2015-07-06T10:22:40Z</time>
      </trkpt>
      <trkpt lat="46.40834" lon="4.64987">
        <ele>253</ele>
        <time>2015-07-06T10:22:47Z</time>
      </trkpt>
      <trkpt lat="46.40829" lon="4.64984">
        <ele>253</ele>
        <time>2015-07-06T10:22:51Z</time>
      </trkpt>
      <trkpt lat="46.40824" lon="4.64976">
        <ele>254</ele>
        <time>2015-07-06T10:22:57Z</time>
      </trkpt>
      <trkpt lat="46.4082" lon="4.64974">
        <ele>254</ele>
        <time>2015-07-06T10:23:01Z</time>
      </trkpt>
      <trkpt lat="46.40817" lon="4.64968">
        <ele>254</ele>
        <time>2015-07-06T10:23:04Z</time>
      </trkpt>
      <trkpt lat="46.4079" lon="4.64944">
        <ele>256</ele>
        <time>2015-07-06T10:23:31Z</time>
      </trkpt>
      <trkpt lat="46.40784" lon="4.64937">
        <ele>256</ele>
        <time>2015-07-06T10:23:36Z</time>
      </trkpt>
      <trkpt lat="46.40782" lon="4.64939">
        <ele>257</ele>
        <time>2015-07-06T10:23:41Z</time>
      </trkpt>
      <trkpt lat="46.40775" lon="4.64938">
        <ele>257</ele>
        <time>2015-07-06T10:23:48Z</time>
      </trkpt>
      <trkpt lat="46.40762" lon="4.64939">
        <ele>257</ele>
        <time>2015-07-06T10:23:55Z</time>
      </trkpt>
      <trkpt lat="46.40758" lon="4.64935">
        <ele>256</ele>
        <time>2015-07-06T10:23:59Z</time>
      </trkpt>
      <trkpt lat="46.40753" lon="4.64934">
        <ele>256</ele>
        <time>2015-07-06T10:24:04Z</time>
      </trkpt>
      <trkpt lat="46.40744" lon="4.64927">
        <ele>256</ele>
        <time>2015-07-06T10:24:10Z</time>
      </trkpt>
      <trkpt lat="46.40734" lon="4.6492">
        <ele>256</ele>
        <time>2015-07-06T10:24:24Z</time>
      </trkpt>
      <trkpt lat="46.40725" lon="4.64909">
        <ele>256</ele>
        <time>2015-07-06T10:24:30Z</time>
      </trkpt>
      <trkpt lat="46.40722" lon="4.64909">
        <ele>256</ele>
        <time>2015-07-06T10:24:38Z</time>
      </trkpt>
      <trkpt lat="46.40715" lon="4.64898">
        <ele>256</ele>
        <time>2015-07-06T10:24:44Z</time>
      </trkpt>
      <trkpt lat="46.4071" lon="4.64894">
        <ele>256</ele>
        <time>2015-07-06T10:24:48Z</time>
      </trkpt>
      <trkpt lat="46.40706" lon="4.64886">
        <ele>256</ele>
        <time>2015-07-06T10:24:51Z</time>
      </trkpt>
      <trkpt lat="46.40701" lon="4.64882">
        <ele>255</ele>
        <time>2015-07-06T10:24:55Z</time>
      </trkpt>
      <trkpt lat="46.40686" lon="4.64847">
        <ele>255</ele>
        <time>2015-07-06T10:25:14Z</time>
      </trkpt>
      <trkpt lat="46.40645" lon="4.64822">
        <ele>255</ele>
        <time>2015-07-06T10:25:45Z</time>
      </trkpt>
      <trkpt lat="46.40638" lon="4.64821">
        <ele>255</ele>
        <time>2015-07-06T10:25:49Z</time>
      </trkpt>
      <trkpt lat="46.40635" lon="4.64814">
        <ele>255</ele>
        <time>2015-07-06T10:25:54Z</time>
      </trkpt>
      <trkpt lat="46.40629" lon="4.64807">
        <ele>254</ele>
        <time>2015-07-06T10:26:02Z</time>
      </trkpt>
      <trkpt lat="46.4063" lon="4.64799">
        <ele>255</ele>
        <time>2015-07-06T10:26:07Z</time>
      </trkpt>
      <trkpt lat="46.40626" lon="4.64796">
        <ele>255</ele>
        <time>2015-07-06T10:26:11Z</time>
      </trkpt>
      <trkpt lat="46.40612" lon="4.64788">
        <ele>256</ele>
        <time>2015-07-06T10:26:23Z</time>
      </trkpt>
      <trkpt lat="46.40609" lon="4.64778">
        <ele>255</ele>
        <time>2015-07-06T10:26:27Z</time>
      </trkpt>
      <trkpt lat="46.40605" lon="4.64774">
        <ele>255</ele>
        <time>2015-07-06T10:26:30Z</time>
      </trkpt>
      <trkpt lat="46.40595" lon="4.64772">
        <ele>255</ele>
        <time>2015-07-06T10:26:36Z</time>
      </trkpt>
      <trkpt lat="46.40589" lon="4.6477">
        <ele>255</ele>
        <time>2015-07-06T10:26:40Z</time>
      </trkpt>
      <trkpt lat="46.40585" lon="4.64766">
        <ele>256</ele>
        <time>2015-07-06T10:26:44Z</time>
      </trkpt>
      <trkpt lat="46.40572" lon="4.64756">
        <ele>255</ele>
        <time>2015-07-06T10:26:57Z</time>
      </trkpt>
      <trkpt lat="46.40567" lon="4.64753">
        <ele>255</ele>
        <time>2015-07-06T10:27:01Z</time>
      </trkpt>
      <trkpt lat="46.40562" lon="4.64751">
        <ele>255</ele>
        <time>2015-07-06T10:27:04Z</time>
      </trkpt>
      <trkpt lat="46.40557" lon="4.64752">
        <ele>255</ele>
        <time>2015-07-06T10:27:08Z</time>
      </trkpt>
      <trkpt lat="46.40547" lon="4.64745">
        <ele>255</ele>
        <time>2015-07-06T10:27:16Z</time>
      </trkpt>
      <trkpt lat="46.40538" lon="4.64738">
        <ele>255</ele>
        <time>2015-07-06T10:27:23Z</time>
      </trkpt>
      <trkpt lat="46.40532" lon="4.64739">
        <ele>255</ele>
        <time>2015-07-06T10:27:28Z</time>
      </trkpt>
      <trkpt lat="46.40522" lon="4.64733">
        <ele>256</ele>
        <time>2015-07-06T10:27:35Z</time>
      </trkpt>
      <trkpt lat="46.40517" lon="4.64729">
        <ele>256</ele>
        <time>2015-07-06T10:27:43Z</time>
      </trkpt>
      <trkpt lat="46.40501" lon="4.64725">
        <ele>256</ele>
        <time>2015-07-06T10:27:56Z</time>
      </trkpt>
      <trkpt lat="46.40496" lon="4.64724">
        <ele>256</ele>
        <time>2015-07-06T10:27:59Z</time>
      </trkpt>
      <trkpt lat="46.40492" lon="4.64727">
        <ele>256</ele>
        <time>2015-07-06T10:28:04Z</time>
      </trkpt>
      <trkpt lat="46.40486" lon="4.64725">
        <ele>256</ele>
        <time>2015-07-06T10:28:07Z</time>
      </trkpt>
      <trkpt lat="46.40482" lon="4.64724">
        <ele>256</ele>
        <time>2015-07-06T10:28:09Z</time>
      </trkpt>
      <trkpt lat="46.40461" lon="4.64706">
        <ele>254</ele>
        <time>2015-07-06T10:28:34Z</time>
      </trkpt>
      <trkpt lat="46.40456" lon="4.64703">
        <ele>254</ele>
        <time>2015-07-06T10:28:38Z</time>
      </trkpt>
      <trkpt lat="46.40449" lon="4.64696">
        <ele>256</ele>
        <time>2015-07-06T10:28:45Z</time>
      </trkpt>
      <trkpt lat="46.40434" lon="4.64695">
        <ele>256</ele>
        <time>2015-07-06T10:28:52Z</time>
      </trkpt>
      <trkpt lat="46.40429" lon="4.64694">
        <ele>256</ele>
        <time>2015-07-06T10:28:55Z</time>
      </trkpt>
      <trkpt lat="46.40425" lon="4.64698">
        <ele>255</ele>
        <time>2015-07-06T10:29:03Z</time>
      </trkpt>
      <trkpt lat="46.40404" lon="4.647">
        <ele>255</ele>
        <time>2015-07-06T10:29:16Z</time>
      </trkpt>
      <trkpt lat="46.4037" lon="4.64685">
        <ele>253</ele>
        <time>2015-07-06T10:29:50Z</time>
      </trkpt>
      <trkpt lat="46.40362" lon="4.64677">
        <ele>253</ele>
        <time>2015-07-06T10:29:58Z</time>
      </trkpt>
      <trkpt lat="46.4036" lon="4.6467">
        <ele>253</ele>
        <time>2015-07-06T10:30:02Z</time>
      </trkpt>
      <trkpt lat="46.40355" lon="4.64666">
        <ele>253</ele>
        <time>2015-07-06T10:30:10Z</time>
      </trkpt>
      <trkpt lat="46.40353" lon="4.64664">
        <ele>253</ele>
        <time>2015-07-06T10:30:16Z</time>
      </trkpt>
      <trkpt lat="46.40351" lon="4.64659">
        <ele>253</ele>
        <time>2015-07-06T10:30:26Z</time>
      </trkpt>
      <trkpt lat="46.40349" lon="4.64652">
        <ele>252</ele>
        <time>2015-07-06T10:30:30Z</time>
      </trkpt>
      <trkpt lat="46.40341" lon="4.6464">
        <ele>254</ele>
        <time>2015-07-06T10:30:48Z</time>
      </trkpt>
      <trkpt lat="46.40337" lon="4.64638">
        <ele>253</ele>
        <time>2015-07-06T10:31:04Z</time>
      </trkpt>
      <trkpt lat="46.40339" lon="4.64631">
        <ele>254</ele>
        <time>2015-07-06T10:31:11Z</time>
      </trkpt>
      <trkpt lat="46.4034" lon="4.64625">
        <ele>256</ele>
        <time>2015-07-06T10:31:17Z</time>
      </trkpt>
      <trkpt lat="46.40337" lon="4.64619">
        <ele>256</ele>
        <time>2015-07-06T10:31:23Z</time>
      </trkpt>
      <trkpt lat="46.40332" lon="4.64615">
        <ele>256</ele>
        <time>2015-07-06T10:31:27Z</time>
      </trkpt>
      <trkpt lat="46.40316" lon="4.646">
        <ele>253</ele>
        <time>2015-07-06T10:31:40Z</time>
      </trkpt>
      <trkpt lat="46.40305" lon="4.64589">
        <ele>253</ele>
        <time>2015-07-06T10:31:52Z</time>
      </trkpt>
      <trkpt lat="46.40302" lon="4.64584">
        <ele>253</ele>
        <time>2015-07-06T10:31:55Z</time>
      </trkpt>
      <trkpt lat="46.40293" lon="4.64579">
        <ele>254</ele>
        <time>2015-07-06T10:32:05Z</time>
      </trkpt>
      <trkpt lat="46.40287" lon="4.64573">
        <ele>254</ele>
        <time>2015-07-06T10:32:11Z</time>
      </trkpt>
      <trkpt lat="46.40274" lon="4.64567">
        <ele>256</ele>
        <time>2015-07-06T10:32:23Z</time>
      </trkpt>
      <trkpt lat="46.40272" lon="4.6456">
        <ele>256</ele>
        <time>2015-07-06T10:32:27Z</time>
      </trkpt>
      <trkpt lat="46.40267" lon="4.64557">
        <ele>255</ele>
        <time>2015-07-06T10:32:31Z</time>
      </trkpt>
      <trkpt lat="46.40258" lon="4.64549">
        <ele>255</ele>
        <time>2015-07-06T10:32:40Z</time>
      </trkpt>
      <trkpt lat="46.40254" lon="4.64546">
        <ele>256</ele>
        <time>2015-07-06T10:32:44Z</time>
      </trkpt>
      <trkpt lat="46.40248" lon="4.64544">
        <ele>256</ele>
        <time>2015-07-06T10:32:49Z</time>
      </trkpt>
      <trkpt lat="46.40243" lon="4.64541">
        <ele>256</ele>
        <time>2015-07-06T10:32:53Z</time>
      </trkpt>
      <trkpt lat="46.40236" lon="4.64538">
        <ele>255</ele>
        <time>2015-07-06T10:33:01Z</time>
      </trkpt>
      <trkpt lat="46.40231" lon="4.64535">
        <ele>256</ele>
        <time>2015-07-06T10:33:05Z</time>
      </trkpt>
      <trkpt lat="46.40226" lon="4.64524">
        <ele>256</ele>
        <time>2015-07-06T10:33:14Z</time>
      </trkpt>
      <trkpt lat="46.40223" lon="4.64517">
        <ele>256</ele>
        <time>2015-07-06T10:33:20Z</time>
      </trkpt>
      <trkpt lat="46.40217" lon="4.64513">
        <ele>256</ele>
        <time>2015-07-06T10:33:24Z</time>
      </trkpt>
      <trkpt lat="46.40208" lon="4.64507">
        <ele>257</ele>
        <time>2015-07-06T10:33:34Z</time>
      </trkpt>
      <trkpt lat="46.40197" lon="4.64496">
        <ele>258</ele>
        <time>2015-07-06T10:33:41Z</time>
      </trkpt>
      <trkpt lat="46.4019" lon="4.64487">
        <ele>259</ele>
        <time>2015-07-06T10:33:50Z</time>
      </trkpt>
      <trkpt lat="46.40186" lon="4.64483">
        <ele>259</ele>
        <time>2015-07-06T10:33:53Z</time>
      </trkpt>
      <trkpt lat="46.40176" lon="4.64467">
        <ele>258</ele>
        <time>2015-07-06T10:34:04Z</time>
      </trkpt>
      <trkpt lat="46.40172" lon="4.64463">
        <ele>258</ele>
        <time>2015-07-06T10:34:08Z</time>
      </trkpt>
      <trkpt lat="46.40169" lon="4.64458">
        <ele>259</ele>
        <time>2015-07-06T10:34:12Z</time>
      </trkpt>
      <trkpt lat="46.40166" lon="4.64452">
        <ele>259</ele>
        <time>2015-07-06T10:34:16Z</time>
      </trkpt>
      <trkpt lat="46.40147" lon="4.64428">
        <ele>257</ele>
        <time>2015-07-06T10:34:37Z</time>
      </trkpt>
      <trkpt lat="46.40139" lon="4.64413">
        <ele>258</ele>
        <time>2015-07-06T10:34:43Z</time>
      </trkpt>
      <trkpt lat="46.40137" lon="4.64406">
        <ele>257</ele>
        <time>2015-07-06T10:34:47Z</time>
      </trkpt>
      <trkpt lat="46.40133" lon="4.64402">
        <ele>257</ele>
        <time>2015-07-06T10:34:52Z</time>
      </trkpt>
      <trkpt lat="46.4012" lon="4.64383">
        <ele>257</ele>
        <time>2015-07-06T10:35:06Z</time>
      </trkpt>
      <trkpt lat="46.40125" lon="4.64363">
        <ele>257</ele>
        <time>2015-07-06T10:35:12Z</time>
      </trkpt>
      <trkpt lat="46.40123" lon="4.64353">
        <ele>259</ele>
        <time>2015-07-06T10:35:17Z</time>
      </trkpt>
      <trkpt lat="46.4012" lon="4.64347">
        <ele>260</ele>
        <time>2015-07-06T10:35:21Z</time>
      </trkpt>
      <trkpt lat="46.40116" lon="4.64343">
        <ele>260</ele>
        <time>2015-07-06T10:35:25Z</time>
      </trkpt>
      <trkpt lat="46.40113" lon="4.64344">
        <ele>260</ele>
        <time>2015-07-06T10:35:36Z</time>
      </trkpt>
      <trkpt lat="46.40109" lon="4.6435">
        <ele>259</ele>
        <time>2015-07-06T10:35:45Z</time>
      </trkpt>
      <trkpt lat="46.40106" lon="4.6434">
        <ele>259</ele>
        <time>2015-07-06T10:35:53Z</time>
      </trkpt>
      <trkpt lat="46.40104" lon="4.64334">
        <ele>259</ele>
        <time>2015-07-06T10:35:55Z</time>
      </trkpt>
      <trkpt lat="46.40101" lon="4.64326">
        <ele>260</ele>
        <time>2015-07-06T10:35:58Z</time>
      </trkpt>
      <trkpt lat="46.40096" lon="4.64316">
        <ele>265</ele>
        <time>2015-07-06T10:36:11Z</time>
      </trkpt>
      <trkpt lat="46.40094" lon="4.64316">
        <ele>264</ele>
        <time>2015-07-06T10:36:27Z</time>
      </trkpt>
      <trkpt lat="46.4009" lon="4.6431">
        <ele>263</ele>
        <time>2015-07-06T10:36:31Z</time>
      </trkpt>
      <trkpt lat="46.40089" lon="4.64303">
        <ele>263</ele>
        <time>2015-07-06T10:36:34Z</time>
      </trkpt>
      <trkpt lat="46.4009" lon="4.64295">
        <ele>262</ele>
        <time>2015-07-06T10:36:37Z</time>
      </trkpt>
      <trkpt lat="46.40088" lon="4.64288">
        <ele>262</ele>
        <time>2015-07-06T10:36:41Z</time>
      </trkpt>
      <trkpt lat="46.40084" lon="4.64285">
        <ele>262</ele>
        <time>2015-07-06T10:36:45Z</time>
      </trkpt>
      <trkpt lat="46.40082" lon="4.64278">
        <ele>262</ele>
        <time>2015-07-06T10:36:50Z</time>
      </trkpt>
      <trkpt lat="46.40078" lon="4.64274">
        <ele>262</ele>
        <time>2015-07-06T10:36:54Z</time>
      </trkpt>
      <trkpt lat="46.40072" lon="4.64271">
        <ele>262</ele>
        <time>2015-07-06T10:36:58Z</time>
      </trkpt>
      <trkpt lat="46.40066" lon="4.6426">
        <ele>262</ele>
        <time>2015-07-06T10:37:06Z</time>
      </trkpt>
      <trkpt lat="46.40062" lon="4.64256">
        <ele>263</ele>
        <time>2015-07-06T10:37:10Z</time>
      </trkpt>
      <trkpt lat="46.40053" lon="4.64238">
        <ele>263</ele>
        <time>2015-07-06T10:37:23Z</time>
      </trkpt>
      <trkpt lat="46.40049" lon="4.64232">
        <ele>263</ele>
        <time>2015-07-06T10:37:28Z</time>
      </trkpt>
      <trkpt lat="46.4004" lon="4.64226">
        <ele>263</ele>
        <time>2015-07-06T10:37:36Z</time>
      </trkpt>
      <trkpt lat="46.4003" lon="4.6422">
        <ele>263</ele>
        <time>2015-07-06T10:37:44Z</time>
      </trkpt>
      <trkpt lat="46.40025" lon="4.6422">
        <ele>263</ele>
        <time>2015-07-06T10:37:47Z</time>
      </trkpt>
      <trkpt lat="46.4002" lon="4.64216">
        <ele>263</ele>
        <time>2015-07-06T10:37:52Z</time>
      </trkpt>
      <trkpt lat="46.40018" lon="4.64209">
        <ele>263</ele>
        <time>2015-07-06T10:37:56Z</time>
      </trkpt>
      <trkpt lat="46.40016" lon="4.64203">
        <ele>264</ele>
        <time>2015-07-06T10:38:00Z</time>
      </trkpt>
      <trkpt lat="46.40007" lon="4.64196">
        <ele>262</ele>
        <time>2015-07-06T10:38:09Z</time>
      </trkpt>
      <trkpt lat="46.40002" lon="4.64193">
        <ele>262</ele>
        <time>2015-07-06T10:38:14Z</time>
      </trkpt>
      <trkpt lat="46.39996" lon="4.6419">
        <ele>262</ele>
        <time>2015-07-06T10:38:18Z</time>
      </trkpt>
      <trkpt lat="46.3999" lon="4.64188">
        <ele>262</ele>
        <time>2015-07-06T10:38:23Z</time>
      </trkpt>
      <trkpt lat="46.39979" lon="4.64189">
        <ele>263</ele>
        <time>2015-07-06T10:38:30Z</time>
      </trkpt>
      <trkpt lat="46.3997" lon="4.64184">
        <ele>263</ele>
        <time>2015-07-06T10:38:36Z</time>
      </trkpt>
      <trkpt lat="46.3996" lon="4.64183">
        <ele>263</ele>
        <time>2015-07-06T10:38:44Z</time>
      </trkpt>
      <trkpt lat="46.39943" lon="4.64162">
        <ele>262</ele>
        <time>2015-07-06T10:39:03Z</time>
      </trkpt>
      <trkpt lat="46.39928" lon="4.64149">
        <ele>262</ele>
        <time>2015-07-06T10:39:16Z</time>
      </trkpt>
      <trkpt lat="46.3991" lon="4.64137">
        <ele>264</ele>
        <time>2015-07-06T10:39:27Z</time>
      </trkpt>
      <trkpt lat="46.39894" lon="4.64124">
        <ele>264</ele>
        <time>2015-07-06T10:39:36Z</time>
      </trkpt>
      <trkpt lat="46.39892" lon="4.64118">
        <ele>264</ele>
        <time>2015-07-06T10:39:42Z</time>
      </trkpt>
      <trkpt lat="46.39888" lon="4.64086">
        <ele>267</ele>
        <time>2015-07-06T10:40:02Z</time>
      </trkpt>
      <trkpt lat="46.3988" lon="4.64076">
        <ele>267</ele>
        <time>2015-07-06T10:40:10Z</time>
      </trkpt>
      <trkpt lat="46.39867" lon="4.64045">
        <ele>267</ele>
        <time>2015-07-06T10:40:29Z</time>
      </trkpt>
      <trkpt lat="46.39864" lon="4.64038">
        <ele>266</ele>
        <time>2015-07-06T10:40:34Z</time>
      </trkpt>
      <trkpt lat="46.39855" lon="4.6401">
        <ele>265</ele>
        <time>2015-07-06T10:40:50Z</time>
      </trkpt>
      <trkpt lat="46.39847" lon="4.63991">
        <ele>265</ele>
        <time>2015-07-06T10:40:58Z</time>
      </trkpt>
      <trkpt lat="46.39844" lon="4.63986">
        <ele>266</ele>
        <time>2015-07-06T10:41:04Z</time>
      </trkpt>
      <trkpt lat="46.39842" lon="4.63971">
        <ele>267</ele>
        <time>2015-07-06T10:41:16Z</time>
      </trkpt>
      <trkpt lat="46.39841" lon="4.63964">
        <ele>266</ele>
        <time>2015-07-06T10:41:19Z</time>
      </trkpt>
      <trkpt lat="46.39838" lon="4.63953">
        <ele>266</ele>
        <time>2015-07-06T10:41:24Z</time>
      </trkpt>
      <trkpt lat="46.39836" lon="4.63947">
        <ele>265</ele>
        <time>2015-07-06T10:41:30Z</time>
      </trkpt>
      <trkpt lat="46.39832" lon="4.63935">
        <ele>265</ele>
        <time>2015-07-06T10:41:36Z</time>
      </trkpt>
      <trkpt lat="46.39832" lon="4.63928">
        <ele>265</ele>
        <time>2015-07-06T10:41:41Z</time>
      </trkpt>
      <trkpt lat="46.39829" lon="4.63923">
        <ele>263</ele>
        <time>2015-07-06T10:41:46Z</time>
      </trkpt>
      <trkpt lat="46.39824" lon="4.63911">
        <ele>262</ele>
        <time>2015-07-06T10:41:54Z</time>
      </trkpt>
      <trkpt lat="46.39819" lon="4.63905">
        <ele>262</ele>
        <time>2015-07-06T10:41:57Z</time>
      </trkpt>
      <trkpt lat="46.39812" lon="4.63894">
        <ele>262</ele>
        <time>2015-07-06T10:42:09Z</time>
      </trkpt>
      <trkpt lat="46.39807" lon="4.63887">
        <ele>262</ele>
        <time>2015-07-06T10:42:13Z</time>
      </trkpt>
      <trkpt lat="46.39803" lon="4.63873">
        <ele>261</ele>
        <time>2015-07-06T10:42:20Z</time>
      </trkpt>
      <trkpt lat="46.39796" lon="4.63863">
        <ele>262</ele>
        <time>2015-07-06T10:42:26Z</time>
      </trkpt>
      <trkpt lat="46.39794" lon="4.63841">
        <ele>262</ele>
        <time>2015-07-06T10:42:40Z</time>
      </trkpt>
      <trkpt lat="46.39794" lon="4.63834">
        <ele>262</ele>
        <time>2015-07-06T10:42:44Z</time>
      </trkpt>
      <trkpt lat="46.39792" lon="4.63829">
        <ele>261</ele>
        <time>2015-07-06T10:42:48Z</time>
      </trkpt>
      <trkpt lat="46.39788" lon="4.63822">
        <ele>261</ele>
        <time>2015-07-06T10:42:52Z</time>
      </trkpt>
      <trkpt lat="46.39784" lon="4.63809">
        <ele>262</ele>
        <time>2015-07-06T10:43:06Z</time>
      </trkpt>
      <trkpt lat="46.39783" lon="4.63798">
        <ele>261</ele>
        <time>2015-07-06T10:43:18Z</time>
      </trkpt>
      <trkpt lat="46.39779" lon="4.63793">
        <ele>261</ele>
        <time>2015-07-06T10:43:22Z</time>
      </trkpt>
      <trkpt lat="46.39777" lon="4.63785">
        <ele>261</ele>
        <time>2015-07-06T10:43:27Z</time>
      </trkpt>
      <trkpt lat="46.3977" lon="4.63773">
        <ele>262</ele>
        <time>2015-07-06T10:43:35Z</time>
      </trkpt>
      <trkpt lat="46.39767" lon="4.63768">
        <ele>262</ele>
        <time>2015-07-06T10:43:39Z</time>
      </trkpt>
      <trkpt lat="46.39764" lon="4.63763">
        <ele>262</ele>
        <time>2015-07-06T10:43:42Z</time>
      </trkpt>
      <trkpt lat="46.39761" lon="4.63757">
        <ele>262</ele>
        <time>2015-07-06T10:43:45Z</time>
      </trkpt>
      <trkpt lat="46.39759" lon="4.63749">
        <ele>262</ele>
        <time>2015-07-06T10:43:50Z</time>
      </trkpt>
      <trkpt lat="46.39755" lon="4.63745">
        <ele>263</ele>
        <time>2015-07-06T10:43:53Z</time>
      </trkpt>
      <trkpt lat="46.39747" lon="4.63735">
        <ele>263</ele>
        <time>2015-07-06T10:43:59Z</time>
      </trkpt>
      <trkpt lat="46.39745" lon="4.63729">
        <ele>263</ele>
        <time>2015-07-06T10:44:03Z</time>
      </trkpt>
      <trkpt lat="46.39737" lon="4.63721">
        <ele>263</ele>
        <time>2015-07-06T10:44:10Z</time>
      </trkpt>
      <trkpt lat="46.39735" lon="4.63719">
        <ele>262</ele>
        <time>2015-07-06T10:44:11Z</time>
      </trkpt>
      <trkpt lat="46.39733" lon="4.63713">
        <ele>262</ele>
        <time>2015-07-06T10:44:13Z</time>
      </trkpt>
      <trkpt lat="46.39733" lon="4.63706">
        <ele>263</ele>
        <time>2015-07-06T10:44:19Z</time>
      </trkpt>
      <trkpt lat="46.39731" lon="4.63697">
        <ele>263</ele>
        <time>2015-07-06T10:44:23Z</time>
      </trkpt>
      <trkpt lat="46.3971" lon="4.63659">
        <ele>264</ele>
        <time>2015-07-06T10:44:53Z</time>
      </trkpt>
      <trkpt lat="46.39711" lon="4.63648">
        <ele>264</ele>
        <time>2015-07-06T10:44:56Z</time>
      </trkpt>
      <trkpt lat="46.3971" lon="4.63641">
        <ele>264</ele>
        <time>2015-07-06T10:45:01Z</time>
      </trkpt>
      <trkpt lat="46.39707" lon="4.63634">
        <ele>266</ele>
        <time>2015-07-06T10:45:05Z</time>
      </trkpt>
      <trkpt lat="46.39703" lon="4.63629">
        <ele>266</ele>
        <time>2015-07-06T10:45:10Z</time>
      </trkpt>
      <trkpt lat="46.39698" lon="4.63612">
        <ele>266</ele>
        <time>2015-07-06T10:45:18Z</time>
      </trkpt>
      <trkpt lat="46.39695" lon="4.63609">
        <ele>266</ele>
        <time>2015-07-06T10:45:20Z</time>
      </trkpt>
      <trkpt lat="46.39691" lon="4.63587">
        <ele>266</ele>
        <time>2015-07-06T10:45:38Z</time>
      </trkpt>
      <trkpt lat="46.3969" lon="4.63567">
        <ele>265</ele>
        <time>2015-07-06T10:45:48Z</time>
      </trkpt>
      <trkpt lat="46.39691" lon="4.6356">
        <ele>264</ele>
        <time>2015-07-06T10:45:52Z</time>
      </trkpt>
      <trkpt lat="46.39686" lon="4.63538">
        <ele>261</ele>
        <time>2015-07-06T10:46:04Z</time>
      </trkpt>
      <trkpt lat="46.39685" lon="4.63514">
        <ele>252</ele>
        <time>2015-07-06T10:46:22Z</time>
      </trkpt>
      <trkpt lat="46.39669" lon="4.63478">
        <ele>265</ele>
        <time>2015-07-06T10:46:46Z</time>
      </trkpt>
      <trkpt lat="46.39666" lon="4.63471">
        <ele>265</ele>
        <time>2015-07-06T10:46:50Z</time>
      </trkpt>
      <trkpt lat="46.39664" lon="4.63464">
        <ele>265</ele>
        <time>2015-07-06T10:46:54Z</time>
      </trkpt>
      <trkpt lat="46.3964" lon="4.63412">
        <ele>253</ele>
        <time>2015-07-06T10:47:26Z</time>
      </trkpt>
      <trkpt lat="46.39638" lon="4.63406">
        <ele>253</ele>
        <time>2015-07-06T10:47:30Z</time>
      </trkpt>
      <trkpt lat="46.39631" lon="4.6339">
        <ele>253</ele>
        <time>2015-07-06T10:47:41Z</time>
      </trkpt>
      <trkpt lat="46.39629" lon="4.63386">
        <ele>253</ele>
        <time>2015-07-06T10:47:43Z</time>
      </trkpt>
      <trkpt lat="46.39624" lon="4.63364">
        <ele>254</ele>
        <time>2015-07-06T10:47:57Z</time>
      </trkpt>
      <trkpt lat="46.3962" lon="4.63358">
        <ele>255</ele>
        <time>2015-07-06T10:48:02Z</time>
      </trkpt>
      <trkpt lat="46.39618" lon="4.63351">
        <ele>255</ele>
        <time>2015-07-06T10:48:06Z</time>
      </trkpt>
      <trkpt lat="46.39613" lon="4.63334">
        <ele>256</ele>
        <time>2015-07-06T10:48:16Z</time>
      </trkpt>
      <trkpt lat="46.39612" lon="4.63327">
        <ele>256</ele>
        <time>2015-07-06T10:48:21Z</time>
      </trkpt>
      <trkpt lat="46.39612" lon="4.63319">
        <ele>254</ele>
        <time>2015-07-06T10:48:27Z</time>
      </trkpt>
      <trkpt lat="46.39613" lon="4.63305">
        <ele>253</ele>
        <time>2015-07-06T10:48:36Z</time>
      </trkpt>
      <trkpt lat="46.3961" lon="4.633">
        <ele>253</ele>
        <time>2015-07-06T10:48:39Z</time>
      </trkpt>
      <trkpt lat="46.39606" lon="4.63297">
        <ele>253</ele>
        <time>2015-07-06T10:48:41Z</time>
      </trkpt>
      <trkpt lat="46.39604" lon="4.6329">
        <ele>253</ele>
        <time>2015-07-06T10:48:45Z</time>
      </trkpt>
      <trkpt lat="46.39603" lon="4.63284">
        <ele>253</ele>
        <time>2015-07-06T10:48:50Z</time>
      </trkpt>
      <trkpt lat="46.39601" lon="4.63281">
        <ele>253</ele>
        <time>2015-07-06T10:48:52Z</time>
      </trkpt>
      <trkpt lat="46.39598" lon="4.6328">
        <ele>253</ele>
        <time>2015-07-06T10:48:53Z</time>
      </trkpt>
      <trkpt lat="46.39597" lon="4.63277">
        <ele>253</ele>
        <time>2015-07-06T10:48:54Z</time>
      </trkpt>
      <trkpt lat="46.39598" lon="4.63273">
        <ele>253</ele>
        <time>2015-07-06T10:48:55Z</time>
      </trkpt>
      <trkpt lat="46.39602" lon="4.63267">
        <ele>253</ele>
        <time>2015-07-06T10:48:57Z</time>
      </trkpt>
      <trkpt lat="46.39603" lon="4.63253">
        <ele>253</ele>
        <time>2015-07-06T10:49:06Z</time>
      </trkpt>
      <trkpt lat="46.39599" lon="4.63241">
        <ele>253</ele>
        <time>2015-07-06T10:49:15Z</time>
      </trkpt>
      <trkpt lat="46.39597" lon="4.63227">
        <ele>253</ele>
        <time>2015-07-06T10:49:23Z</time>
      </trkpt>
      <trkpt lat="46.39593" lon="4.63214">
        <ele>254</ele>
        <time>2015-07-06T10:49:30Z</time>
      </trkpt>
      <trkpt lat="46.3959" lon="4.63202">
        <ele>256</ele>
        <time>2015-07-06T10:49:37Z</time>
      </trkpt>
      <trkpt lat="46.39586" lon="4.63197">
        <ele>257</ele>
        <time>2015-07-06T10:49:41Z</time>
      </trkpt>
      <trkpt lat="46.39584" lon="4.63194">
        <ele>256</ele>
        <time>2015-07-06T10:49:42Z</time>
      </trkpt>
      <trkpt lat="46.39582" lon="4.63189">
        <ele>257</ele>
        <time>2015-07-06T10:49:46Z</time>
      </trkpt>
      <trkpt lat="46.39579" lon="4.63183">
        <ele>256</ele>
        <time>2015-07-06T10:49:50Z</time>
      </trkpt>
      <trkpt lat="46.3957" lon="4.63159">
        <ele>261</ele>
        <time>2015-07-06T10:50:06Z</time>
      </trkpt>
      <trkpt lat="46.39567" lon="4.63153">
        <ele>260</ele>
        <time>2015-07-06T10:50:09Z</time>
      </trkpt>
      <trkpt lat="46.39564" lon="4.63129">
        <ele>253</ele>
        <time>2015-07-06T10:50:20Z</time>
      </trkpt>
      <trkpt lat="46.39562" lon="4.63119">
        <ele>253</ele>
        <time>2015-07-06T10:50:25Z</time>
      </trkpt>
      <trkpt lat="46.39559" lon="4.63112">
        <ele>253</ele>
        <time>2015-07-06T10:50:31Z</time>
      </trkpt>
      <trkpt lat="46.39558" lon="4.63097">
        <ele>253</ele>
        <time>2015-07-06T10:50:38Z</time>
      </trkpt>
      <trkpt lat="46.39561" lon="4.63082">
        <ele>254</ele>
        <time>2015-07-06T10:50:48Z</time>
      </trkpt>
      <trkpt lat="46.39566" lon="4.63061">
        <ele>256</ele>
        <time>2015-07-06T10:50:59Z</time>
      </trkpt>
      <trkpt lat="46.3957" lon="4.63052">
        <ele>256</ele>
        <time>2015-07-06T10:51:05Z</time>
      </trkpt>
      <trkpt lat="46.39572" lon="4.63041">
        <ele>254</ele>
        <time>2015-07-06T10:51:10Z</time>
      </trkpt>
      <trkpt lat="46.39578" lon="4.63035">
        <ele>254</ele>
        <time>2015-07-06T10:51:15Z</time>
      </trkpt>
      <trkpt lat="46.39581" lon="4.63029">
        <ele>252</ele>
        <time>2015-07-06T10:51:19Z</time>
      </trkpt>
      <trkpt lat="46.39584" lon="4.63023">
        <ele>251</ele>
        <time>2015-07-06T10:51:23Z</time>
      </trkpt>
      <trkpt lat="46.39587" lon="4.63016">
        <ele>252</ele>
        <time>2015-07-06T10:51:27Z</time>
      </trkpt>
      <trkpt lat="46.3959" lon="4.63011">
        <ele>252</ele>
        <time>2015-07-06T10:51:31Z</time>
      </trkpt>
      <trkpt lat="46.39594" lon="4.63007">
        <ele>252</ele>
        <time>2015-07-06T10:51:36Z</time>
      </trkpt>
      <trkpt lat="46.39598" lon="4.63">
        <ele>252</ele>
        <time>2015-07-06T10:51:38Z</time>
      </trkpt>
      <trkpt lat="46.3961" lon="4.62986">
        <ele>251</ele>
        <time>2015-07-06T10:51:53Z</time>
      </trkpt>
      <trkpt lat="46.39613" lon="4.6298">
        <ele>251</ele>
        <time>2015-07-06T10:51:57Z</time>
      </trkpt>
      <trkpt lat="46.39618" lon="4.62976">
        <ele>251</ele>
        <time>2015-07-06T10:52:01Z</time>
      </trkpt>
      <trkpt lat="46.39621" lon="4.62972">
        <ele>251</ele>
        <time>2015-07-06T10:52:05Z</time>
      </trkpt>
      <trkpt lat="46.39625" lon="4.62967">
        <ele>250</ele>
        <time>2015-07-06T10:52:10Z</time>
      </trkpt>
      <trkpt lat="46.39629" lon="4.62963">
        <ele>250</ele>
        <time>2015-07-06T10:52:14Z</time>
      </trkpt>
      <trkpt lat="46.39636" lon="4.62953">
        <ele>247</ele>
        <time>2015-07-06T10:52:22Z</time>
      </trkpt>
      <trkpt lat="46.39638" lon="4.62945">
        <ele>246</ele>
        <time>2015-07-06T10:52:27Z</time>
      </trkpt>
      <trkpt lat="46.39641" lon="4.62921">
        <ele>247</ele>
        <time>2015-07-06T10:52:42Z</time>
      </trkpt>
      <trkpt lat="46.39646" lon="4.62919">
        <ele>247</ele>
        <time>2015-07-06T10:52:45Z</time>
      </trkpt>
      <trkpt lat="46.3965" lon="4.62915">
        <ele>246</ele>
        <time>2015-07-06T10:52:49Z</time>
      </trkpt>
      <trkpt lat="46.39653" lon="4.62909">
        <ele>246</ele>
        <time>2015-07-06T10:52:54Z</time>
      </trkpt>
      <trkpt lat="46.39653" lon="4.62902">
        <ele>245</ele>
        <time>2015-07-06T10:52:58Z</time>
      </trkpt>
      <trkpt lat="46.39653" lon="4.62895">
        <ele>245</ele>
        <time>2015-07-06T10:53:03Z</time>
      </trkpt>
      <trkpt lat="46.39655" lon="4.62887">
        <ele>246</ele>
        <time>2015-07-06T10:53:07Z</time>
      </trkpt>
      <trkpt lat="46.39657" lon="4.62883">
        <ele>246</ele>
        <time>2015-07-06T10:53:09Z</time>
      </trkpt>
      <trkpt lat="46.39662" lon="4.62866">
        <ele>245</ele>
        <time>2015-07-06T10:53:19Z</time>
      </trkpt>
      <trkpt lat="46.39666" lon="4.6286">
        <ele>244</ele>
        <time>2015-07-06T10:53:24Z</time>
      </trkpt>
      <trkpt lat="46.39668" lon="4.62847">
        <ele>244</ele>
        <time>2015-07-06T10:53:31Z</time>
      </trkpt>
      <trkpt lat="46.39669" lon="4.62832">
        <ele>245</ele>
        <time>2015-07-06T10:53:40Z</time>
      </trkpt>
      <trkpt lat="46.39666" lon="4.62826">
        <ele>245</ele>
        <time>2015-07-06T10:53:42Z</time>
      </trkpt>
      <trkpt lat="46.39664" lon="4.62824">
        <ele>246</ele>
        <time>2015-07-06T10:53:43Z</time>
      </trkpt>
      <trkpt lat="46.39664" lon="4.62816">
        <ele>247</ele>
        <time>2015-07-06T10:53:50Z</time>
      </trkpt>
      <trkpt lat="46.39664" lon="4.62799">
        <ele>247</ele>
        <time>2015-07-06T10:53:59Z</time>
      </trkpt>
      <trkpt lat="46.39663" lon="4.62791">
        <ele>248</ele>
        <time>2015-07-06T10:54:03Z</time>
      </trkpt>
      <trkpt lat="46.39663" lon="4.62781">
        <ele>248</ele>
        <time>2015-07-06T10:54:08Z</time>
      </trkpt>
      <trkpt lat="46.39661" lon="4.62774">
        <ele>248</ele>
        <time>2015-07-06T10:54:12Z</time>
      </trkpt>
      <trkpt lat="46.39662" lon="4.62768">
        <ele>248</ele>
        <time>2015-07-06T10:54:14Z</time>
      </trkpt>
      <trkpt lat="46.3966" lon="4.62753">
        <ele>248</ele>
        <time>2015-07-06T10:54:23Z</time>
      </trkpt>
      <trkpt lat="46.39661" lon="4.62746">
        <ele>248</ele>
        <time>2015-07-06T10:54:27Z</time>
      </trkpt>
      <trkpt lat="46.39662" lon="4.62738">
        <ele>248</ele>
        <time>2015-07-06T10:54:31Z</time>
      </trkpt>
      <trkpt lat="46.39663" lon="4.62731">
        <ele>248</ele>
        <time>2015-07-06T10:54:35Z</time>
      </trkpt>
      <trkpt lat="46.3967" lon="4.62721">
        <ele>249</ele>
        <time>2015-07-06T10:54:46Z</time>
      </trkpt>
      <trkpt lat="46.39675" lon="4.62719">
        <ele>249</ele>
        <time>2015-07-06T10:54:52Z</time>
      </trkpt>
      <trkpt lat="46.39681" lon="4.62718">
        <ele>249</ele>
        <time>2015-07-06T10:54:56Z</time>
      </trkpt>
      <trkpt lat="46.39695" lon="4.62719">
        <ele>248</ele>
        <time>2015-07-06T10:55:08Z</time>
      </trkpt>
      <trkpt lat="46.39702" lon="4.62711">
        <ele>248</ele>
        <time>2015-07-06T10:55:13Z</time>
      </trkpt>
      <trkpt lat="46.39707" lon="4.6271">
        <ele>247</ele>
        <time>2015-07-06T10:55:17Z</time>
      </trkpt>
      <trkpt lat="46.39709" lon="4.62705">
        <ele>247</ele>
        <time>2015-07-06T10:55:20Z</time>
      </trkpt>
      <trkpt lat="46.39713" lon="4.627">
        <ele>246</ele>
        <time>2015-07-06T10:55:24Z</time>
      </trkpt>
      <trkpt lat="46.39717" lon="4.62696">
        <ele>246</ele>
        <time>2015-07-06T10:55:27Z</time>
      </trkpt>
      <trkpt lat="46.39722" lon="4.62694">
        <ele>246</ele>
        <time>2015-07-06T10:55:30Z</time>
      </trkpt>
      <trkpt lat="46.39727" lon="4.62695">
        <ele>246</ele>
        <time>2015-07-06T10:55:35Z</time>
      </trkpt>
      <trkpt lat="46.39731" lon="4.62693">
        <ele>246</ele>
        <time>2015-07-06T10:55:38Z</time>
      </trkpt>
      <trkpt lat="46.39735" lon="4.62688">
        <ele>247</ele>
        <time>2015-07-06T10:55:44Z</time>
      </trkpt>
      <trkpt lat="46.39743" lon="4.62692">
        <ele>249</ele>
        <time>2015-07-06T10:55:53Z</time>
      </trkpt>
      <trkpt lat="46.39744" lon="4.62685">
        <ele>250</ele>
        <time>2015-07-06T10:55:56Z</time>
      </trkpt>
      <trkpt lat="46.39742" lon="4.62668">
        <ele>252</ele>
        <time>2015-07-06T10:56:02Z</time>
      </trkpt>
      <trkpt lat="46.39728" lon="4.62649">
        <ele>256</ele>
        <time>2015-07-06T10:56:14Z</time>
      </trkpt>
      <trkpt lat="46.39722" lon="4.62638">
        <ele>256</ele>
        <time>2015-07-06T10:56:20Z</time>
      </trkpt>
      <trkpt lat="46.3972" lon="4.62631">
        <ele>256</ele>
        <time>2015-07-06T10:56:26Z</time>
      </trkpt>
      <trkpt lat="46.39719" lon="4.62627">
        <ele>256</ele>
        <time>2015-07-06T10:56:28Z</time>
      </trkpt>
      <trkpt lat="46.39717" lon="4.6262">
        <ele>256</ele>
        <time>2015-07-06T10:56:31Z</time>
      </trkpt>
      <trkpt lat="46.39713" lon="4.62615">
        <ele>254</ele>
        <time>2015-07-06T10:56:36Z</time>
      </trkpt>
      <trkpt lat="46.39704" lon="4.62604">
        <ele>254</ele>
        <time>2015-07-06T10:56:42Z</time>
      </trkpt>
      <trkpt lat="46.397" lon="4.62598">
        <ele>254</ele>
        <time>2015-07-06T10:56:45Z</time>
      </trkpt>
      <trkpt lat="46.39696" lon="4.62592">
        <ele>255</ele>
        <time>2015-07-06T10:56:53Z</time>
      </trkpt>
      <trkpt lat="46.39692" lon="4.62584">
        <ele>255</ele>
        <time>2015-07-06T10:56:57Z</time>
      </trkpt>
      <trkpt lat="46.39689" lon="4.62576">
        <ele>256</ele>
        <time>2015-07-06T10:57:00Z</time>
      </trkpt>
      <trkpt lat="46.39684" lon="4.62563">
        <ele>255</ele>
        <time>2015-07-06T10:57:08Z</time>
      </trkpt>
      <trkpt lat="46.39681" lon="4.62551">
        <ele>255</ele>
        <time>2015-07-06T10:57:17Z</time>
      </trkpt>
      <trkpt lat="46.3968" lon="4.62545">
        <ele>255</ele>
        <time>2015-07-06T10:57:19Z</time>
      </trkpt>
      <trkpt lat="46.39678" lon="4.62536">
        <ele>255</ele>
        <time>2015-07-06T10:57:23Z</time>
      </trkpt>
      <trkpt lat="46.39675" lon="4.62528">
        <ele>255</ele>
        <time>2015-07-06T10:57:32Z</time>
      </trkpt>
      <trkpt lat="46.3966" lon="4.625">
        <ele>255</ele>
        <time>2015-07-06T10:57:51Z</time>
      </trkpt>
      <trkpt lat="46.39646" lon="4.62466">
        <ele>257</ele>
        <time>2015-07-06T10:58:11Z</time>
      </trkpt>
      <trkpt lat="46.39643" lon="4.62461">
        <ele>257</ele>
        <time>2015-07-06T10:58:16Z</time>
      </trkpt>
      <trkpt lat="46.39636" lon="4.62449">
        <ele>256</ele>
        <time>2015-07-06T10:58:23Z</time>
      </trkpt>
      <trkpt lat="46.39623" lon="4.62422">
        <ele>258</ele>
        <time>2015-07-06T10:58:41Z</time>
      </trkpt>
      <trkpt lat="46.39612" lon="4.62406">
        <ele>258</ele>
        <time>2015-07-06T10:58:51Z</time>
      </trkpt>
      <trkpt lat="46.39603" lon="4.62388">
        <ele>257</ele>
        <time>2015-07-06T10:59:03Z</time>
      </trkpt>
      <trkpt lat="46.39596" lon="4.62375">
        <ele>256</ele>
        <time>2015-07-06T10:59:11Z</time>
      </trkpt>
      <trkpt lat="46.39593" lon="4.62368">
        <ele>258</ele>
        <time>2015-07-06T10:59:15Z</time>
      </trkpt>
      <trkpt lat="46.39587" lon="4.62357">
        <ele>256</ele>
        <time>2015-07-06T10:59:23Z</time>
      </trkpt>
      <trkpt lat="46.39568" lon="4.62323">
        <ele>255</ele>
        <time>2015-07-06T10:59:53Z</time>
      </trkpt>
      <trkpt lat="46.39568" lon="4.62323">
        <ele>256</ele>
        <time>2015-07-06T11:00:45Z</time>
      </trkpt>
      <trkpt lat="46.39563" lon="4.62324">
        <ele>256</ele>
        <time>2015-07-06T11:00:50Z</time>
      </trkpt>
      <trkpt lat="46.39558" lon="4.62326">
        <ele>255</ele>
        <time>2015-07-06T11:00:54Z</time>
      </trkpt>
      <trkpt lat="46.39554" lon="4.62329">
        <ele>256</ele>
        <time>2015-07-06T11:00:58Z</time>
      </trkpt>
      <trkpt lat="46.39548" lon="4.6233">
        <ele>254</ele>
        <time>2015-07-06T11:01:03Z</time>
      </trkpt>
      <trkpt lat="46.39543" lon="4.62331">
        <ele>255</ele>
        <time>2015-07-06T11:01:08Z</time>
      </trkpt>
      <trkpt lat="46.39508" lon="4.62336">
        <ele>259</ele>
        <time>2015-07-06T11:01:37Z</time>
      </trkpt>
      <trkpt lat="46.39502" lon="4.6234">
        <ele>258</ele>
        <time>2015-07-06T11:01:40Z</time>
      </trkpt>
      <trkpt lat="46.39497" lon="4.62345">
        <ele>259</ele>
        <time>2015-07-06T11:01:43Z</time>
      </trkpt>
      <trkpt lat="46.39495" lon="4.6235">
        <ele>259</ele>
        <time>2015-07-06T11:01:45Z</time>
      </trkpt>
      <trkpt lat="46.39487" lon="4.6235">
        <ele>259</ele>
        <time>2015-07-06T11:01:55Z</time>
      </trkpt>
      <trkpt lat="46.39482" lon="4.62351">
        <ele>259</ele>
        <time>2015-07-06T11:01:59Z</time>
      </trkpt>
      <trkpt lat="46.39472" lon="4.6235">
        <ele>259</ele>
        <time>2015-07-06T11:02:09Z</time>
      </trkpt>
      <trkpt lat="46.39454" lon="4.62364">
        <ele>258</ele>
        <time>2015-07-06T11:02:24Z</time>
      </trkpt>
      <trkpt lat="46.3945" lon="4.62366">
        <ele>258</ele>
        <time>2015-07-06T11:02:30Z</time>
      </trkpt>
      <trkpt lat="46.39445" lon="4.6237">
        <ele>257</ele>
        <time>2015-07-06T11:02:34Z</time>
      </trkpt>
      <trkpt lat="46.39446" lon="4.62368">
        <ele>256</ele>
        <time>2015-07-06T11:04:22Z</time>
      </trkpt>
      <trkpt lat="46.3945" lon="4.62365">
        <ele>256</ele>
        <time>2015-07-06T11:04:28Z</time>
      </trkpt>
      <trkpt lat="46.39455" lon="4.62368">
        <ele>257</ele>
        <time>2015-07-06T11:04:31Z</time>
      </trkpt>
      <trkpt lat="46.3946" lon="4.62368">
        <ele>257</ele>
        <time>2015-07-06T11:04:37Z</time>
      </trkpt>
      <trkpt lat="46.39462" lon="4.62362">
        <ele>256</ele>
        <time>2015-07-06T11:04:40Z</time>
      </trkpt>
      <trkpt lat="46.39466" lon="4.62355">
        <ele>257</ele>
        <time>2015-07-06T11:04:43Z</time>
      </trkpt>
      <trkpt lat="46.39475" lon="4.62347">
        <ele>259</ele>
        <time>2015-07-06T11:04:52Z</time>
      </trkpt>
      <trkpt lat="46.39479" lon="4.62344">
        <ele>259</ele>
        <time>2015-07-06T11:04:56Z</time>
      </trkpt>
      <trkpt lat="46.39489" lon="4.6234">
        <ele>256</ele>
        <time>2015-07-06T11:05:06Z</time>
      </trkpt>
      <trkpt lat="46.39494" lon="4.62338">
        <ele>256</ele>
        <time>2015-07-06T11:05:11Z</time>
      </trkpt>
      <trkpt lat="46.39505" lon="4.62334">
        <ele>257</ele>
        <time>2015-07-06T11:05:22Z</time>
      </trkpt>
      <trkpt lat="46.39508" lon="4.62334">
        <ele>257</ele>
        <time>2015-07-06T11:05:34Z</time>
      </trkpt>
      <trkpt lat="46.39512" lon="4.62331">
        <ele>258</ele>
        <time>2015-07-06T11:05:39Z</time>
      </trkpt>
      <trkpt lat="46.39548" lon="4.62327">
        <ele>259</ele>
        <time>2015-07-06T11:06:11Z</time>
      </trkpt>
      <trkpt lat="46.39553" lon="4.62326">
        <ele>260</ele>
        <time>2015-07-06T11:06:15Z</time>
      </trkpt>
      <trkpt lat="46.39563" lon="4.62321">
        <ele>259</ele>
        <time>2015-07-06T11:06:24Z</time>
      </trkpt>
      <trkpt lat="46.39565" lon="4.62315">
        <ele>260</ele>
        <time>2015-07-06T11:06:28Z</time>
      </trkpt>
      <trkpt lat="46.39565" lon="4.62301">
        <ele>259</ele>
        <time>2015-07-06T11:06:36Z</time>
      </trkpt>
      <trkpt lat="46.39563" lon="4.62287">
        <ele>260</ele>
        <time>2015-07-06T11:06:45Z</time>
      </trkpt>
      <trkpt lat="46.39562" lon="4.62279">
        <ele>260</ele>
        <time>2015-07-06T11:06:50Z</time>
      </trkpt>
      <trkpt lat="46.39564" lon="4.62272">
        <ele>261</ele>
        <time>2015-07-06T11:06:55Z</time>
      </trkpt>
      <trkpt lat="46.39561" lon="4.62265">
        <ele>264</ele>
        <time>2015-07-06T11:07:00Z</time>
      </trkpt>
      <trkpt lat="46.39558" lon="4.62259">
        <ele>264</ele>
        <time>2015-07-06T11:07:03Z</time>
      </trkpt>
      <trkpt lat="46.39556" lon="4.62252">
        <ele>262</ele>
        <time>2015-07-06T11:07:06Z</time>
      </trkpt>
      <trkpt lat="46.39557" lon="4.62248">
        <ele>262</ele>
        <time>2015-07-06T11:07:07Z</time>
      </trkpt>
      <trkpt lat="46.39555" lon="4.62241">
        <ele>262</ele>
        <time>2015-07-06T11:07:13Z</time>
      </trkpt>
      <trkpt lat="46.39555" lon="4.62234">
        <ele>262</ele>
        <time>2015-07-06T11:07:17Z</time>
      </trkpt>
      <trkpt lat="46.39549" lon="4.62194">
        <ele>264</ele>
        <time>2015-07-06T11:07:39Z</time>
      </trkpt>
      <trkpt lat="46.39549" lon="4.62187">
        <ele>264</ele>
        <time>2015-07-06T11:07:42Z</time>
      </trkpt>
      <trkpt lat="46.39551" lon="4.6218">
        <ele>264</ele>
        <time>2015-07-06T11:07:46Z</time>
      </trkpt>
      <trkpt lat="46.39555" lon="4.62161">
        <ele>265</ele>
        <time>2015-07-06T11:07:57Z</time>
      </trkpt>
      <trkpt lat="46.39557" lon="4.6215">
        <ele>265</ele>
        <time>2015-07-06T11:08:05Z</time>
      </trkpt>
      <trkpt lat="46.39557" lon="4.62145">
        <ele>265</ele>
        <time>2015-07-06T11:08:07Z</time>
      </trkpt>
      <trkpt lat="46.39559" lon="4.62136">
        <ele>266</ele>
        <time>2015-07-06T11:08:13Z</time>
      </trkpt>
      <trkpt lat="46.39558" lon="4.62122">
        <ele>268</ele>
        <time>2015-07-06T11:08:20Z</time>
      </trkpt>
      <trkpt lat="46.39555" lon="4.62116">
        <ele>268</ele>
        <time>2015-07-06T11:08:24Z</time>
      </trkpt>
      <trkpt lat="46.39554" lon="4.6211">
        <ele>268</ele>
        <time>2015-07-06T11:08:32Z</time>
      </trkpt>
      <trkpt lat="46.39533" lon="4.62062">
        <ele>270</ele>
        <time>2015-07-06T11:09:04Z</time>
      </trkpt>
      <trkpt lat="46.39528" lon="4.62054">
        <ele>269</ele>
        <time>2015-07-06T11:09:09Z</time>
      </trkpt>
      <trkpt lat="46.39525" lon="4.62048">
        <ele>269</ele>
        <time>2015-07-06T11:09:16Z</time>
      </trkpt>
      <trkpt lat="46.3952" lon="4.62044">
        <ele>269</ele>
        <time>2015-07-06T11:09:21Z</time>
      </trkpt>
      <trkpt lat="46.39482" lon="4.62016">
        <ele>263</ele>
        <time>2015-07-06T11:09:52Z</time>
      </trkpt>
      <trkpt lat="46.39478" lon="4.62011">
        <ele>263</ele>
        <time>2015-07-06T11:09:56Z</time>
      </trkpt>
      <trkpt lat="46.39474" lon="4.61999">
        <ele>264</ele>
        <time>2015-07-06T11:10:05Z</time>
      </trkpt>
      <trkpt lat="46.39467" lon="4.61992">
        <ele>264</ele>
        <time>2015-07-06T11:10:12Z</time>
      </trkpt>
      <trkpt lat="46.39461" lon="4.61979">
        <ele>264</ele>
        <time>2015-07-06T11:10:20Z</time>
      </trkpt>
      <trkpt lat="46.39456" lon="4.61975">
        <ele>264</ele>
        <time>2015-07-06T11:10:25Z</time>
      </trkpt>
      <trkpt lat="46.39444" lon="4.61961">
        <ele>264</ele>
        <time>2015-07-06T11:10:37Z</time>
      </trkpt>
      <trkpt lat="46.39439" lon="4.61957">
        <ele>263</ele>
        <time>2015-07-06T11:10:41Z</time>
      </trkpt>
      <trkpt lat="46.39437" lon="4.61955">
        <ele>263</ele>
        <time>2015-07-06T11:10:43Z</time>
      </trkpt>
      <trkpt lat="46.39434" lon="4.61952">
        <ele>263</ele>
        <time>2015-07-06T11:10:45Z</time>
      </trkpt>
      <trkpt lat="46.39422" lon="4.61947">
        <ele>264</ele>
        <time>2015-07-06T11:10:55Z</time>
      </trkpt>
      <trkpt lat="46.39399" lon="4.61926">
        <ele>265</ele>
        <time>2015-07-06T11:11:17Z</time>
      </trkpt>
      <trkpt lat="46.3937" lon="4.61899">
        <ele>263</ele>
        <time>2015-07-06T11:11:44Z</time>
      </trkpt>
      <trkpt lat="46.39365" lon="4.61894">
        <ele>263</ele>
        <time>2015-07-06T11:11:48Z</time>
      </trkpt>
      <trkpt lat="46.39349" lon="4.61886">
        <ele>264</ele>
        <time>2015-07-06T11:12:02Z</time>
      </trkpt>
      <trkpt lat="46.39332" lon="4.61879">
        <ele>267</ele>
        <time>2015-07-06T11:12:15Z</time>
      </trkpt>
      <trkpt lat="46.39328" lon="4.61875">
        <ele>268</ele>
        <time>2015-07-06T11:12:22Z</time>
      </trkpt>
      <trkpt lat="46.39323" lon="4.61874">
        <ele>268</ele>
        <time>2015-07-06T11:12:27Z</time>
      </trkpt>
      <trkpt lat="46.39318" lon="4.61871">
        <ele>268</ele>
        <time>2015-07-06T11:12:32Z</time>
      </trkpt>
      <trkpt lat="46.39305" lon="4.61864">
        <ele>267</ele>
        <time>2015-07-06T11:12:44Z</time>
      </trkpt>
      <trkpt lat="46.39293" lon="4.6186">
        <ele>267</ele>
        <time>2015-07-06T11:12:50Z</time>
      </trkpt>
      <trkpt lat="46.39286" lon="4.61857">
        <ele>267</ele>
        <time>2015-07-06T11:12:58Z</time>
      </trkpt>
      <trkpt lat="46.39277" lon="4.61851">
        <ele>264</ele>
        <time>2015-07-06T11:13:05Z</time>
      </trkpt>
      <trkpt lat="46.39272" lon="4.61849">
        <ele>264</ele>
        <time>2015-07-06T11:13:09Z</time>
      </trkpt>
      <trkpt lat="46.39267" lon="4.61846">
        <ele>264</ele>
        <time>2015-07-06T11:13:14Z</time>
      </trkpt>
      <trkpt lat="46.39262" lon="4.61843">
        <ele>263</ele>
        <time>2015-07-06T11:13:19Z</time>
      </trkpt>
      <trkpt lat="46.39258" lon="4.6184">
        <ele>263</ele>
        <time>2015-07-06T11:13:23Z</time>
      </trkpt>
      <trkpt lat="46.39253" lon="4.61836">
        <ele>262</ele>
        <time>2015-07-06T11:13:27Z</time>
      </trkpt>
      <trkpt lat="46.39249" lon="4.61834">
        <ele>262</ele>
        <time>2015-07-06T11:13:31Z</time>
      </trkpt>
      <trkpt lat="46.39234" lon="4.61825">
        <ele>262</ele>
        <time>2015-07-06T11:13:44Z</time>
      </trkpt>
      <trkpt lat="46.39229" lon="4.61822">
        <ele>262</ele>
        <time>2015-07-06T11:13:48Z</time>
      </trkpt>
      <trkpt lat="46.39224" lon="4.61817">
        <ele>262</ele>
        <time>2015-07-06T11:13:52Z</time>
      </trkpt>
      <trkpt lat="46.39185" lon="4.61803">
        <ele>262</ele>
        <time>2015-07-06T11:14:25Z</time>
      </trkpt>
      <trkpt lat="46.39145" lon="4.61812">
        <ele>262</ele>
        <time>2015-07-06T11:14:58Z</time>
      </trkpt>
      <trkpt lat="46.39117" lon="4.61796">
        <ele>262</ele>
        <time>2015-07-06T11:15:22Z</time>
      </trkpt>
      <trkpt lat="46.39113" lon="4.61791">
        <ele>261</ele>
        <time>2015-07-06T11:15:26Z</time>
      </trkpt>
      <trkpt lat="46.39098" lon="4.61779">
        <ele>263</ele>
        <time>2015-07-06T11:15:43Z</time>
      </trkpt>
      <trkpt lat="46.39093" lon="4.61771">
        <ele>262</ele>
        <time>2015-07-06T11:15:48Z</time>
      </trkpt>
      <trkpt lat="46.39088" lon="4.61768">
        <ele>261</ele>
        <time>2015-07-06T11:15:53Z</time>
      </trkpt>
      <trkpt lat="46.39084" lon="4.61764">
        <ele>262</ele>
        <time>2015-07-06T11:15:58Z</time>
      </trkpt>
      <trkpt lat="46.39076" lon="4.61755">
        <ele>261</ele>
        <time>2015-07-06T11:16:06Z</time>
      </trkpt>
      <trkpt lat="46.39075" lon="4.61751">
        <ele>261</ele>
        <time>2015-07-06T11:16:12Z</time>
      </trkpt>
      <trkpt lat="46.39073" lon="4.61749">
        <ele>260</ele>
        <time>2015-07-06T11:16:18Z</time>
      </trkpt>
      <trkpt lat="46.3907" lon="4.61744">
        <ele>260</ele>
        <time>2015-07-06T11:16:21Z</time>
      </trkpt>
      <trkpt lat="46.39068" lon="4.61738">
        <ele>261</ele>
        <time>2015-07-06T11:16:26Z</time>
      </trkpt>
      <trkpt lat="46.39061" lon="4.61728">
        <ele>261</ele>
        <time>2015-07-06T11:16:33Z</time>
      </trkpt>
      <trkpt lat="46.39058" lon="4.61722">
        <ele>261</ele>
        <time>2015-07-06T11:16:37Z</time>
      </trkpt>
      <trkpt lat="46.39053" lon="4.6171">
        <ele>261</ele>
        <time>2015-07-06T11:16:46Z</time>
      </trkpt>
      <trkpt lat="46.3904" lon="4.61695">
        <ele>262</ele>
        <time>2015-07-06T11:17:00Z</time>
      </trkpt>
      <trkpt lat="46.39036" lon="4.61689">
        <ele>262</ele>
        <time>2015-07-06T11:17:04Z</time>
      </trkpt>
      <trkpt lat="46.39025" lon="4.61681">
        <ele>263</ele>
        <time>2015-07-06T11:17:13Z</time>
      </trkpt>
      <trkpt lat="46.39022" lon="4.61676">
        <ele>263</ele>
        <time>2015-07-06T11:17:18Z</time>
      </trkpt>
      <trkpt lat="46.39016" lon="4.61673">
        <ele>263</ele>
        <time>2015-07-06T11:17:24Z</time>
      </trkpt>
      <trkpt lat="46.39011" lon="4.6166">
        <ele>262</ele>
        <time>2015-07-06T11:17:32Z</time>
      </trkpt>
      <trkpt lat="46.39007" lon="4.61657">
        <ele>263</ele>
        <time>2015-07-06T11:17:37Z</time>
      </trkpt>
      <trkpt lat="46.38984" lon="4.61644">
        <ele>266</ele>
        <time>2015-07-06T11:18:00Z</time>
      </trkpt>
      <trkpt lat="46.38979" lon="4.61647">
        <ele>267</ele>
        <time>2015-07-06T11:18:07Z</time>
      </trkpt>
      <trkpt lat="46.38977" lon="4.61652">
        <ele>267</ele>
        <time>2015-07-06T11:18:10Z</time>
      </trkpt>
      <trkpt lat="46.38965" lon="4.61664">
        <ele>267</ele>
        <time>2015-07-06T11:18:22Z</time>
      </trkpt>
      <trkpt lat="46.38956" lon="4.6167">
        <ele>263</ele>
        <time>2015-07-06T11:18:32Z</time>
      </trkpt>
      <trkpt lat="46.38938" lon="4.61697">
        <ele>261</ele>
        <time>2015-07-06T11:18:53Z</time>
      </trkpt>
      <trkpt lat="46.38927" lon="4.6171">
        <ele>263</ele>
        <time>2015-07-06T11:19:08Z</time>
      </trkpt>
      <trkpt lat="46.3892" lon="4.61718">
        <ele>263</ele>
        <time>2015-07-06T11:19:13Z</time>
      </trkpt>
      <trkpt lat="46.38916" lon="4.61723">
        <ele>262</ele>
        <time>2015-07-06T11:19:17Z</time>
      </trkpt>
      <trkpt lat="46.38908" lon="4.61738">
        <ele>261</ele>
        <time>2015-07-06T11:19:28Z</time>
      </trkpt>
      <trkpt lat="46.38901" lon="4.61749">
        <ele>261</ele>
        <time>2015-07-06T11:19:36Z</time>
      </trkpt>
      <trkpt lat="46.38897" lon="4.61755">
        <ele>261</ele>
        <time>2015-07-06T11:19:40Z</time>
      </trkpt>
      <trkpt lat="46.38886" lon="4.61773">
        <ele>263</ele>
        <time>2015-07-06T11:19:51Z</time>
      </trkpt>
      <trkpt lat="46.38878" lon="4.61783">
        <ele>263</ele>
        <time>2015-07-06T11:19:58Z</time>
      </trkpt>
      <trkpt lat="46.38874" lon="4.6179">
        <ele>263</ele>
        <time>2015-07-06T11:20:04Z</time>
      </trkpt>
      <trkpt lat="46.38869" lon="4.61802">
        <ele>263</ele>
        <time>2015-07-06T11:20:13Z</time>
      </trkpt>
      <trkpt lat="46.38867" lon="4.61809">
        <ele>263</ele>
        <time>2015-07-06T11:20:16Z</time>
      </trkpt>
      <trkpt lat="46.3886" lon="4.61826">
        <ele>264</ele>
        <time>2015-07-06T11:20:29Z</time>
      </trkpt>
      <trkpt lat="46.38855" lon="4.61831">
        <ele>264</ele>
        <time>2015-07-06T11:20:35Z</time>
      </trkpt>
      <trkpt lat="46.38849" lon="4.61841">
        <ele>264</ele>
        <time>2015-07-06T11:20:41Z</time>
      </trkpt>
      <trkpt lat="46.38845" lon="4.61856">
        <ele>265</ele>
        <time>2015-07-06T11:20:50Z</time>
      </trkpt>
      <trkpt lat="46.38836" lon="4.61883">
        <ele>266</ele>
        <time>2015-07-06T11:21:10Z</time>
      </trkpt>
      <trkpt lat="46.38841" lon="4.61886">
        <ele>267</ele>
        <time>2015-07-06T11:21:20Z</time>
      </trkpt>
      <trkpt lat="46.38847" lon="4.61906">
        <ele>265</ele>
        <time>2015-07-06T11:21:51Z</time>
      </trkpt>
      <trkpt lat="46.38846" lon="4.61901">
        <ele>267</ele>
        <time>2015-07-06T11:22:53Z</time>
      </trkpt>
      <trkpt lat="46.38849" lon="4.61893">
        <ele>266</ele>
        <time>2015-07-06T11:23:03Z</time>
      </trkpt>
      <trkpt lat="46.38844" lon="4.61893">
        <ele>264</ele>
        <time>2015-07-06T11:23:07Z</time>
      </trkpt>
      <trkpt lat="46.38834" lon="4.61894">
        <ele>265</ele>
        <time>2015-07-06T11:23:16Z</time>
      </trkpt>
      <trkpt lat="46.38833" lon="4.61901">
        <ele>265</ele>
        <time>2015-07-06T11:23:23Z</time>
      </trkpt>
      <trkpt lat="46.38834" lon="4.61908">
        <ele>264</ele>
        <time>2015-07-06T11:23:27Z</time>
      </trkpt>
      <trkpt lat="46.38836" lon="4.61923">
        <ele>265</ele>
        <time>2015-07-06T11:23:35Z</time>
      </trkpt>
      <trkpt lat="46.38841" lon="4.61926">
        <ele>264</ele>
        <time>2015-07-06T11:23:40Z</time>
      </trkpt>
      <trkpt lat="46.38845" lon="4.61928">
        <ele>264</ele>
        <time>2015-07-06T11:23:46Z</time>
      </trkpt>
      <trkpt lat="46.38845" lon="4.61933">
        <ele>264</ele>
        <time>2015-07-06T11:23:54Z</time>
      </trkpt>
      <trkpt lat="46.38843" lon="4.6194">
        <ele>264</ele>
        <time>2015-07-06T11:24:00Z</time>
      </trkpt>
      <trkpt lat="46.38846" lon="4.61947">
        <ele>264</ele>
        <time>2015-07-06T11:24:04Z</time>
      </trkpt>
      <trkpt lat="46.38845" lon="4.61952">
        <ele>264</ele>
        <time>2015-07-06T11:24:06Z</time>
      </trkpt>
      <trkpt lat="46.38843" lon="4.61958">
        <ele>264</ele>
        <time>2015-07-06T11:24:11Z</time>
      </trkpt>
      <trkpt lat="46.38845" lon="4.61977">
        <ele>266</ele>
        <time>2015-07-06T11:24:25Z</time>
      </trkpt>
      <trkpt lat="46.38842" lon="4.61978">
        <ele>268</ele>
        <time>2015-07-06T11:24:54Z</time>
      </trkpt>
      <trkpt lat="46.38839" lon="4.61979">
        <ele>271</ele>
        <time>2015-07-06T11:28:03Z</time>
      </trkpt>
      <trkpt lat="46.38836" lon="4.61976">
        <ele>271</ele>
        <time>2015-07-06T11:28:18Z</time>
      </trkpt>
      <trkpt lat="46.38839" lon="4.61971">
        <ele>273</ele>
        <time>2015-07-06T11:28:39Z</time>
      </trkpt>
      <trkpt lat="46.38845" lon="4.6198">
        <ele>273</ele>
        <time>2015-07-06T11:39:11Z</time>
      </trkpt>
      <trkpt lat="46.38842" lon="4.61988">
        <ele>273</ele>
        <time>2015-07-06T11:40:42Z</time>
      </trkpt>
      <trkpt lat="46.38842" lon="4.61987">
        <ele>275</ele>
        <time>2015-07-06T11:48:09Z</time>
      </trkpt>
      <trkpt lat="46.38838" lon="4.61979">
        <ele>280</ele>
        <time>2015-07-06T12:01:42Z</time>
      </trkpt>
      <trkpt lat="46.3883" lon="4.61974">
        <ele>283</ele>
        <time>2015-07-06T12:01:51Z</time>
      </trkpt>
      <trkpt lat="46.3882" lon="4.61967">
        <ele>283</ele>
        <time>2015-07-06T12:01:59Z</time>
      </trkpt>
      <trkpt lat="46.38818" lon="4.61961">
        <ele>284</ele>
        <time>2015-07-06T12:02:03Z</time>
      </trkpt>
      <trkpt lat="46.38798" lon="4.61948">
        <ele>284</ele>
        <time>2015-07-06T12:02:17Z</time>
      </trkpt>
      <trkpt lat="46.38793" lon="4.61949">
        <ele>284</ele>
        <time>2015-07-06T12:02:21Z</time>
      </trkpt>
      <trkpt lat="46.38784" lon="4.61955">
        <ele>284</ele>
        <time>2015-07-06T12:02:31Z</time>
      </trkpt>
      <trkpt lat="46.38781" lon="4.61962">
        <ele>284</ele>
        <time>2015-07-06T12:02:34Z</time>
      </trkpt>
      <trkpt lat="46.38784" lon="4.61976">
        <ele>284</ele>
        <time>2015-07-06T12:02:40Z</time>
      </trkpt>
      <trkpt lat="46.38776" lon="4.61985">
        <ele>284</ele>
        <time>2015-07-06T12:02:48Z</time>
      </trkpt>
      <trkpt lat="46.38755" lon="4.62032">
        <ele>287</ele>
        <time>2015-07-06T12:03:20Z</time>
      </trkpt>
      <trkpt lat="46.38738" lon="4.62071">
        <ele>290</ele>
        <time>2015-07-06T12:03:52Z</time>
      </trkpt>
      <trkpt lat="46.38735" lon="4.62075">
        <ele>290</ele>
        <time>2015-07-06T12:03:54Z</time>
      </trkpt>
      <trkpt lat="46.38727" lon="4.62079">
        <ele>291</ele>
        <time>2015-07-06T12:03:58Z</time>
      </trkpt>
      <trkpt lat="46.38707" lon="4.62062">
        <ele>293</ele>
        <time>2015-07-06T12:04:18Z</time>
      </trkpt>
      <trkpt lat="46.38705" lon="4.62055">
        <ele>293</ele>
        <time>2015-07-06T12:04:22Z</time>
      </trkpt>
      <trkpt lat="46.38694" lon="4.62043">
        <ele>289</ele>
        <time>2015-07-06T12:04:39Z</time>
      </trkpt>
      <trkpt lat="46.38689" lon="4.6204">
        <ele>287</ele>
        <time>2015-07-06T12:04:44Z</time>
      </trkpt>
      <trkpt lat="46.38684" lon="4.6204">
        <ele>287</ele>
        <time>2015-07-06T12:04:48Z</time>
      </trkpt>
      <trkpt lat="46.38679" lon="4.62043">
        <ele>287</ele>
        <time>2015-07-06T12:04:54Z</time>
      </trkpt>
      <trkpt lat="46.38668" lon="4.62057">
        <ele>287</ele>
        <time>2015-07-06T12:05:08Z</time>
      </trkpt>
      <trkpt lat="46.38655" lon="4.62068">
        <ele>284</ele>
        <time>2015-07-06T12:05:22Z</time>
      </trkpt>
      <trkpt lat="46.38654" lon="4.62075">
        <ele>284</ele>
        <time>2015-07-06T12:05:25Z</time>
      </trkpt>
      <trkpt lat="46.38653" lon="4.6209">
        <ele>284</ele>
        <time>2015-07-06T12:05:34Z</time>
      </trkpt>
      <trkpt lat="46.3866" lon="4.62102">
        <ele>284</ele>
        <time>2015-07-06T12:05:42Z</time>
      </trkpt>
      <trkpt lat="46.38666" lon="4.62107">
        <ele>284</ele>
        <time>2015-07-06T12:05:51Z</time>
      </trkpt>
      <trkpt lat="46.38672" lon="4.62113">
        <ele>283</ele>
        <time>2015-07-06T12:06:00Z</time>
      </trkpt>
      <trkpt lat="46.38688" lon="4.6214">
        <ele>283</ele>
        <time>2015-07-06T12:06:19Z</time>
      </trkpt>
      <trkpt lat="46.38709" lon="4.62153">
        <ele>283</ele>
        <time>2015-07-06T12:06:39Z</time>
      </trkpt>
      <trkpt lat="46.38741" lon="4.62192">
        <ele>284</ele>
        <time>2015-07-06T12:07:10Z</time>
      </trkpt>
      <trkpt lat="46.38754" lon="4.62206">
        <ele>285</ele>
        <time>2015-07-06T12:07:24Z</time>
      </trkpt>
      <trkpt lat="46.38755" lon="4.6221">
        <ele>285</ele>
        <time>2015-07-06T12:07:26Z</time>
      </trkpt>
      <trkpt lat="46.38754" lon="4.62238">
        <ele>286</ele>
        <time>2015-07-06T12:07:38Z</time>
      </trkpt>
      <trkpt lat="46.38757" lon="4.62246">
        <ele>286</ele>
        <time>2015-07-06T12:07:41Z</time>
      </trkpt>
      <trkpt lat="46.38762" lon="4.62252">
        <ele>286</ele>
        <time>2015-07-06T12:07:46Z</time>
      </trkpt>
      <trkpt lat="46.38767" lon="4.62253">
        <ele>286</ele>
        <time>2015-07-06T12:07:50Z</time>
      </trkpt>
      <trkpt lat="46.38777" lon="4.6227">
        <ele>287</ele>
        <time>2015-07-06T12:08:01Z</time>
      </trkpt>
      <trkpt lat="46.38776" lon="4.62277">
        <ele>288</ele>
        <time>2015-07-06T12:08:07Z</time>
      </trkpt>
      <trkpt lat="46.38778" lon="4.62283">
        <ele>288</ele>
        <time>2015-07-06T12:08:12Z</time>
      </trkpt>
      <trkpt lat="46.3879" lon="4.62294">
        <ele>288</ele>
        <time>2015-07-06T12:08:21Z</time>
      </trkpt>
      <trkpt lat="46.38794" lon="4.62315">
        <ele>289</ele>
        <time>2015-07-06T12:08:33Z</time>
      </trkpt>
      <trkpt lat="46.38798" lon="4.62318">
        <ele>289</ele>
        <time>2015-07-06T12:08:37Z</time>
      </trkpt>
      <trkpt lat="46.388" lon="4.62326">
        <ele>289</ele>
        <time>2015-07-06T12:08:42Z</time>
      </trkpt>
      <trkpt lat="46.38808" lon="4.62338">
        <ele>290</ele>
        <time>2015-07-06T12:08:50Z</time>
      </trkpt>
      <trkpt lat="46.38808" lon="4.62346">
        <ele>290</ele>
        <time>2015-07-06T12:08:58Z</time>
      </trkpt>
      <trkpt lat="46.38813" lon="4.62346">
        <ele>290</ele>
        <time>2015-07-06T12:09:06Z</time>
      </trkpt>
      <trkpt lat="46.38813" lon="4.62351">
        <ele>290</ele>
        <time>2015-07-06T12:09:08Z</time>
      </trkpt>
      <trkpt lat="46.38819" lon="4.62375">
        <ele>291</ele>
        <time>2015-07-06T12:09:18Z</time>
      </trkpt>
      <trkpt lat="46.38841" lon="4.62413">
        <ele>292</ele>
        <time>2015-07-06T12:09:44Z</time>
      </trkpt>
      <trkpt lat="46.38848" lon="4.62419">
        <ele>293</ele>
        <time>2015-07-06T12:09:50Z</time>
      </trkpt>
      <trkpt lat="46.38853" lon="4.62419">
        <ele>293</ele>
        <time>2015-07-06T12:09:54Z</time>
      </trkpt>
      <trkpt lat="46.38857" lon="4.62422">
        <ele>293</ele>
        <time>2015-07-06T12:09:58Z</time>
      </trkpt>
      <trkpt lat="46.38859" lon="4.62428">
        <ele>293</ele>
        <time>2015-07-06T12:10:02Z</time>
      </trkpt>
      <trkpt lat="46.38861" lon="4.62435">
        <ele>294</ele>
        <time>2015-07-06T12:10:07Z</time>
      </trkpt>
      <trkpt lat="46.38859" lon="4.62441">
        <ele>294</ele>
        <time>2015-07-06T12:10:10Z</time>
      </trkpt>
      <trkpt lat="46.38867" lon="4.62463">
        <ele>294</ele>
        <time>2015-07-06T12:10:21Z</time>
      </trkpt>
      <trkpt lat="46.38866" lon="4.62471">
        <ele>294</ele>
        <time>2015-07-06T12:10:24Z</time>
      </trkpt>
      <trkpt lat="46.38869" lon="4.62481">
        <ele>295</ele>
        <time>2015-07-06T12:10:29Z</time>
      </trkpt>
      <trkpt lat="46.38869" lon="4.62488">
        <ele>295</ele>
        <time>2015-07-06T12:10:33Z</time>
      </trkpt>
      <trkpt lat="46.38877" lon="4.62497">
        <ele>295</ele>
        <time>2015-07-06T12:10:40Z</time>
      </trkpt>
      <trkpt lat="46.38885" lon="4.625">
        <ele>296</ele>
        <time>2015-07-06T12:10:45Z</time>
      </trkpt>
      <trkpt lat="46.38895" lon="4.62513">
        <ele>296</ele>
        <time>2015-07-06T12:10:58Z</time>
      </trkpt>
      <trkpt lat="46.38897" lon="4.62522">
        <ele>297</ele>
        <time>2015-07-06T12:11:02Z</time>
      </trkpt>
      <trkpt lat="46.38898" lon="4.62538">
        <ele>297</ele>
        <time>2015-07-06T12:11:08Z</time>
      </trkpt>
      <trkpt lat="46.3891" lon="4.62572">
        <ele>298</ele>
        <time>2015-07-06T12:11:27Z</time>
      </trkpt>
      <trkpt lat="46.38907" lon="4.62577">
        <ele>298</ele>
        <time>2015-07-06T12:11:32Z</time>
      </trkpt>
      <trkpt lat="46.38905" lon="4.62602">
        <ele>300</ele>
        <time>2015-07-06T12:11:58Z</time>
      </trkpt>
      <trkpt lat="46.38907" lon="4.62612">
        <ele>300</ele>
        <time>2015-07-06T12:12:02Z</time>
      </trkpt>
      <trkpt lat="46.38904" lon="4.62617">
        <ele>301</ele>
        <time>2015-07-06T12:12:06Z</time>
      </trkpt>
      <trkpt lat="46.38902" lon="4.6263">
        <ele>302</ele>
        <time>2015-07-06T12:12:16Z</time>
      </trkpt>
      <trkpt lat="46.38896" lon="4.62637">
        <ele>302</ele>
        <time>2015-07-06T12:12:19Z</time>
      </trkpt>
      <trkpt lat="46.38896" lon="4.62647">
        <ele>304</ele>
        <time>2015-07-06T12:12:27Z</time>
      </trkpt>
      <trkpt lat="46.38893" lon="4.62653">
        <ele>304</ele>
        <time>2015-07-06T12:12:32Z</time>
      </trkpt>
      <trkpt lat="46.3889" lon="4.62667">
        <ele>306</ele>
        <time>2015-07-06T12:12:40Z</time>
      </trkpt>
      <trkpt lat="46.38885" lon="4.6267">
        <ele>306</ele>
        <time>2015-07-06T12:12:45Z</time>
      </trkpt>
      <trkpt lat="46.38878" lon="4.62671">
        <ele>306</ele>
        <time>2015-07-06T12:12:48Z</time>
      </trkpt>
      <trkpt lat="46.38876" lon="4.62677">
        <ele>307</ele>
        <time>2015-07-06T12:12:53Z</time>
      </trkpt>
      <trkpt lat="46.38878" lon="4.62685">
        <ele>308</ele>
        <time>2015-07-06T12:12:57Z</time>
      </trkpt>
      <trkpt lat="46.38886" lon="4.62695">
        <ele>309</ele>
        <time>2015-07-06T12:13:04Z</time>
      </trkpt>
      <trkpt lat="46.3889" lon="4.62708">
        <ele>310</ele>
        <time>2015-07-06T12:13:10Z</time>
      </trkpt>
      <trkpt lat="46.38889" lon="4.62723">
        <ele>310</ele>
        <time>2015-07-06T12:13:18Z</time>
      </trkpt>
      <trkpt lat="46.38886" lon="4.6273">
        <ele>310</ele>
        <time>2015-07-06T12:13:25Z</time>
      </trkpt>
      <trkpt lat="46.38886" lon="4.62737">
        <ele>311</ele>
        <time>2015-07-06T12:13:30Z</time>
      </trkpt>
      <trkpt lat="46.38889" lon="4.62745">
        <ele>311</ele>
        <time>2015-07-06T12:13:35Z</time>
      </trkpt>
      <trkpt lat="46.38889" lon="4.62752">
        <ele>311</ele>
        <time>2015-07-06T12:13:39Z</time>
      </trkpt>
      <trkpt lat="46.38882" lon="4.6279">
        <ele>312</ele>
        <time>2015-07-06T12:14:00Z</time>
      </trkpt>
      <trkpt lat="46.38883" lon="4.62828">
        <ele>310</ele>
        <time>2015-07-06T12:14:20Z</time>
      </trkpt>
      <trkpt lat="46.38875" lon="4.62838">
        <ele>310</ele>
        <time>2015-07-06T12:14:31Z</time>
      </trkpt>
      <trkpt lat="46.38865" lon="4.62868">
        <ele>312</ele>
        <time>2015-07-06T12:14:50Z</time>
      </trkpt>
      <trkpt lat="46.38861" lon="4.62873">
        <ele>312</ele>
        <time>2015-07-06T12:14:55Z</time>
      </trkpt>
      <trkpt lat="46.38857" lon="4.62878">
        <ele>312</ele>
        <time>2015-07-06T12:14:58Z</time>
      </trkpt>
      <trkpt lat="46.38853" lon="4.62881">
        <ele>313</ele>
        <time>2015-07-06T12:15:04Z</time>
      </trkpt>
      <trkpt lat="46.38839" lon="4.62875">
        <ele>314</ele>
        <time>2015-07-06T12:15:19Z</time>
      </trkpt>
      <trkpt lat="46.38834" lon="4.62871">
        <ele>315</ele>
        <time>2015-07-06T12:15:26Z</time>
      </trkpt>
      <trkpt lat="46.38833" lon="4.62865">
        <ele>316</ele>
        <time>2015-07-06T12:15:34Z</time>
      </trkpt>
      <trkpt lat="46.38829" lon="4.62869">
        <ele>316</ele>
        <time>2015-07-06T12:15:40Z</time>
      </trkpt>
      <trkpt lat="46.38825" lon="4.62864">
        <ele>317</ele>
        <time>2015-07-06T12:15:48Z</time>
      </trkpt>
      <trkpt lat="46.38819" lon="4.62852">
        <ele>318</ele>
        <time>2015-07-06T12:15:56Z</time>
      </trkpt>
      <trkpt lat="46.38815" lon="4.62851">
        <ele>318</ele>
        <time>2015-07-06T12:15:59Z</time>
      </trkpt>
      <trkpt lat="46.38806" lon="4.62846">
        <ele>320</ele>
        <time>2015-07-06T12:16:11Z</time>
      </trkpt>
      <trkpt lat="46.38801" lon="4.62833">
        <ele>321</ele>
        <time>2015-07-06T12:16:21Z</time>
      </trkpt>
      <trkpt lat="46.38791" lon="4.62835">
        <ele>322</ele>
        <time>2015-07-06T12:16:26Z</time>
      </trkpt>
      <trkpt lat="46.38784" lon="4.62832">
        <ele>323</ele>
        <time>2015-07-06T12:16:30Z</time>
      </trkpt>
      <trkpt lat="46.38772" lon="4.62801">
        <ele>326</ele>
        <time>2015-07-06T12:16:55Z</time>
      </trkpt>
      <trkpt lat="46.38763" lon="4.62793">
        <ele>327</ele>
        <time>2015-07-06T12:17:02Z</time>
      </trkpt>
      <trkpt lat="46.38761" lon="4.6279">
        <ele>327</ele>
        <time>2015-07-06T12:17:15Z</time>
      </trkpt>
      <trkpt lat="46.3876" lon="4.62786">
        <ele>328</ele>
        <time>2015-07-06T12:17:26Z</time>
      </trkpt>
      <trkpt lat="46.38758" lon="4.62785">
        <ele>328</ele>
        <time>2015-07-06T12:17:27Z</time>
      </trkpt>
      <trkpt lat="46.38753" lon="4.62784">
        <ele>328</ele>
        <time>2015-07-06T12:17:33Z</time>
      </trkpt>
      <trkpt lat="46.38753" lon="4.62776">
        <ele>328</ele>
        <time>2015-07-06T12:17:41Z</time>
      </trkpt>
      <trkpt lat="46.3875" lon="4.62769">
        <ele>328</ele>
        <time>2015-07-06T12:17:46Z</time>
      </trkpt>
      <trkpt lat="46.3875" lon="4.62747">
        <ele>330</ele>
        <time>2015-07-06T12:18:01Z</time>
      </trkpt>
      <trkpt lat="46.38748" lon="4.62741">
        <ele>331</ele>
        <time>2015-07-06T12:18:07Z</time>
      </trkpt>
      <trkpt lat="46.38722" lon="4.62703">
        <ele>337</ele>
        <time>2015-07-06T12:18:44Z</time>
      </trkpt>
      <trkpt lat="46.38686" lon="4.62684">
        <ele>341</ele>
        <time>2015-07-06T12:19:16Z</time>
      </trkpt>
      <trkpt lat="46.38677" lon="4.62676">
        <ele>342</ele>
        <time>2015-07-06T12:19:28Z</time>
      </trkpt>
      <trkpt lat="46.38642" lon="4.62648">
        <ele>345</ele>
        <time>2015-07-06T12:20:04Z</time>
      </trkpt>
      <trkpt lat="46.38634" lon="4.62641">
        <ele>346</ele>
        <time>2015-07-06T12:20:12Z</time>
      </trkpt>
      <trkpt lat="46.38626" lon="4.6263">
        <ele>347</ele>
        <time>2015-07-06T12:20:21Z</time>
      </trkpt>
      <trkpt lat="46.38622" lon="4.62618">
        <ele>347</ele>
        <time>2015-07-06T12:20:30Z</time>
      </trkpt>
      <trkpt lat="46.38579" lon="4.62586">
        <ele>350</ele>
        <time>2015-07-06T12:21:10Z</time>
      </trkpt>
      <trkpt lat="46.38573" lon="4.62577">
        <ele>351</ele>
        <time>2015-07-06T12:21:20Z</time>
      </trkpt>
      <trkpt lat="46.38539" lon="4.62551">
        <ele>353</ele>
        <time>2015-07-06T12:21:55Z</time>
      </trkpt>
      <trkpt lat="46.38491" lon="4.62554">
        <ele>355</ele>
        <time>2015-07-06T12:22:33Z</time>
      </trkpt>
      <trkpt lat="46.38453" lon="4.62551">
        <ele>357</ele>
        <time>2015-07-06T12:23:04Z</time>
      </trkpt>
      <trkpt lat="46.3843" lon="4.62547">
        <ele>358</ele>
        <time>2015-07-06T12:23:38Z</time>
      </trkpt>
      <trkpt lat="46.38421" lon="4.62549">
        <ele>359</ele>
        <time>2015-07-06T12:23:53Z</time>
      </trkpt>
      <trkpt lat="46.38386" lon="4.62565">
        <ele>360</ele>
        <time>2015-07-06T12:24:27Z</time>
      </trkpt>
      <trkpt lat="46.38346" lon="4.62557">
        <ele>361</ele>
        <time>2015-07-06T12:24:57Z</time>
      </trkpt>
      <trkpt lat="46.38342" lon="4.62553">
        <ele>361</ele>
        <time>2015-07-06T12:25:01Z</time>
      </trkpt>
      <trkpt lat="46.38337" lon="4.62556">
        <ele>361</ele>
        <time>2015-07-06T12:25:04Z</time>
      </trkpt>
      <trkpt lat="46.38333" lon="4.6256">
        <ele>362</ele>
        <time>2015-07-06T12:25:09Z</time>
      </trkpt>
      <trkpt lat="46.38328" lon="4.62557">
        <ele>362</ele>
        <time>2015-07-06T12:25:12Z</time>
      </trkpt>
      <trkpt lat="46.38323" lon="4.6255">
        <ele>362</ele>
        <time>2015-07-06T12:25:19Z</time>
      </trkpt>
      <trkpt lat="46.38318" lon="4.62551">
        <ele>363</ele>
        <time>2015-07-06T12:25:23Z</time>
      </trkpt>
      <trkpt lat="46.38312" lon="4.62551">
        <ele>364</ele>
        <time>2015-07-06T12:25:30Z</time>
      </trkpt>
      <trkpt lat="46.38275" lon="4.62546">
        <ele>365</ele>
        <time>2015-07-06T12:26:07Z</time>
      </trkpt>
      <trkpt lat="46.38254" lon="4.62539">
        <ele>366</ele>
        <time>2015-07-06T12:26:22Z</time>
      </trkpt>
      <trkpt lat="46.38247" lon="4.6253">
        <ele>368</ele>
        <time>2015-07-06T12:26:33Z</time>
      </trkpt>
      <trkpt lat="46.38239" lon="4.62525">
        <ele>368</ele>
        <time>2015-07-06T12:26:40Z</time>
      </trkpt>
      <trkpt lat="46.38213" lon="4.62513">
        <ele>372</ele>
        <time>2015-07-06T12:27:14Z</time>
      </trkpt>
      <trkpt lat="46.38204" lon="4.62508">
        <ele>372</ele>
        <time>2015-07-06T12:27:21Z</time>
      </trkpt>
      <trkpt lat="46.38195" lon="4.62503">
        <ele>374</ele>
        <time>2015-07-06T12:27:28Z</time>
      </trkpt>
      <trkpt lat="46.38151" lon="4.62472">
        <ele>378</ele>
        <time>2015-07-06T12:28:05Z</time>
      </trkpt>
      <trkpt lat="46.38131" lon="4.62447">
        <ele>380</ele>
        <time>2015-07-06T12:28:38Z</time>
      </trkpt>
      <trkpt lat="46.38127" lon="4.62445">
        <ele>381</ele>
        <time>2015-07-06T12:28:42Z</time>
      </trkpt>
      <trkpt lat="46.38104" lon="4.62433">
        <ele>382</ele>
        <time>2015-07-06T12:29:09Z</time>
      </trkpt>
      <trkpt lat="46.38099" lon="4.6243">
        <ele>383</ele>
        <time>2015-07-06T12:29:17Z</time>
      </trkpt>
      <trkpt lat="46.38094" lon="4.62429">
        <ele>383</ele>
        <time>2015-07-06T12:29:21Z</time>
      </trkpt>
      <trkpt lat="46.38089" lon="4.62431">
        <ele>384</ele>
        <time>2015-07-06T12:29:25Z</time>
      </trkpt>
      <trkpt lat="46.38067" lon="4.62417">
        <ele>387</ele>
        <time>2015-07-06T12:29:51Z</time>
      </trkpt>
      <trkpt lat="46.38062" lon="4.62411">
        <ele>389</ele>
        <time>2015-07-06T12:30:07Z</time>
      </trkpt>
      <trkpt lat="46.38053" lon="4.62405">
        <ele>389</ele>
        <time>2015-07-06T12:30:28Z</time>
      </trkpt>
      <trkpt lat="46.38016" lon="4.62392">
        <ele>393</ele>
        <time>2015-07-06T12:30:58Z</time>
      </trkpt>
      <trkpt lat="46.38007" lon="4.62391">
        <ele>395</ele>
        <time>2015-07-06T12:31:11Z</time>
      </trkpt>
      <trkpt lat="46.37997" lon="4.62387">
        <ele>395</ele>
        <time>2015-07-06T12:31:18Z</time>
      </trkpt>
      <trkpt lat="46.37979" lon="4.62378">
        <ele>397</ele>
        <time>2015-07-06T12:31:39Z</time>
      </trkpt>
      <trkpt lat="46.37973" lon="4.62368">
        <ele>399</ele>
        <time>2015-07-06T12:31:53Z</time>
      </trkpt>
      <trkpt lat="46.37964" lon="4.62362">
        <ele>399</ele>
        <time>2015-07-06T12:32:02Z</time>
      </trkpt>
      <trkpt lat="46.37959" lon="4.62351">
        <ele>400</ele>
        <time>2015-07-06T12:32:14Z</time>
      </trkpt>
      <trkpt lat="46.3795" lon="4.62343">
        <ele>400</ele>
        <time>2015-07-06T12:32:21Z</time>
      </trkpt>
      <trkpt lat="46.37918" lon="4.6231">
        <ele>404</ele>
        <time>2015-07-06T12:32:55Z</time>
      </trkpt>
      <trkpt lat="46.37912" lon="4.623">
        <ele>405</ele>
        <time>2015-07-06T12:33:06Z</time>
      </trkpt>
      <trkpt lat="46.37911" lon="4.62293">
        <ele>406</ele>
        <time>2015-07-06T12:33:19Z</time>
      </trkpt>
      <trkpt lat="46.37915" lon="4.62251">
        <ele>407</ele>
        <time>2015-07-06T12:33:48Z</time>
      </trkpt>
      <trkpt lat="46.37934" lon="4.62215">
        <ele>407</ele>
        <time>2015-07-06T12:34:15Z</time>
      </trkpt>
      <trkpt lat="46.37938" lon="4.62211">
        <ele>407</ele>
        <time>2015-07-06T12:34:20Z</time>
      </trkpt>
      <trkpt lat="46.3794" lon="4.62203">
        <ele>407</ele>
        <time>2015-07-06T12:34:24Z</time>
      </trkpt>
      <trkpt lat="46.37941" lon="4.62188">
        <ele>407</ele>
        <time>2015-07-06T12:34:32Z</time>
      </trkpt>
      <trkpt lat="46.37939" lon="4.62182">
        <ele>407</ele>
        <time>2015-07-06T12:34:39Z</time>
      </trkpt>
      <trkpt lat="46.37944" lon="4.62169">
        <ele>407</ele>
        <time>2015-07-06T12:34:49Z</time>
      </trkpt>
      <trkpt lat="46.37942" lon="4.62157">
        <ele>407</ele>
        <time>2015-07-06T12:34:54Z</time>
      </trkpt>
      <trkpt lat="46.37945" lon="4.6215">
        <ele>407</ele>
        <time>2015-07-06T12:34:58Z</time>
      </trkpt>
      <trkpt lat="46.37945" lon="4.62144">
        <ele>407</ele>
        <time>2015-07-06T12:35:02Z</time>
      </trkpt>
      <trkpt lat="46.37934" lon="4.62112">
        <ele>407</ele>
        <time>2015-07-06T12:35:23Z</time>
      </trkpt>
      <trkpt lat="46.3791" lon="4.62084">
        <ele>407</ele>
        <time>2015-07-06T12:35:43Z</time>
      </trkpt>
      <trkpt lat="46.37892" lon="4.62035">
        <ele>408</ele>
        <time>2015-07-06T12:36:20Z</time>
      </trkpt>
      <trkpt lat="46.37888" lon="4.62023">
        <ele>408</ele>
        <time>2015-07-06T12:36:29Z</time>
      </trkpt>
      <trkpt lat="46.37887" lon="4.62008">
        <ele>408</ele>
        <time>2015-07-06T12:36:39Z</time>
      </trkpt>
      <trkpt lat="46.37877" lon="4.62001">
        <ele>409</ele>
        <time>2015-07-06T12:36:44Z</time>
      </trkpt>
      <trkpt lat="46.37859" lon="4.61979">
        <ele>410</ele>
        <time>2015-07-06T12:36:59Z</time>
      </trkpt>
      <trkpt lat="46.3784" lon="4.61948">
        <ele>413</ele>
        <time>2015-07-06T12:37:34Z</time>
      </trkpt>
      <trkpt lat="46.37827" lon="4.6193">
        <ele>415</ele>
        <time>2015-07-06T12:37:53Z</time>
      </trkpt>
      <trkpt lat="46.3781" lon="4.61879">
        <ele>419</ele>
        <time>2015-07-06T12:38:32Z</time>
      </trkpt>
      <trkpt lat="46.37788" lon="4.61834">
        <ele>422</ele>
        <time>2015-07-06T12:39:09Z</time>
      </trkpt>
      <trkpt lat="46.37776" lon="4.61806">
        <ele>424</ele>
        <time>2015-07-06T12:39:47Z</time>
      </trkpt>
      <trkpt lat="46.37761" lon="4.61755">
        <ele>428</ele>
        <time>2015-07-06T12:40:25Z</time>
      </trkpt>
      <trkpt lat="46.37747" lon="4.61719">
        <ele>432</ele>
        <time>2015-07-06T12:40:57Z</time>
      </trkpt>
      <trkpt lat="46.37721" lon="4.61677">
        <ele>433</ele>
        <time>2015-07-06T12:41:27Z</time>
      </trkpt>
      <trkpt lat="46.37684" lon="4.61633">
        <ele>436</ele>
        <time>2015-07-06T12:42:03Z</time>
      </trkpt>
      <trkpt lat="46.3764" lon="4.61611">
        <ele>436</ele>
        <time>2015-07-06T12:42:43Z</time>
      </trkpt>
      <trkpt lat="46.3763" lon="4.6161">
        <ele>437</ele>
        <time>2015-07-06T12:42:55Z</time>
      </trkpt>
      <trkpt lat="46.37601" lon="4.61616">
        <ele>439</ele>
        <time>2015-07-06T12:43:28Z</time>
      </trkpt>
      <trkpt lat="46.37554" lon="4.61606">
        <ele>440</ele>
        <time>2015-07-06T12:44:01Z</time>
      </trkpt>
      <trkpt lat="46.37521" lon="4.61606">
        <ele>441</ele>
        <time>2015-07-06T12:44:34Z</time>
      </trkpt>
      <trkpt lat="46.37512" lon="4.61605">
        <ele>442</ele>
        <time>2015-07-06T12:44:43Z</time>
      </trkpt>
      <trkpt lat="46.37503" lon="4.6161">
        <ele>442</ele>
        <time>2015-07-06T12:44:51Z</time>
      </trkpt>
      <trkpt lat="46.37494" lon="4.61608">
        <ele>442</ele>
        <time>2015-07-06T12:44:58Z</time>
      </trkpt>
      <trkpt lat="46.37485" lon="4.61603">
        <ele>442</ele>
        <time>2015-07-06T12:45:07Z</time>
      </trkpt>
      <trkpt lat="46.37476" lon="4.61606">
        <ele>442</ele>
        <time>2015-07-06T12:45:15Z</time>
      </trkpt>
      <trkpt lat="46.37449" lon="4.61598">
        <ele>442</ele>
        <time>2015-07-06T12:45:50Z</time>
      </trkpt>
      <trkpt lat="46.37422" lon="4.61592">
        <ele>442</ele>
        <time>2015-07-06T12:46:21Z</time>
      </trkpt>
      <trkpt lat="46.37382" lon="4.61586">
        <ele>443</ele>
        <time>2015-07-06T12:47:02Z</time>
      </trkpt>
      <trkpt lat="46.37345" lon="4.61576">
        <ele>443</ele>
        <time>2015-07-06T12:47:37Z</time>
      </trkpt>
      <trkpt lat="46.37298" lon="4.61574">
        <ele>443</ele>
        <time>2015-07-06T12:48:19Z</time>
      </trkpt>
      <trkpt lat="46.37259" lon="4.61561">
        <ele>444</ele>
        <time>2015-07-06T12:48:53Z</time>
      </trkpt>
      <trkpt lat="46.37224" lon="4.6154">
        <ele>446</ele>
        <time>2015-07-06T12:49:26Z</time>
      </trkpt>
      <trkpt lat="46.37186" lon="4.61537">
        <ele>450</ele>
        <time>2015-07-06T12:50:03Z</time>
      </trkpt>
      <trkpt lat="46.37176" lon="4.61533">
        <ele>451</ele>
        <time>2015-07-06T12:50:34Z</time>
      </trkpt>
      <trkpt lat="46.37179" lon="4.61533">
        <ele>451</ele>
        <time>2015-07-06T12:51:24Z</time>
      </trkpt>
      <trkpt lat="46.3718" lon="4.61539">
        <ele>451</ele>
        <time>2015-07-06T12:53:02Z</time>
      </trkpt>
      <trkpt lat="46.37178" lon="4.61541">
        <ele>469</ele>
        <time>2015-07-06T13:12:23Z</time>
      </trkpt>
      <trkpt lat="46.37173" lon="4.61546">
        <ele>472</ele>
        <time>2015-07-06T13:12:55Z</time>
      </trkpt>
      <trkpt lat="46.37176" lon="4.61543">
        <ele>473</ele>
        <time>2015-07-06T13:13:46Z</time>
      </trkpt>
      <trkpt lat="46.37176" lon="4.61539">
        <ele>473</ele>
        <time>2015-07-06T13:14:27Z</time>
      </trkpt>
      <trkpt lat="46.37182" lon="4.61545">
        <ele>474</ele>
        <time>2015-07-06T13:15:23Z</time>
      </trkpt>
      <trkpt lat="46.37182" lon="4.61537">
        <ele>473</ele>
        <time>2015-07-06T13:15:58Z</time>
      </trkpt>
      <trkpt lat="46.37179" lon="4.61539">
        <ele>473</ele>
        <time>2015-07-06T13:16:21Z</time>
      </trkpt>
      <trkpt lat="46.37176" lon="4.6154">
        <ele>472</ele>
        <time>2015-07-06T13:17:05Z</time>
      </trkpt>
      <trkpt lat="46.3717" lon="4.61537">
        <ele>472</ele>
        <time>2015-07-06T13:17:23Z</time>
      </trkpt>
      <trkpt lat="46.37164" lon="4.61535">
        <ele>471</ele>
        <time>2015-07-06T13:17:30Z</time>
      </trkpt>
      <trkpt lat="46.37161" lon="4.61531">
        <ele>471</ele>
        <time>2015-07-06T13:17:40Z</time>
      </trkpt>
      <trkpt lat="46.37141" lon="4.6152">
        <ele>468</ele>
        <time>2015-07-06T13:17:57Z</time>
      </trkpt>
      <trkpt lat="46.37138" lon="4.61513">
        <ele>468</ele>
        <time>2015-07-06T13:18:12Z</time>
      </trkpt>
      <trkpt lat="46.3713" lon="4.61507">
        <ele>468</ele>
        <time>2015-07-06T13:18:22Z</time>
      </trkpt>
      <trkpt lat="46.37112" lon="4.61502">
        <ele>468</ele>
        <time>2015-07-06T13:18:36Z</time>
      </trkpt>
      <trkpt lat="46.37096" lon="4.61487">
        <ele>468</ele>
        <time>2015-07-06T13:18:52Z</time>
      </trkpt>
      <trkpt lat="46.37078" lon="4.61453">
        <ele>468</ele>
        <time>2015-07-06T13:19:26Z</time>
      </trkpt>
      <trkpt lat="46.37055" lon="4.61427">
        <ele>469</ele>
        <time>2015-07-06T13:19:47Z</time>
      </trkpt>
      <trkpt lat="46.37045" lon="4.61428">
        <ele>468</ele>
        <time>2015-07-06T13:19:58Z</time>
      </trkpt>
      <trkpt lat="46.3701" lon="4.61406">
        <ele>465</ele>
        <time>2015-07-06T13:20:31Z</time>
      </trkpt>
      <trkpt lat="46.36999" lon="4.61398">
        <ele>464</ele>
        <time>2015-07-06T13:20:45Z</time>
      </trkpt>
      <trkpt lat="46.3697" lon="4.6136">
        <ele>463</ele>
        <time>2015-07-06T13:21:15Z</time>
      </trkpt>
      <trkpt lat="46.36958" lon="4.6134">
        <ele>463</ele>
        <time>2015-07-06T13:21:32Z</time>
      </trkpt>
      <trkpt lat="46.36939" lon="4.61328">
        <ele>461</ele>
        <time>2015-07-06T13:22:02Z</time>
      </trkpt>
      <trkpt lat="46.36911" lon="4.61292">
        <ele>457</ele>
        <time>2015-07-06T13:22:38Z</time>
      </trkpt>
      <trkpt lat="46.36892" lon="4.61259">
        <ele>454</ele>
        <time>2015-07-06T13:23:02Z</time>
      </trkpt>
      <trkpt lat="46.36862" lon="4.61228">
        <ele>455</ele>
        <time>2015-07-06T13:23:33Z</time>
      </trkpt>
      <trkpt lat="46.36842" lon="4.6118">
        <ele>456</ele>
        <time>2015-07-06T13:24:05Z</time>
      </trkpt>
      <trkpt lat="46.36814" lon="4.61138">
        <ele>457</ele>
        <time>2015-07-06T13:24:43Z</time>
      </trkpt>
      <trkpt lat="46.36786" lon="4.61099">
        <ele>459</ele>
        <time>2015-07-06T13:25:15Z</time>
      </trkpt>
      <trkpt lat="46.36759" lon="4.61061">
        <ele>461</ele>
        <time>2015-07-06T13:25:54Z</time>
      </trkpt>
      <trkpt lat="46.36741" lon="4.61031">
        <ele>462</ele>
        <time>2015-07-06T13:26:20Z</time>
      </trkpt>
      <trkpt lat="46.36734" lon="4.6103">
        <ele>463</ele>
        <time>2015-07-06T13:26:32Z</time>
      </trkpt>
      <trkpt lat="46.3672" lon="4.6101">
        <ele>463</ele>
        <time>2015-07-06T13:26:50Z</time>
      </trkpt>
      <trkpt lat="46.36718" lon="4.61004">
        <ele>463</ele>
        <time>2015-07-06T13:26:54Z</time>
      </trkpt>
      <trkpt lat="46.36717" lon="4.60997">
        <ele>464</ele>
        <time>2015-07-06T13:26:59Z</time>
      </trkpt>
      <trkpt lat="46.36706" lon="4.60984">
        <ele>464</ele>
        <time>2015-07-06T13:27:06Z</time>
      </trkpt>
      <trkpt lat="46.36703" lon="4.60981">
        <ele>465</ele>
        <time>2015-07-06T13:27:15Z</time>
      </trkpt>
      <trkpt lat="46.36698" lon="4.60979">
        <ele>463</ele>
        <time>2015-07-06T13:27:59Z</time>
      </trkpt>
      <trkpt lat="46.36695" lon="4.60976">
        <ele>463</ele>
        <time>2015-07-06T13:28:01Z</time>
      </trkpt>
      <trkpt lat="46.36689" lon="4.60973">
        <ele>462</ele>
        <time>2015-07-06T13:28:05Z</time>
      </trkpt>
      <trkpt lat="46.36684" lon="4.6097">
        <ele>463</ele>
        <time>2015-07-06T13:28:29Z</time>
      </trkpt>
      <trkpt lat="46.36677" lon="4.60961">
        <ele>464</ele>
        <time>2015-07-06T13:28:37Z</time>
      </trkpt>
      <trkpt lat="46.36672" lon="4.60962">
        <ele>465</ele>
        <time>2015-07-06T13:28:41Z</time>
      </trkpt>
      <trkpt lat="46.36672" lon="4.60958">
        <ele>466</ele>
        <time>2015-07-06T13:28:59Z</time>
      </trkpt>
      <trkpt lat="46.36669" lon="4.60953">
        <ele>466</ele>
        <time>2015-07-06T13:29:02Z</time>
      </trkpt>
      <trkpt lat="46.36634" lon="4.60926">
        <ele>472</ele>
        <time>2015-07-06T13:29:34Z</time>
      </trkpt>
      <trkpt lat="46.36633" lon="4.6092">
        <ele>472</ele>
        <time>2015-07-06T13:29:40Z</time>
      </trkpt>
      <trkpt lat="46.36629" lon="4.60914">
        <ele>473</ele>
        <time>2015-07-06T13:29:46Z</time>
      </trkpt>
      <trkpt lat="46.36618" lon="4.60911">
        <ele>475</ele>
        <time>2015-07-06T13:29:56Z</time>
      </trkpt>
      <trkpt lat="46.36616" lon="4.60906">
        <ele>476</ele>
        <time>2015-07-06T13:30:01Z</time>
      </trkpt>
      <trkpt lat="46.36612" lon="4.60903">
        <ele>477</ele>
        <time>2015-07-06T13:30:06Z</time>
      </trkpt>
      <trkpt lat="46.366" lon="4.60888">
        <ele>478</ele>
        <time>2015-07-06T13:30:18Z</time>
      </trkpt>
      <trkpt lat="46.36576" lon="4.6084">
        <ele>481</ele>
        <time>2015-07-06T13:30:49Z</time>
      </trkpt>
      <trkpt lat="46.36558" lon="4.60807">
        <ele>484</ele>
        <time>2015-07-06T13:31:14Z</time>
      </trkpt>
      <trkpt lat="46.3655" lon="4.60799">
        <ele>484</ele>
        <time>2015-07-06T13:31:20Z</time>
      </trkpt>
      <trkpt lat="46.36529" lon="4.60754">
        <ele>487</ele>
        <time>2015-07-06T13:31:52Z</time>
      </trkpt>
      <trkpt lat="46.36529" lon="4.6074">
        <ele>488</ele>
        <time>2015-07-06T13:31:59Z</time>
      </trkpt>
      <trkpt lat="46.36521" lon="4.60728">
        <ele>490</ele>
        <time>2015-07-06T13:32:10Z</time>
      </trkpt>
      <trkpt lat="46.3651" lon="4.60701">
        <ele>494</ele>
        <time>2015-07-06T13:32:41Z</time>
      </trkpt>
      <trkpt lat="46.365" lon="4.60687">
        <ele>496</ele>
        <time>2015-07-06T13:32:53Z</time>
      </trkpt>
      <trkpt lat="46.36492" lon="4.60679">
        <ele>496</ele>
        <time>2015-07-06T13:32:59Z</time>
      </trkpt>
      <trkpt lat="46.36478" lon="4.60652">
        <ele>498</ele>
        <time>2015-07-06T13:33:20Z</time>
      </trkpt>
      <trkpt lat="46.36454" lon="4.60646">
        <ele>498</ele>
        <time>2015-07-06T13:34:04Z</time>
      </trkpt>
      <trkpt lat="46.36434" lon="4.60642">
        <ele>499</ele>
        <time>2015-07-06T13:34:19Z</time>
      </trkpt>
      <trkpt lat="46.36422" lon="4.6063">
        <ele>499</ele>
        <time>2015-07-06T13:34:32Z</time>
      </trkpt>
      <trkpt lat="46.36417" lon="4.60626">
        <ele>499</ele>
        <time>2015-07-06T13:34:37Z</time>
      </trkpt>
      <trkpt lat="46.36416" lon="4.60622">
        <ele>499</ele>
        <time>2015-07-06T13:34:38Z</time>
      </trkpt>
      <trkpt lat="46.36411" lon="4.60623">
        <ele>499</ele>
        <time>2015-07-06T13:34:47Z</time>
      </trkpt>
      <trkpt lat="46.364" lon="4.60623">
        <ele>500</ele>
        <time>2015-07-06T13:34:56Z</time>
      </trkpt>
      <trkpt lat="46.36396" lon="4.6062">
        <ele>500</ele>
        <time>2015-07-06T13:34:59Z</time>
      </trkpt>
      <trkpt lat="46.36388" lon="4.60621">
        <ele>500</ele>
        <time>2015-07-06T13:35:07Z</time>
      </trkpt>
      <trkpt lat="46.36375" lon="4.60611">
        <ele>501</ele>
        <time>2015-07-06T13:35:22Z</time>
      </trkpt>
      <trkpt lat="46.36335" lon="4.60591">
        <ele>499</ele>
        <time>2015-07-06T13:35:54Z</time>
      </trkpt>
      <trkpt lat="46.36301" lon="4.60574">
        <ele>498</ele>
        <time>2015-07-06T13:36:25Z</time>
      </trkpt>
      <trkpt lat="46.36296" lon="4.60574">
        <ele>498</ele>
        <time>2015-07-06T13:36:30Z</time>
      </trkpt>
      <trkpt lat="46.36294" lon="4.60574">
        <ele>497</ele>
        <time>2015-07-06T13:36:37Z</time>
      </trkpt>
      <trkpt lat="46.36289" lon="4.6057">
        <ele>498</ele>
        <time>2015-07-06T13:36:55Z</time>
      </trkpt>
      <trkpt lat="46.36279" lon="4.60571">
        <ele>497</ele>
        <time>2015-07-06T13:37:04Z</time>
      </trkpt>
      <trkpt lat="46.36274" lon="4.6057">
        <ele>497</ele>
        <time>2015-07-06T13:37:09Z</time>
      </trkpt>
      <trkpt lat="46.36237" lon="4.60566">
        <ele>495</ele>
        <time>2015-07-06T13:37:41Z</time>
      </trkpt>
      <trkpt lat="46.36194" lon="4.60572">
        <ele>495</ele>
        <time>2015-07-06T13:38:13Z</time>
      </trkpt>
      <trkpt lat="46.36148" lon="4.60578">
        <ele>494</ele>
        <time>2015-07-06T13:38:46Z</time>
      </trkpt>
      <trkpt lat="46.36107" lon="4.60569">
        <ele>494</ele>
        <time>2015-07-06T13:39:20Z</time>
      </trkpt>
      <trkpt lat="46.3607" lon="4.60569">
        <ele>497</ele>
        <time>2015-07-06T13:39:52Z</time>
      </trkpt>
      <trkpt lat="46.36065" lon="4.60569">
        <ele>498</ele>
        <time>2015-07-06T13:39:56Z</time>
      </trkpt>
      <trkpt lat="46.36062" lon="4.60574">
        <ele>499</ele>
        <time>2015-07-06T13:40:00Z</time>
      </trkpt>
      <trkpt lat="46.36055" lon="4.60625">
        <ele>499</ele>
        <time>2015-07-06T13:40:34Z</time>
      </trkpt>
      <trkpt lat="46.36055" lon="4.60631">
        <ele>499</ele>
        <time>2015-07-06T13:40:44Z</time>
      </trkpt>
      <trkpt lat="46.36049" lon="4.60633">
        <ele>499</ele>
        <time>2015-07-06T13:41:12Z</time>
      </trkpt>
      <trkpt lat="46.36035" lon="4.60628">
        <ele>501</ele>
        <time>2015-07-06T13:41:24Z</time>
      </trkpt>
      <trkpt lat="46.36013" lon="4.6063">
        <ele>505</ele>
        <time>2015-07-06T13:42:03Z</time>
      </trkpt>
      <trkpt lat="46.35977" lon="4.60625">
        <ele>510</ele>
        <time>2015-07-06T13:42:35Z</time>
      </trkpt>
      <trkpt lat="46.35939" lon="4.60614">
        <ele>516</ele>
        <time>2015-07-06T13:43:09Z</time>
      </trkpt>
      <trkpt lat="46.35934" lon="4.60614">
        <ele>516</ele>
        <time>2015-07-06T13:43:13Z</time>
      </trkpt>
      <trkpt lat="46.35893" lon="4.60617">
        <ele>522</ele>
        <time>2015-07-06T13:43:47Z</time>
      </trkpt>
      <trkpt lat="46.35883" lon="4.6062">
        <ele>523</ele>
        <time>2015-07-06T13:43:56Z</time>
      </trkpt>
      <trkpt lat="46.35878" lon="4.60618">
        <ele>524</ele>
        <time>2015-07-06T13:44:00Z</time>
      </trkpt>
      <trkpt lat="46.35863" lon="4.60621">
        <ele>525</ele>
        <time>2015-07-06T13:44:12Z</time>
      </trkpt>
      <trkpt lat="46.35822" lon="4.60603">
        <ele>528</ele>
        <time>2015-07-06T13:44:47Z</time>
      </trkpt>
      <trkpt lat="46.35813" lon="4.60596">
        <ele>529</ele>
        <time>2015-07-06T13:44:56Z</time>
      </trkpt>
      <trkpt lat="46.35805" lon="4.60589">
        <ele>529</ele>
        <time>2015-07-06T13:45:03Z</time>
      </trkpt>
      <trkpt lat="46.35781" lon="4.60551">
        <ele>532</ele>
        <time>2015-07-06T13:45:28Z</time>
      </trkpt>
      <trkpt lat="46.35762" lon="4.60527">
        <ele>527</ele>
        <time>2015-07-06T13:45:48Z</time>
      </trkpt>
      <trkpt lat="46.35758" lon="4.60522">
        <ele>527</ele>
        <time>2015-07-06T13:45:54Z</time>
      </trkpt>
      <trkpt lat="46.35742" lon="4.60501">
        <ele>530</ele>
        <time>2015-07-06T13:46:36Z</time>
      </trkpt>
      <trkpt lat="46.35718" lon="4.60489">
        <ele>533</ele>
        <time>2015-07-06T13:47:00Z</time>
      </trkpt>
      <trkpt lat="46.35712" lon="4.60478">
        <ele>534</ele>
        <time>2015-07-06T13:47:08Z</time>
      </trkpt>
      <trkpt lat="46.3571" lon="4.60465">
        <ele>535</ele>
        <time>2015-07-06T13:47:19Z</time>
      </trkpt>
      <trkpt lat="46.35679" lon="4.60416">
        <ele>537</ele>
        <time>2015-07-06T13:47:52Z</time>
      </trkpt>
      <trkpt lat="46.35653" lon="4.60379">
        <ele>537</ele>
        <time>2015-07-06T13:48:25Z</time>
      </trkpt>
      <trkpt lat="46.35642" lon="4.60377">
        <ele>537</ele>
        <time>2015-07-06T13:48:36Z</time>
      </trkpt>
      <trkpt lat="46.35635" lon="4.60379">
        <ele>537</ele>
        <time>2015-07-06T13:48:41Z</time>
      </trkpt>
      <trkpt lat="46.35634" lon="4.60382">
        <ele>537</ele>
        <time>2015-07-06T13:48:43Z</time>
      </trkpt>
      <trkpt lat="46.35627" lon="4.6038">
        <ele>538</ele>
        <time>2015-07-06T13:48:49Z</time>
      </trkpt>
      <trkpt lat="46.3559" lon="4.60356">
        <ele>539</ele>
        <time>2015-07-06T13:49:20Z</time>
      </trkpt>
      <trkpt lat="46.35583" lon="4.60345">
        <ele>540</ele>
        <time>2015-07-06T13:49:23Z</time>
      </trkpt>
      <trkpt lat="46.35561" lon="4.60327">
        <ele>541</ele>
        <time>2015-07-06T13:49:55Z</time>
      </trkpt>
      <trkpt lat="46.35563" lon="4.60319">
        <ele>541</ele>
        <time>2015-07-06T13:50:00Z</time>
      </trkpt>
      <trkpt lat="46.35558" lon="4.60312">
        <ele>541</ele>
        <time>2015-07-06T13:50:05Z</time>
      </trkpt>
      <trkpt lat="46.3552" lon="4.60293">
        <ele>543</ele>
        <time>2015-07-06T13:50:32Z</time>
      </trkpt>
      <trkpt lat="46.35521" lon="4.60297">
        <ele>543</ele>
        <time>2015-07-06T13:50:35Z</time>
      </trkpt>
      <trkpt lat="46.35514" lon="4.60301">
        <ele>543</ele>
        <time>2015-07-06T13:50:41Z</time>
      </trkpt>
      <trkpt lat="46.35506" lon="4.60292">
        <ele>543</ele>
        <time>2015-07-06T13:50:46Z</time>
      </trkpt>
      <trkpt lat="46.355" lon="4.6029">
        <ele>544</ele>
        <time>2015-07-06T13:50:51Z</time>
      </trkpt>
      <trkpt lat="46.35493" lon="4.60293">
        <ele>545</ele>
        <time>2015-07-06T13:50:57Z</time>
      </trkpt>
      <trkpt lat="46.35487" lon="4.60292">
        <ele>545</ele>
        <time>2015-07-06T13:50:59Z</time>
      </trkpt>
      <trkpt lat="46.35462" lon="4.6028">
        <ele>548</ele>
        <time>2015-07-06T13:51:26Z</time>
      </trkpt>
      <trkpt lat="46.35457" lon="4.60282">
        <ele>548</ele>
        <time>2015-07-06T13:51:30Z</time>
      </trkpt>
      <trkpt lat="46.35415" lon="4.60279">
        <ele>552</ele>
        <time>2015-07-06T13:52:02Z</time>
      </trkpt>
      <trkpt lat="46.3541" lon="4.60278">
        <ele>552</ele>
        <time>2015-07-06T13:52:05Z</time>
      </trkpt>
      <trkpt lat="46.35405" lon="4.6028">
        <ele>553</ele>
        <time>2015-07-06T13:52:11Z</time>
      </trkpt>
      <trkpt lat="46.35371" lon="4.60279">
        <ele>556</ele>
        <time>2015-07-06T13:52:43Z</time>
      </trkpt>
      <trkpt lat="46.35367" lon="4.60282">
        <ele>556</ele>
        <time>2015-07-06T13:52:46Z</time>
      </trkpt>
      <trkpt lat="46.35362" lon="4.6028">
        <ele>556</ele>
        <time>2015-07-06T13:52:50Z</time>
      </trkpt>
      <trkpt lat="46.35357" lon="4.60283">
        <ele>557</ele>
        <time>2015-07-06T13:53:00Z</time>
      </trkpt>
      <trkpt lat="46.35354" lon="4.6029">
        <ele>557</ele>
        <time>2015-07-06T13:53:06Z</time>
      </trkpt>
      <trkpt lat="46.35354" lon="4.60289">
        <ele>557</ele>
        <time>2015-07-06T13:53:18Z</time>
      </trkpt>
      <trkpt lat="46.35353" lon="4.60283">
        <ele>557</ele>
        <time>2015-07-06T13:53:39Z</time>
      </trkpt>
      <trkpt lat="46.35351" lon="4.60279">
        <ele>559</ele>
        <time>2015-07-06T13:58:26Z</time>
      </trkpt>
      <trkpt lat="46.35349" lon="4.60272">
        <ele>559</ele>
        <time>2015-07-06T13:58:34Z</time>
      </trkpt>
      <trkpt lat="46.35346" lon="4.60265">
        <ele>561</ele>
        <time>2015-07-06T13:58:38Z</time>
      </trkpt>
      <trkpt lat="46.35341" lon="4.60261">
        <ele>562</ele>
        <time>2015-07-06T13:58:41Z</time>
      </trkpt>
      <trkpt lat="46.35327" lon="4.60252">
        <ele>560</ele>
        <time>2015-07-06T13:58:50Z</time>
      </trkpt>
      <trkpt lat="46.35323" lon="4.60247">
        <ele>560</ele>
        <time>2015-07-06T13:58:53Z</time>
      </trkpt>
      <trkpt lat="46.35318" lon="4.6024">
        <ele>560</ele>
        <time>2015-07-06T13:58:57Z</time>
      </trkpt>
      <trkpt lat="46.3529" lon="4.60211">
        <ele>552</ele>
        <time>2015-07-06T13:59:24Z</time>
      </trkpt>
      <trkpt lat="46.35281" lon="4.60201">
        <ele>552</ele>
        <time>2015-07-06T13:59:31Z</time>
      </trkpt>
      <trkpt lat="46.35278" lon="4.60195">
        <ele>553</ele>
        <time>2015-07-06T13:59:35Z</time>
      </trkpt>
      <trkpt lat="46.35266" lon="4.60181">
        <ele>555</ele>
        <time>2015-07-06T13:59:50Z</time>
      </trkpt>
      <trkpt lat="46.35263" lon="4.60175">
        <ele>554</ele>
        <time>2015-07-06T13:59:54Z</time>
      </trkpt>
      <trkpt lat="46.35261" lon="4.60168">
        <ele>554</ele>
        <time>2015-07-06T13:59:58Z</time>
      </trkpt>
      <trkpt lat="46.35253" lon="4.60159">
        <ele>554</ele>
        <time>2015-07-06T14:00:05Z</time>
      </trkpt>
      <trkpt lat="46.35244" lon="4.60152">
        <ele>554</ele>
        <time>2015-07-06T14:00:13Z</time>
      </trkpt>
      <trkpt lat="46.35239" lon="4.60149">
        <ele>553</ele>
        <time>2015-07-06T14:00:17Z</time>
      </trkpt>
      <trkpt lat="46.35234" lon="4.6015">
        <ele>555</ele>
        <time>2015-07-06T14:00:28Z</time>
      </trkpt>
      <trkpt lat="46.35228" lon="4.60152">
        <ele>554</ele>
        <time>2015-07-06T14:00:32Z</time>
      </trkpt>
      <trkpt lat="46.35223" lon="4.60156">
        <ele>555</ele>
        <time>2015-07-06T14:00:36Z</time>
      </trkpt>
      <trkpt lat="46.35214" lon="4.60161">
        <ele>560</ele>
        <time>2015-07-06T14:00:44Z</time>
      </trkpt>
      <trkpt lat="46.35198" lon="4.60164">
        <ele>556</ele>
        <time>2015-07-06T14:00:57Z</time>
      </trkpt>
      <trkpt lat="46.35194" lon="4.60167">
        <ele>557</ele>
        <time>2015-07-06T14:01:00Z</time>
      </trkpt>
      <trkpt lat="46.35188" lon="4.60169">
        <ele>558</ele>
        <time>2015-07-06T14:01:04Z</time>
      </trkpt>
      <trkpt lat="46.35184" lon="4.60164">
        <ele>558</ele>
        <time>2015-07-06T14:01:09Z</time>
      </trkpt>
      <trkpt lat="46.35179" lon="4.60166">
        <ele>558</ele>
        <time>2015-07-06T14:01:13Z</time>
      </trkpt>
      <trkpt lat="46.35177" lon="4.60169">
        <ele>559</ele>
        <time>2015-07-06T14:01:15Z</time>
      </trkpt>
      <trkpt lat="46.35168" lon="4.60173">
        <ele>559</ele>
        <time>2015-07-06T14:01:24Z</time>
      </trkpt>
      <trkpt lat="46.35163" lon="4.60174">
        <ele>559</ele>
        <time>2015-07-06T14:01:28Z</time>
      </trkpt>
      <trkpt lat="46.35157" lon="4.60174">
        <ele>558</ele>
        <time>2015-07-06T14:01:31Z</time>
      </trkpt>
      <trkpt lat="46.35147" lon="4.60175">
        <ele>559</ele>
        <time>2015-07-06T14:01:39Z</time>
      </trkpt>
      <trkpt lat="46.35141" lon="4.60171">
        <ele>558</ele>
        <time>2015-07-06T14:01:43Z</time>
      </trkpt>
      <trkpt lat="46.35132" lon="4.60166">
        <ele>560</ele>
        <time>2015-07-06T14:01:51Z</time>
      </trkpt>
      <trkpt lat="46.35125" lon="4.60169">
        <ele>565</ele>
        <time>2015-07-06T14:01:57Z</time>
      </trkpt>
      <trkpt lat="46.3512" lon="4.60164">
        <ele>565</ele>
        <time>2015-07-06T14:02:01Z</time>
      </trkpt>
      <trkpt lat="46.35117" lon="4.6016">
        <ele>565</ele>
        <time>2015-07-06T14:02:10Z</time>
      </trkpt>
      <trkpt lat="46.35112" lon="4.60155">
        <ele>564</ele>
        <time>2015-07-06T14:02:25Z</time>
      </trkpt>
      <trkpt lat="46.35107" lon="4.60152">
        <ele>564</ele>
        <time>2015-07-06T14:02:29Z</time>
      </trkpt>
      <trkpt lat="46.35063" lon="4.60139">
        <ele>571</ele>
        <time>2015-07-06T14:03:03Z</time>
      </trkpt>
      <trkpt lat="46.35059" lon="4.60135">
        <ele>571</ele>
        <time>2015-07-06T14:03:10Z</time>
      </trkpt>
      <trkpt lat="46.35056" lon="4.60127">
        <ele>572</ele>
        <time>2015-07-06T14:03:16Z</time>
      </trkpt>
      <trkpt lat="46.35014" lon="4.60104">
        <ele>584</ele>
        <time>2015-07-06T14:03:52Z</time>
      </trkpt>
      <trkpt lat="46.35009" lon="4.601">
        <ele>584</ele>
        <time>2015-07-06T14:04:05Z</time>
      </trkpt>
      <trkpt lat="46.34998" lon="4.6009">
        <ele>581</ele>
        <time>2015-07-06T14:04:13Z</time>
      </trkpt>
      <trkpt lat="46.34995" lon="4.60084">
        <ele>580</ele>
        <time>2015-07-06T14:04:17Z</time>
      </trkpt>
      <trkpt lat="46.34987" lon="4.60073">
        <ele>581</ele>
        <time>2015-07-06T14:04:26Z</time>
      </trkpt>
      <trkpt lat="46.34983" lon="4.6007">
        <ele>581</ele>
        <time>2015-07-06T14:04:29Z</time>
      </trkpt>
      <trkpt lat="46.34979" lon="4.60067">
        <ele>581</ele>
        <time>2015-07-06T14:04:33Z</time>
      </trkpt>
      <trkpt lat="46.34968" lon="4.60062">
        <ele>580</ele>
        <time>2015-07-06T14:04:41Z</time>
      </trkpt>
      <trkpt lat="46.34964" lon="4.60057">
        <ele>580</ele>
        <time>2015-07-06T14:04:44Z</time>
      </trkpt>
      <trkpt lat="46.34926" lon="4.60025">
        <ele>588</ele>
        <time>2015-07-06T14:05:18Z</time>
      </trkpt>
      <trkpt lat="46.3492" lon="4.60023">
        <ele>588</ele>
        <time>2015-07-06T14:05:24Z</time>
      </trkpt>
      <trkpt lat="46.34915" lon="4.60018">
        <ele>588</ele>
        <time>2015-07-06T14:05:28Z</time>
      </trkpt>
      <trkpt lat="46.34911" lon="4.60012">
        <ele>587</ele>
        <time>2015-07-06T14:05:31Z</time>
      </trkpt>
      <trkpt lat="46.34909" lon="4.60008">
        <ele>587</ele>
        <time>2015-07-06T14:05:33Z</time>
      </trkpt>
      <trkpt lat="46.34904" lon="4.59999">
        <ele>586</ele>
        <time>2015-07-06T14:05:38Z</time>
      </trkpt>
      <trkpt lat="46.349" lon="4.59995">
        <ele>586</ele>
        <time>2015-07-06T14:05:42Z</time>
      </trkpt>
      <trkpt lat="46.34897" lon="4.59989">
        <ele>586</ele>
        <time>2015-07-06T14:05:47Z</time>
      </trkpt>
      <trkpt lat="46.34894" lon="4.59984">
        <ele>587</ele>
        <time>2015-07-06T14:05:53Z</time>
      </trkpt>
      <trkpt lat="46.34889" lon="4.59973">
        <ele>588</ele>
        <time>2015-07-06T14:05:59Z</time>
      </trkpt>
      <trkpt lat="46.34886" lon="4.59967">
        <ele>588</ele>
        <time>2015-07-06T14:06:03Z</time>
      </trkpt>
      <trkpt lat="46.34882" lon="4.59961">
        <ele>587</ele>
        <time>2015-07-06T14:06:08Z</time>
      </trkpt>
      <trkpt lat="46.34877" lon="4.59957">
        <ele>587</ele>
        <time>2015-07-06T14:06:11Z</time>
      </trkpt>
      <trkpt lat="46.34873" lon="4.59954">
        <ele>588</ele>
        <time>2015-07-06T14:06:14Z</time>
      </trkpt>
      <trkpt lat="46.3486" lon="4.59943">
        <ele>588</ele>
        <time>2015-07-06T14:06:31Z</time>
      </trkpt>
      <trkpt lat="46.34851" lon="4.59937">
        <ele>588</ele>
        <time>2015-07-06T14:06:38Z</time>
      </trkpt>
      <trkpt lat="46.34843" lon="4.5993">
        <ele>588</ele>
        <time>2015-07-06T14:06:44Z</time>
      </trkpt>
      <trkpt lat="46.3484" lon="4.59927">
        <ele>588</ele>
        <time>2015-07-06T14:06:46Z</time>
      </trkpt>
      <trkpt lat="46.34811" lon="4.59906">
        <ele>583</ele>
        <time>2015-07-06T14:07:10Z</time>
      </trkpt>
      <trkpt lat="46.34801" lon="4.59903">
        <ele>582</ele>
        <time>2015-07-06T14:07:19Z</time>
      </trkpt>
      <trkpt lat="46.34798" lon="4.59901">
        <ele>582</ele>
        <time>2015-07-06T14:07:21Z</time>
      </trkpt>
      <trkpt lat="46.34796" lon="4.59898">
        <ele>582</ele>
        <time>2015-07-06T14:07:23Z</time>
      </trkpt>
      <trkpt lat="46.34792" lon="4.59894">
        <ele>582</ele>
        <time>2015-07-06T14:07:27Z</time>
      </trkpt>
      <trkpt lat="46.34783" lon="4.59887">
        <ele>583</ele>
        <time>2015-07-06T14:07:36Z</time>
      </trkpt>
      <trkpt lat="46.34779" lon="4.59882">
        <ele>583</ele>
        <time>2015-07-06T14:07:40Z</time>
      </trkpt>
      <trkpt lat="46.34771" lon="4.59872">
        <ele>584</ele>
        <time>2015-07-06T14:07:53Z</time>
      </trkpt>
      <trkpt lat="46.34768" lon="4.59871">
        <ele>584</ele>
        <time>2015-07-06T14:07:57Z</time>
      </trkpt>
      <trkpt lat="46.34764" lon="4.59866">
        <ele>585</ele>
        <time>2015-07-06T14:08:01Z</time>
      </trkpt>
      <trkpt lat="46.3476" lon="4.59861">
        <ele>584</ele>
        <time>2015-07-06T14:08:07Z</time>
      </trkpt>
      <trkpt lat="46.34757" lon="4.59855">
        <ele>584</ele>
        <time>2015-07-06T14:08:11Z</time>
      </trkpt>
      <trkpt lat="46.34747" lon="4.59844">
        <ele>586</ele>
        <time>2015-07-06T14:08:19Z</time>
      </trkpt>
      <trkpt lat="46.34743" lon="4.5984">
        <ele>586</ele>
        <time>2015-07-06T14:08:24Z</time>
      </trkpt>
      <trkpt lat="46.34744" lon="4.59837">
        <ele>586</ele>
        <time>2015-07-06T14:08:39Z</time>
      </trkpt>
      <trkpt lat="46.3474" lon="4.59833">
        <ele>586</ele>
        <time>2015-07-06T14:08:44Z</time>
      </trkpt>
      <trkpt lat="46.34727" lon="4.59819">
        <ele>581</ele>
        <time>2015-07-06T14:08:56Z</time>
      </trkpt>
      <trkpt lat="46.34693" lon="4.59791">
        <ele>581</ele>
        <time>2015-07-06T14:09:25Z</time>
      </trkpt>
      <trkpt lat="46.34688" lon="4.59787">
        <ele>582</ele>
        <time>2015-07-06T14:09:29Z</time>
      </trkpt>
      <trkpt lat="46.34673" lon="4.59769">
        <ele>580</ele>
        <time>2015-07-06T14:09:51Z</time>
      </trkpt>
      <trkpt lat="46.34669" lon="4.59766">
        <ele>583</ele>
        <time>2015-07-06T14:09:59Z</time>
      </trkpt>
      <trkpt lat="46.34663" lon="4.59764">
        <ele>581</ele>
        <time>2015-07-06T14:10:10Z</time>
      </trkpt>
      <trkpt lat="46.34658" lon="4.59768">
        <ele>581</ele>
        <time>2015-07-06T14:10:14Z</time>
      </trkpt>
      <trkpt lat="46.34653" lon="4.59786">
        <ele>585</ele>
        <time>2015-07-06T14:10:30Z</time>
      </trkpt>
      <trkpt lat="46.34657" lon="4.59779">
        <ele>585</ele>
        <time>2015-07-06T14:10:35Z</time>
      </trkpt>
      <trkpt lat="46.34659" lon="4.59771">
        <ele>585</ele>
        <time>2015-07-06T14:10:39Z</time>
      </trkpt>
      <trkpt lat="46.34659" lon="4.59764">
        <ele>585</ele>
        <time>2015-07-06T14:10:43Z</time>
      </trkpt>
      <trkpt lat="46.34655" lon="4.59758">
        <ele>584</ele>
        <time>2015-07-06T14:10:47Z</time>
      </trkpt>
      <trkpt lat="46.34651" lon="4.59753">
        <ele>583</ele>
        <time>2015-07-06T14:10:51Z</time>
      </trkpt>
      <trkpt lat="46.34611" lon="4.59736">
        <ele>579</ele>
        <time>2015-07-06T14:11:21Z</time>
      </trkpt>
      <trkpt lat="46.34582" lon="4.59726">
        <ele>578</ele>
        <time>2015-07-06T14:11:45Z</time>
      </trkpt>
      <trkpt lat="46.3457" lon="4.59723">
        <ele>579</ele>
        <time>2015-07-06T14:11:57Z</time>
      </trkpt>
      <trkpt lat="46.34564" lon="4.5972">
        <ele>579</ele>
        <time>2015-07-06T14:12:01Z</time>
      </trkpt>
      <trkpt lat="46.34551" lon="4.59717">
        <ele>578</ele>
        <time>2015-07-06T14:12:12Z</time>
      </trkpt>
      <trkpt lat="46.34546" lon="4.59713">
        <ele>578</ele>
        <time>2015-07-06T14:12:17Z</time>
      </trkpt>
      <trkpt lat="46.34539" lon="4.59712">
        <ele>578</ele>
        <time>2015-07-06T14:12:21Z</time>
      </trkpt>
      <trkpt lat="46.34524" lon="4.59707">
        <ele>574</ele>
        <time>2015-07-06T14:12:36Z</time>
      </trkpt>
      <trkpt lat="46.34517" lon="4.59704">
        <ele>574</ele>
        <time>2015-07-06T14:12:40Z</time>
      </trkpt>
      <trkpt lat="46.34513" lon="4.59702">
        <ele>574</ele>
        <time>2015-07-06T14:12:44Z</time>
      </trkpt>
      <trkpt lat="46.34508" lon="4.59706">
        <ele>574</ele>
        <time>2015-07-06T14:12:49Z</time>
      </trkpt>
      <trkpt lat="46.34503" lon="4.59702">
        <ele>575</ele>
        <time>2015-07-06T14:12:52Z</time>
      </trkpt>
      <trkpt lat="46.34494" lon="4.59693">
        <ele>577</ele>
        <time>2015-07-06T14:12:59Z</time>
      </trkpt>
      <trkpt lat="46.34485" lon="4.59684">
        <ele>578</ele>
        <time>2015-07-06T14:13:08Z</time>
      </trkpt>
      <trkpt lat="46.34463" lon="4.59663">
        <ele>576</ele>
        <time>2015-07-06T14:13:27Z</time>
      </trkpt>
      <trkpt lat="46.34458" lon="4.59662">
        <ele>576</ele>
        <time>2015-07-06T14:13:33Z</time>
      </trkpt>
      <trkpt lat="46.34453" lon="4.59657">
        <ele>576</ele>
        <time>2015-07-06T14:13:37Z</time>
      </trkpt>
      <trkpt lat="46.34447" lon="4.5965">
        <ele>577</ele>
        <time>2015-07-06T14:13:41Z</time>
      </trkpt>
      <trkpt lat="46.34443" lon="4.59645">
        <ele>577</ele>
        <time>2015-07-06T14:13:45Z</time>
      </trkpt>
      <trkpt lat="46.3443" lon="4.59635">
        <ele>575</ele>
        <time>2015-07-06T14:14:01Z</time>
      </trkpt>
      <trkpt lat="46.34421" lon="4.59629">
        <ele>574</ele>
        <time>2015-07-06T14:14:06Z</time>
      </trkpt>
      <trkpt lat="46.34418" lon="4.59624">
        <ele>574</ele>
        <time>2015-07-06T14:14:13Z</time>
      </trkpt>
      <trkpt lat="46.34414" lon="4.59619">
        <ele>573</ele>
        <time>2015-07-06T14:14:19Z</time>
      </trkpt>
      <trkpt lat="46.34398" lon="4.59612">
        <ele>572</ele>
        <time>2015-07-06T14:14:28Z</time>
      </trkpt>
      <trkpt lat="46.34393" lon="4.59608">
        <ele>571</ele>
        <time>2015-07-06T14:14:33Z</time>
      </trkpt>
      <trkpt lat="46.34388" lon="4.59604">
        <ele>570</ele>
        <time>2015-07-06T14:14:36Z</time>
      </trkpt>
      <trkpt lat="46.34384" lon="4.59599">
        <ele>570</ele>
        <time>2015-07-06T14:14:39Z</time>
      </trkpt>
      <trkpt lat="46.34381" lon="4.59593">
        <ele>570</ele>
        <time>2015-07-06T14:14:48Z</time>
      </trkpt>
      <trkpt lat="46.34381" lon="4.59588">
        <ele>570</ele>
        <time>2015-07-06T14:14:50Z</time>
      </trkpt>
      <trkpt lat="46.34378" lon="4.59578">
        <ele>570</ele>
        <time>2015-07-06T14:14:54Z</time>
      </trkpt>
      <trkpt lat="46.34375" lon="4.59573">
        <ele>569</ele>
        <time>2015-07-06T14:14:59Z</time>
      </trkpt>
      <trkpt lat="46.34373" lon="4.59567">
        <ele>569</ele>
        <time>2015-07-06T14:15:02Z</time>
      </trkpt>
      <trkpt lat="46.34371" lon="4.5956">
        <ele>569</ele>
        <time>2015-07-06T14:15:05Z</time>
      </trkpt>
      <trkpt lat="46.34363" lon="4.59528">
        <ele>571</ele>
        <time>2015-07-06T14:15:22Z</time>
      </trkpt>
      <trkpt lat="46.3435" lon="4.59507">
        <ele>570</ele>
        <time>2015-07-06T14:15:40Z</time>
      </trkpt>
      <trkpt lat="46.34343" lon="4.59497">
        <ele>570</ele>
        <time>2015-07-06T14:15:48Z</time>
      </trkpt>
      <trkpt lat="46.34325" lon="4.59487">
        <ele>566</ele>
        <time>2015-07-06T14:16:07Z</time>
      </trkpt>
      <trkpt lat="46.34316" lon="4.59481">
        <ele>566</ele>
        <time>2015-07-06T14:16:18Z</time>
      </trkpt>
      <trkpt lat="46.34313" lon="4.59476">
        <ele>565</ele>
        <time>2015-07-06T14:16:25Z</time>
      </trkpt>
      <trkpt lat="46.34297" lon="4.59472">
        <ele>564</ele>
        <time>2015-07-06T14:16:37Z</time>
      </trkpt>
      <trkpt lat="46.34292" lon="4.59468">
        <ele>564</ele>
        <time>2015-07-06T14:16:42Z</time>
      </trkpt>
      <trkpt lat="46.34271" lon="4.59459">
        <ele>562</ele>
        <time>2015-07-06T14:17:00Z</time>
      </trkpt>
      <trkpt lat="46.3426" lon="4.59457">
        <ele>562</ele>
        <time>2015-07-06T14:17:06Z</time>
      </trkpt>
      <trkpt lat="46.34255" lon="4.59456">
        <ele>562</ele>
        <time>2015-07-06T14:17:10Z</time>
      </trkpt>
      <trkpt lat="46.34245" lon="4.59454">
        <ele>561</ele>
        <time>2015-07-06T14:17:18Z</time>
      </trkpt>
      <trkpt lat="46.34241" lon="4.59453">
        <ele>563</ele>
        <time>2015-07-06T14:17:22Z</time>
      </trkpt>
      <trkpt lat="46.34235" lon="4.59454">
        <ele>562</ele>
        <time>2015-07-06T14:17:27Z</time>
      </trkpt>
      <trkpt lat="46.3423" lon="4.59455">
        <ele>561</ele>
        <time>2015-07-06T14:17:33Z</time>
      </trkpt>
      <trkpt lat="46.34224" lon="4.59456">
        <ele>562</ele>
        <time>2015-07-06T14:17:37Z</time>
      </trkpt>
      <trkpt lat="46.34219" lon="4.59456">
        <ele>560</ele>
        <time>2015-07-06T14:17:41Z</time>
      </trkpt>
      <trkpt lat="46.34215" lon="4.59456">
        <ele>561</ele>
        <time>2015-07-06T14:17:44Z</time>
      </trkpt>
      <trkpt lat="46.34211" lon="4.59456">
        <ele>561</ele>
        <time>2015-07-06T14:17:46Z</time>
      </trkpt>
      <trkpt lat="46.34206" lon="4.59456">
        <ele>561</ele>
        <time>2015-07-06T14:17:50Z</time>
      </trkpt>
      <trkpt lat="46.34197" lon="4.59463">
        <ele>560</ele>
        <time>2015-07-06T14:18:00Z</time>
      </trkpt>
      <trkpt lat="46.3419" lon="4.59469">
        <ele>560</ele>
        <time>2015-07-06T14:18:05Z</time>
      </trkpt>
      <trkpt lat="46.34185" lon="4.59468">
        <ele>561</ele>
        <time>2015-07-06T14:18:08Z</time>
      </trkpt>
      <trkpt lat="46.34178" lon="4.59469">
        <ele>561</ele>
        <time>2015-07-06T14:18:14Z</time>
      </trkpt>
      <trkpt lat="46.34176" lon="4.59471">
        <ele>561</ele>
        <time>2015-07-06T14:18:16Z</time>
      </trkpt>
      <trkpt lat="46.34169" lon="4.59479">
        <ele>562</ele>
        <time>2015-07-06T14:18:26Z</time>
      </trkpt>
      <trkpt lat="46.34164" lon="4.59484">
        <ele>562</ele>
        <time>2015-07-06T14:18:30Z</time>
      </trkpt>
      <trkpt lat="46.3416" lon="4.59486">
        <ele>561</ele>
        <time>2015-07-06T14:18:34Z</time>
      </trkpt>
      <trkpt lat="46.34144" lon="4.59495">
        <ele>561</ele>
        <time>2015-07-06T14:18:48Z</time>
      </trkpt>
      <trkpt lat="46.34135" lon="4.59498">
        <ele>560</ele>
        <time>2015-07-06T14:18:56Z</time>
      </trkpt>
      <trkpt lat="46.34112" lon="4.59502">
        <ele>560</ele>
        <time>2015-07-06T14:19:16Z</time>
      </trkpt>
      <trkpt lat="46.34107" lon="4.59502">
        <ele>560</ele>
        <time>2015-07-06T14:19:20Z</time>
      </trkpt>
      <trkpt lat="46.34104" lon="4.59501">
        <ele>559</ele>
        <time>2015-07-06T14:19:32Z</time>
      </trkpt>
      <trkpt lat="46.34102" lon="4.59503">
        <ele>557</ele>
        <time>2015-07-06T14:21:38Z</time>
      </trkpt>
      <trkpt lat="46.34101" lon="4.59502">
        <ele>561</ele>
        <time>2015-07-06T14:27:41Z</time>
      </trkpt>
      <trkpt lat="46.34095" lon="4.59503">
        <ele>565</ele>
        <time>2015-07-06T14:35:40Z</time>
      </trkpt>
      <trkpt lat="46.34086" lon="4.59501">
        <ele>567</ele>
        <time>2015-07-06T14:35:51Z</time>
      </trkpt>
      <trkpt lat="46.34075" lon="4.59499">
        <ele>568</ele>
        <time>2015-07-06T14:36:16Z</time>
      </trkpt>
      <trkpt lat="46.3405" lon="4.59498">
        <ele>568</ele>
        <time>2015-07-06T14:36:38Z</time>
      </trkpt>
      <trkpt lat="46.34045" lon="4.59498">
        <ele>568</ele>
        <time>2015-07-06T14:36:42Z</time>
      </trkpt>
      <trkpt lat="46.34015" lon="4.595">
        <ele>560</ele>
        <time>2015-07-06T14:37:08Z</time>
      </trkpt>
      <trkpt lat="46.34005" lon="4.595">
        <ele>568</ele>
        <time>2015-07-06T14:37:19Z</time>
      </trkpt>
      <trkpt lat="46.34" lon="4.59497">
        <ele>567</ele>
        <time>2015-07-06T14:37:23Z</time>
      </trkpt>
      <trkpt lat="46.33987" lon="4.59496">
        <ele>566</ele>
        <time>2015-07-06T14:37:32Z</time>
      </trkpt>
      <trkpt lat="46.3396" lon="4.59492">
        <ele>561</ele>
        <time>2015-07-06T14:37:55Z</time>
      </trkpt>
      <trkpt lat="46.33949" lon="4.59498">
        <ele>560</ele>
        <time>2015-07-06T14:38:05Z</time>
      </trkpt>
      <trkpt lat="46.33929" lon="4.59501">
        <ele>559</ele>
        <time>2015-07-06T14:38:20Z</time>
      </trkpt>
      <trkpt lat="46.33924" lon="4.59499">
        <ele>559</ele>
        <time>2015-07-06T14:38:24Z</time>
      </trkpt>
      <trkpt lat="46.3392" lon="4.59495">
        <ele>558</ele>
        <time>2015-07-06T14:38:28Z</time>
      </trkpt>
      <trkpt lat="46.33904" lon="4.59497">
        <ele>558</ele>
        <time>2015-07-06T14:38:40Z</time>
      </trkpt>
      <trkpt lat="46.33893" lon="4.59486">
        <ele>558</ele>
        <time>2015-07-06T14:38:46Z</time>
      </trkpt>
      <trkpt lat="46.33891" lon="4.59481">
        <ele>557</ele>
        <time>2015-07-06T14:38:53Z</time>
      </trkpt>
      <trkpt lat="46.33886" lon="4.59485">
        <ele>556</ele>
        <time>2015-07-06T14:38:56Z</time>
      </trkpt>
      <trkpt lat="46.33878" lon="4.59485">
        <ele>555</ele>
        <time>2015-07-06T14:39:00Z</time>
      </trkpt>
      <trkpt lat="46.33868" lon="4.59484">
        <ele>555</ele>
        <time>2015-07-06T14:39:09Z</time>
      </trkpt>
      <trkpt lat="46.33862" lon="4.59484">
        <ele>555</ele>
        <time>2015-07-06T14:39:13Z</time>
      </trkpt>
      <trkpt lat="46.33857" lon="4.59483">
        <ele>556</ele>
        <time>2015-07-06T14:39:17Z</time>
      </trkpt>
      <trkpt lat="46.33847" lon="4.5948">
        <ele>556</ele>
        <time>2015-07-06T14:39:25Z</time>
      </trkpt>
      <trkpt lat="46.33841" lon="4.59476">
        <ele>556</ele>
        <time>2015-07-06T14:39:41Z</time>
      </trkpt>
      <trkpt lat="46.3383" lon="4.59475">
        <ele>556</ele>
        <time>2015-07-06T14:40:20Z</time>
      </trkpt>
      <trkpt lat="46.33821" lon="4.59471">
        <ele>558</ele>
        <time>2015-07-06T14:40:32Z</time>
      </trkpt>
      <trkpt lat="46.33801" lon="4.59467">
        <ele>559</ele>
        <time>2015-07-06T14:40:47Z</time>
      </trkpt>
      <trkpt lat="46.33792" lon="4.59462">
        <ele>559</ele>
        <time>2015-07-06T14:41:00Z</time>
      </trkpt>
      <trkpt lat="46.33783" lon="4.59458">
        <ele>560</ele>
        <time>2015-07-06T14:41:09Z</time>
      </trkpt>
      <trkpt lat="46.33773" lon="4.59456">
        <ele>560</ele>
        <time>2015-07-06T14:41:17Z</time>
      </trkpt>
      <trkpt lat="46.33763" lon="4.59453">
        <ele>561</ele>
        <time>2015-07-06T14:41:25Z</time>
      </trkpt>
      <trkpt lat="46.33724" lon="4.59459">
        <ele>564</ele>
        <time>2015-07-06T14:41:58Z</time>
      </trkpt>
      <trkpt lat="46.33715" lon="4.59464">
        <ele>564</ele>
        <time>2015-07-06T14:42:06Z</time>
      </trkpt>
      <trkpt lat="46.33705" lon="4.59468">
        <ele>564</ele>
        <time>2015-07-06T14:42:13Z</time>
      </trkpt>
      <trkpt lat="46.33687" lon="4.59466">
        <ele>564</ele>
        <time>2015-07-06T14:42:30Z</time>
      </trkpt>
      <trkpt lat="46.33648" lon="4.59476">
        <ele>558</ele>
        <time>2015-07-06T14:43:06Z</time>
      </trkpt>
      <trkpt lat="46.3363" lon="4.59474">
        <ele>557</ele>
        <time>2015-07-06T14:43:25Z</time>
      </trkpt>
      <trkpt lat="46.3361" lon="4.59475">
        <ele>558</ele>
        <time>2015-07-06T14:43:46Z</time>
      </trkpt>
      <trkpt lat="46.33582" lon="4.59483">
        <ele>561</ele>
        <time>2015-07-06T14:44:10Z</time>
      </trkpt>
      <trkpt lat="46.33573" lon="4.59481">
        <ele>561</ele>
        <time>2015-07-06T14:44:16Z</time>
      </trkpt>
      <trkpt lat="46.33564" lon="4.59478">
        <ele>561</ele>
        <time>2015-07-06T14:44:24Z</time>
      </trkpt>
      <trkpt lat="46.33545" lon="4.59467">
        <ele>559</ele>
        <time>2015-07-06T14:44:41Z</time>
      </trkpt>
      <trkpt lat="46.33537" lon="4.5946">
        <ele>562</ele>
        <time>2015-07-06T14:44:49Z</time>
      </trkpt>
      <trkpt lat="46.33529" lon="4.59455">
        <ele>560</ele>
        <time>2015-07-06T14:44:58Z</time>
      </trkpt>
      <trkpt lat="46.33519" lon="4.59454">
        <ele>559</ele>
        <time>2015-07-06T14:45:07Z</time>
      </trkpt>
      <trkpt lat="46.33482" lon="4.59427">
        <ele>558</ele>
        <time>2015-07-06T14:45:38Z</time>
      </trkpt>
      <trkpt lat="46.33478" lon="4.59423">
        <ele>558</ele>
        <time>2015-07-06T14:45:42Z</time>
      </trkpt>
      <trkpt lat="46.33458" lon="4.59417">
        <ele>555</ele>
        <time>2015-07-06T14:46:00Z</time>
      </trkpt>
      <trkpt lat="46.33452" lon="4.59417">
        <ele>555</ele>
        <time>2015-07-06T14:46:06Z</time>
      </trkpt>
      <trkpt lat="46.33443" lon="4.59413">
        <ele>555</ele>
        <time>2015-07-06T14:46:13Z</time>
      </trkpt>
      <trkpt lat="46.33437" lon="4.59412">
        <ele>556</ele>
        <time>2015-07-06T14:46:17Z</time>
      </trkpt>
      <trkpt lat="46.33434" lon="4.59411">
        <ele>556</ele>
        <time>2015-07-06T14:46:19Z</time>
      </trkpt>
      <trkpt lat="46.33428" lon="4.59412">
        <ele>556</ele>
        <time>2015-07-06T14:46:23Z</time>
      </trkpt>
      <trkpt lat="46.33426" lon="4.59407">
        <ele>556</ele>
        <time>2015-07-06T14:46:36Z</time>
      </trkpt>
      <trkpt lat="46.33423" lon="4.59402">
        <ele>562</ele>
        <time>2015-07-06T14:47:07Z</time>
      </trkpt>
      <trkpt lat="46.33408" lon="4.5939">
        <ele>566</ele>
        <time>2015-07-06T14:47:19Z</time>
      </trkpt>
      <trkpt lat="46.33399" lon="4.59383">
        <ele>562</ele>
        <time>2015-07-06T14:47:27Z</time>
      </trkpt>
      <trkpt lat="46.33383" lon="4.5937">
        <ele>564</ele>
        <time>2015-07-06T14:47:45Z</time>
      </trkpt>
      <trkpt lat="46.33368" lon="4.5935">
        <ele>563</ele>
        <time>2015-07-06T14:48:03Z</time>
      </trkpt>
      <trkpt lat="46.33363" lon="4.59347">
        <ele>563</ele>
        <time>2015-07-06T14:48:08Z</time>
      </trkpt>
      <trkpt lat="46.33343" lon="4.59336">
        <ele>561</ele>
        <time>2015-07-06T14:48:25Z</time>
      </trkpt>
      <trkpt lat="46.33333" lon="4.59333">
        <ele>564</ele>
        <time>2015-07-06T14:48:33Z</time>
      </trkpt>
      <trkpt lat="46.33328" lon="4.59331">
        <ele>563</ele>
        <time>2015-07-06T14:48:37Z</time>
      </trkpt>
      <trkpt lat="46.33315" lon="4.59319">
        <ele>561</ele>
        <time>2015-07-06T14:48:52Z</time>
      </trkpt>
      <trkpt lat="46.33311" lon="4.59314">
        <ele>557</ele>
        <time>2015-07-06T14:48:56Z</time>
      </trkpt>
      <trkpt lat="46.33308" lon="4.59309">
        <ele>557</ele>
        <time>2015-07-06T14:49:00Z</time>
      </trkpt>
      <trkpt lat="46.33298" lon="4.59294">
        <ele>561</ele>
        <time>2015-07-06T14:49:13Z</time>
      </trkpt>
      <trkpt lat="46.33277" lon="4.5925">
        <ele>556</ele>
        <time>2015-07-06T14:49:45Z</time>
      </trkpt>
      <trkpt lat="46.33264" lon="4.5924">
        <ele>555</ele>
        <time>2015-07-06T14:50:03Z</time>
      </trkpt>
      <trkpt lat="46.33259" lon="4.59239">
        <ele>555</ele>
        <time>2015-07-06T14:50:09Z</time>
      </trkpt>
      <trkpt lat="46.33255" lon="4.59241">
        <ele>554</ele>
        <time>2015-07-06T14:50:16Z</time>
      </trkpt>
      <trkpt lat="46.3325" lon="4.59239">
        <ele>556</ele>
        <time>2015-07-06T14:50:34Z</time>
      </trkpt>
      <trkpt lat="46.3324" lon="4.59239">
        <ele>556</ele>
        <time>2015-07-06T14:50:42Z</time>
      </trkpt>
      <trkpt lat="46.33224" lon="4.5924">
        <ele>555</ele>
        <time>2015-07-06T14:50:58Z</time>
      </trkpt>
      <trkpt lat="46.33214" lon="4.59243">
        <ele>557</ele>
        <time>2015-07-06T14:51:05Z</time>
      </trkpt>
      <trkpt lat="46.3321" lon="4.59238">
        <ele>557</ele>
        <time>2015-07-06T14:51:09Z</time>
      </trkpt>
      <trkpt lat="46.33205" lon="4.59232">
        <ele>557</ele>
        <time>2015-07-06T14:51:14Z</time>
      </trkpt>
      <trkpt lat="46.3319" lon="4.59229">
        <ele>557</ele>
        <time>2015-07-06T14:51:24Z</time>
      </trkpt>
      <trkpt lat="46.33185" lon="4.59231">
        <ele>556</ele>
        <time>2015-07-06T14:51:30Z</time>
      </trkpt>
      <trkpt lat="46.3318" lon="4.59228">
        <ele>557</ele>
        <time>2015-07-06T14:51:34Z</time>
      </trkpt>
      <trkpt lat="46.33171" lon="4.59231">
        <ele>559</ele>
        <time>2015-07-06T14:51:43Z</time>
      </trkpt>
      <trkpt lat="46.33166" lon="4.5923">
        <ele>560</ele>
        <time>2015-07-06T14:51:46Z</time>
      </trkpt>
      <trkpt lat="46.33162" lon="4.59234">
        <ele>561</ele>
        <time>2015-07-06T14:51:50Z</time>
      </trkpt>
      <trkpt lat="46.33152" lon="4.5924">
        <ele>561</ele>
        <time>2015-07-06T14:51:57Z</time>
      </trkpt>
      <trkpt lat="46.33148" lon="4.5924">
        <ele>562</ele>
        <time>2015-07-06T14:52:05Z</time>
      </trkpt>
      <trkpt lat="46.33145" lon="4.59245">
        <ele>561</ele>
        <time>2015-07-06T14:52:12Z</time>
      </trkpt>
      <trkpt lat="46.3314" lon="4.59247">
        <ele>561</ele>
        <time>2015-07-06T14:52:17Z</time>
      </trkpt>
      <trkpt lat="46.33136" lon="4.59249">
        <ele>561</ele>
        <time>2015-07-06T14:52:21Z</time>
      </trkpt>
      <trkpt lat="46.33131" lon="4.59251">
        <ele>561</ele>
        <time>2015-07-06T14:52:25Z</time>
      </trkpt>
      <trkpt lat="46.33126" lon="4.59253">
        <ele>563</ele>
        <time>2015-07-06T14:52:30Z</time>
      </trkpt>
      <trkpt lat="46.33121" lon="4.59244">
        <ele>565</ele>
        <time>2015-07-06T14:52:37Z</time>
      </trkpt>
      <trkpt lat="46.33118" lon="4.59243">
        <ele>564</ele>
        <time>2015-07-06T14:52:41Z</time>
      </trkpt>
      <trkpt lat="46.33113" lon="4.59248">
        <ele>564</ele>
        <time>2015-07-06T14:52:46Z</time>
      </trkpt>
      <trkpt lat="46.33108" lon="4.59246">
        <ele>564</ele>
        <time>2015-07-06T14:52:49Z</time>
      </trkpt>
      <trkpt lat="46.33089" lon="4.59239">
        <ele>566</ele>
        <time>2015-07-06T14:53:06Z</time>
      </trkpt>
      <trkpt lat="46.33084" lon="4.59236">
        <ele>566</ele>
        <time>2015-07-06T14:53:11Z</time>
      </trkpt>
      <trkpt lat="46.3308" lon="4.59233">
        <ele>566</ele>
        <time>2015-07-06T14:53:15Z</time>
      </trkpt>
      <trkpt lat="46.3305" lon="4.5921">
        <ele>562</ele>
        <time>2015-07-06T14:53:46Z</time>
      </trkpt>
      <trkpt lat="46.33027" lon="4.592">
        <ele>559</ele>
        <time>2015-07-06T14:54:06Z</time>
      </trkpt>
      <trkpt lat="46.33022" lon="4.592">
        <ele>559</ele>
        <time>2015-07-06T14:54:10Z</time>
      </trkpt>
      <trkpt lat="46.33006" lon="4.59198">
        <ele>560</ele>
        <time>2015-07-06T14:54:22Z</time>
      </trkpt>
      <trkpt lat="46.32991" lon="4.59202">
        <ele>559</ele>
        <time>2015-07-06T14:54:35Z</time>
      </trkpt>
      <trkpt lat="46.32982" lon="4.59208">
        <ele>559</ele>
        <time>2015-07-06T14:54:44Z</time>
      </trkpt>
      <trkpt lat="46.32977" lon="4.5921">
        <ele>559</ele>
        <time>2015-07-06T14:54:49Z</time>
      </trkpt>
      <trkpt lat="46.32972" lon="4.59211">
        <ele>559</ele>
        <time>2015-07-06T14:54:54Z</time>
      </trkpt>
      <trkpt lat="46.32967" lon="4.59214">
        <ele>559</ele>
        <time>2015-07-06T14:54:59Z</time>
      </trkpt>
      <trkpt lat="46.32952" lon="4.59214">
        <ele>562</ele>
        <time>2015-07-06T14:55:14Z</time>
      </trkpt>
      <trkpt lat="46.32934" lon="4.59205">
        <ele>562</ele>
        <time>2015-07-06T14:55:31Z</time>
      </trkpt>
      <trkpt lat="46.32903" lon="4.59182">
        <ele>558</ele>
        <time>2015-07-06T14:56:03Z</time>
      </trkpt>
      <trkpt lat="46.32897" lon="4.59174">
        <ele>559</ele>
        <time>2015-07-06T14:56:14Z</time>
      </trkpt>
      <trkpt lat="46.32896" lon="4.59168">
        <ele>559</ele>
        <time>2015-07-06T14:56:24Z</time>
      </trkpt>
      <trkpt lat="46.32893" lon="4.59161">
        <ele>559</ele>
        <time>2015-07-06T14:56:29Z</time>
      </trkpt>
      <trkpt lat="46.32886" lon="4.59149">
        <ele>557</ele>
        <time>2015-07-06T14:56:39Z</time>
      </trkpt>
      <trkpt lat="46.32881" lon="4.59147">
        <ele>557</ele>
        <time>2015-07-06T14:56:44Z</time>
      </trkpt>
      <trkpt lat="46.32876" lon="4.59147">
        <ele>558</ele>
        <time>2015-07-06T14:56:48Z</time>
      </trkpt>
      <trkpt lat="46.32861" lon="4.59148">
        <ele>557</ele>
        <time>2015-07-06T14:57:02Z</time>
      </trkpt>
      <trkpt lat="46.32857" lon="4.59147">
        <ele>557</ele>
        <time>2015-07-06T14:57:08Z</time>
      </trkpt>
      <trkpt lat="46.3282" lon="4.59139">
        <ele>554</ele>
        <time>2015-07-06T14:57:40Z</time>
      </trkpt>
      <trkpt lat="46.32805" lon="4.59143">
        <ele>553</ele>
        <time>2015-07-06T14:57:54Z</time>
      </trkpt>
      <trkpt lat="46.32792" lon="4.59145">
        <ele>554</ele>
        <time>2015-07-06T14:58:04Z</time>
      </trkpt>
      <trkpt lat="46.32781" lon="4.5915">
        <ele>553</ele>
        <time>2015-07-06T14:58:14Z</time>
      </trkpt>
      <trkpt lat="46.32776" lon="4.59148">
        <ele>553</ele>
        <time>2015-07-06T14:58:19Z</time>
      </trkpt>
      <trkpt lat="46.32759" lon="4.59153">
        <ele>551</ele>
        <time>2015-07-06T14:58:33Z</time>
      </trkpt>
      <trkpt lat="46.32724" lon="4.59169">
        <ele>555</ele>
        <time>2015-07-06T14:59:04Z</time>
      </trkpt>
      <trkpt lat="46.32714" lon="4.59171">
        <ele>555</ele>
        <time>2015-07-06T14:59:13Z</time>
      </trkpt>
      <trkpt lat="46.32704" lon="4.59174">
        <ele>556</ele>
        <time>2015-07-06T14:59:21Z</time>
      </trkpt>
      <trkpt lat="46.32665" lon="4.59184">
        <ele>554</ele>
        <time>2015-07-06T14:59:55Z</time>
      </trkpt>
      <trkpt lat="46.3263" lon="4.59186">
        <ele>550</ele>
        <time>2015-07-06T15:00:27Z</time>
      </trkpt>
      <trkpt lat="46.32597" lon="4.59181">
        <ele>548</ele>
        <time>2015-07-06T15:00:55Z</time>
      </trkpt>
      <trkpt lat="46.32564" lon="4.59166">
        <ele>549</ele>
        <time>2015-07-06T15:01:33Z</time>
      </trkpt>
      <trkpt lat="46.32545" lon="4.59159">
        <ele>555</ele>
        <time>2015-07-06T15:01:49Z</time>
      </trkpt>
      <trkpt lat="46.32519" lon="4.59158">
        <ele>548</ele>
        <time>2015-07-06T15:02:12Z</time>
      </trkpt>
      <trkpt lat="46.32514" lon="4.59161">
        <ele>548</ele>
        <time>2015-07-06T15:02:17Z</time>
      </trkpt>
      <trkpt lat="46.32512" lon="4.5916">
        <ele>551</ele>
        <time>2015-07-06T15:02:39Z</time>
      </trkpt>
      <trkpt lat="46.32501" lon="4.59164">
        <ele>552</ele>
        <time>2015-07-06T15:02:50Z</time>
      </trkpt>
      <trkpt lat="46.32496" lon="4.59163">
        <ele>552</ele>
        <time>2015-07-06T15:02:54Z</time>
      </trkpt>
      <trkpt lat="46.32491" lon="4.59167">
        <ele>552</ele>
        <time>2015-07-06T15:03:00Z</time>
      </trkpt>
      <trkpt lat="46.32472" lon="4.59162">
        <ele>547</ele>
        <time>2015-07-06T15:03:20Z</time>
      </trkpt>
      <trkpt lat="46.32469" lon="4.59166">
        <ele>551</ele>
        <time>2015-07-06T15:03:54Z</time>
      </trkpt>
      <trkpt lat="46.32464" lon="4.59168">
        <ele>552</ele>
        <time>2015-07-06T15:03:57Z</time>
      </trkpt>
      <trkpt lat="46.32459" lon="4.59169">
        <ele>552</ele>
        <time>2015-07-06T15:04:00Z</time>
      </trkpt>
      <trkpt lat="46.32454" lon="4.59169">
        <ele>551</ele>
        <time>2015-07-06T15:04:04Z</time>
      </trkpt>
      <trkpt lat="46.32421" lon="4.59158">
        <ele>541</ele>
        <time>2015-07-06T15:04:34Z</time>
      </trkpt>
      <trkpt lat="46.32406" lon="4.59153">
        <ele>537</ele>
        <time>2015-07-06T15:04:49Z</time>
      </trkpt>
      <trkpt lat="46.32397" lon="4.59158">
        <ele>538</ele>
        <time>2015-07-06T15:04:59Z</time>
      </trkpt>
      <trkpt lat="46.32393" lon="4.59162">
        <ele>538</ele>
        <time>2015-07-06T15:05:03Z</time>
      </trkpt>
      <trkpt lat="46.32388" lon="4.59166">
        <ele>538</ele>
        <time>2015-07-06T15:05:08Z</time>
      </trkpt>
      <trkpt lat="46.32384" lon="4.59171">
        <ele>538</ele>
        <time>2015-07-06T15:05:13Z</time>
      </trkpt>
      <trkpt lat="46.32374" lon="4.59179">
        <ele>538</ele>
        <time>2015-07-06T15:05:21Z</time>
      </trkpt>
      <trkpt lat="46.3237" lon="4.59181">
        <ele>538</ele>
        <time>2015-07-06T15:05:25Z</time>
      </trkpt>
      <trkpt lat="46.32355" lon="4.59186">
        <ele>538</ele>
        <time>2015-07-06T15:05:38Z</time>
      </trkpt>
      <trkpt lat="46.32346" lon="4.5919">
        <ele>536</ele>
        <time>2015-07-06T15:05:48Z</time>
      </trkpt>
      <trkpt lat="46.32345" lon="4.59194">
        <ele>535</ele>
        <time>2015-07-06T15:05:59Z</time>
      </trkpt>
      <trkpt lat="46.32337" lon="4.59204">
        <ele>535</ele>
        <time>2015-07-06T15:06:05Z</time>
      </trkpt>
      <trkpt lat="46.32331" lon="4.59215">
        <ele>536</ele>
        <time>2015-07-06T15:06:12Z</time>
      </trkpt>
      <trkpt lat="46.32319" lon="4.59258">
        <ele>543</ele>
        <time>2015-07-06T15:06:36Z</time>
      </trkpt>
      <trkpt lat="46.32314" lon="4.59262">
        <ele>543</ele>
        <time>2015-07-06T15:06:39Z</time>
      </trkpt>
      <trkpt lat="46.32311" lon="4.59266">
        <ele>543</ele>
        <time>2015-07-06T15:06:42Z</time>
      </trkpt>
      <trkpt lat="46.32306" lon="4.59272">
        <ele>543</ele>
        <time>2015-07-06T15:06:45Z</time>
      </trkpt>
      <trkpt lat="46.32296" lon="4.59289">
        <ele>544</ele>
        <time>2015-07-06T15:06:56Z</time>
      </trkpt>
      <trkpt lat="46.32279" lon="4.59303">
        <ele>543</ele>
        <time>2015-07-06T15:07:13Z</time>
      </trkpt>
      <trkpt lat="46.32242" lon="4.59314">
        <ele>532</ele>
        <time>2015-07-06T15:07:47Z</time>
      </trkpt>
      <trkpt lat="46.32237" lon="4.59314">
        <ele>531</ele>
        <time>2015-07-06T15:07:51Z</time>
      </trkpt>
      <trkpt lat="46.32227" lon="4.59316">
        <ele>532</ele>
        <time>2015-07-06T15:07:59Z</time>
      </trkpt>
      <trkpt lat="46.32216" lon="4.5932">
        <ele>537</ele>
        <time>2015-07-06T15:08:07Z</time>
      </trkpt>
      <trkpt lat="46.32211" lon="4.59321">
        <ele>538</ele>
        <time>2015-07-06T15:08:11Z</time>
      </trkpt>
      <trkpt lat="46.32196" lon="4.59324">
        <ele>537</ele>
        <time>2015-07-06T15:08:25Z</time>
      </trkpt>
      <trkpt lat="46.32194" lon="4.59324">
        <ele>535</ele>
        <time>2015-07-06T15:10:03Z</time>
      </trkpt>
      <trkpt lat="46.32189" lon="4.59325">
        <ele>534</ele>
        <time>2015-07-06T15:10:45Z</time>
      </trkpt>
      <trkpt lat="46.32183" lon="4.59325">
        <ele>534</ele>
        <time>2015-07-06T15:10:51Z</time>
      </trkpt>
      <trkpt lat="46.32147" lon="4.59362">
        <ele>532</ele>
        <time>2015-07-06T15:11:23Z</time>
      </trkpt>
      <trkpt lat="46.32136" lon="4.59385">
        <ele>531</ele>
        <time>2015-07-06T15:11:42Z</time>
      </trkpt>
      <trkpt lat="46.32133" lon="4.59391">
        <ele>531</ele>
        <time>2015-07-06T15:11:46Z</time>
      </trkpt>
      <trkpt lat="46.32128" lon="4.59412">
        <ele>531</ele>
        <time>2015-07-06T15:11:58Z</time>
      </trkpt>
      <trkpt lat="46.32126" lon="4.59419">
        <ele>530</ele>
        <time>2015-07-06T15:12:02Z</time>
      </trkpt>
      <trkpt lat="46.32123" lon="4.59426">
        <ele>530</ele>
        <time>2015-07-06T15:12:05Z</time>
      </trkpt>
      <trkpt lat="46.32121" lon="4.59432">
        <ele>529</ele>
        <time>2015-07-06T15:12:13Z</time>
      </trkpt>
      <trkpt lat="46.32117" lon="4.59452">
        <ele>529</ele>
        <time>2015-07-06T15:12:25Z</time>
      </trkpt>
      <trkpt lat="46.32098" lon="4.59487">
        <ele>524</ele>
        <time>2015-07-06T15:12:49Z</time>
      </trkpt>
      <trkpt lat="46.32096" lon="4.59493">
        <ele>525</ele>
        <time>2015-07-06T15:12:53Z</time>
      </trkpt>
      <trkpt lat="46.32083" lon="4.5955">
        <ele>520</ele>
        <time>2015-07-06T15:13:25Z</time>
      </trkpt>
      <trkpt lat="46.32067" lon="4.59604">
        <ele>515</ele>
        <time>2015-07-06T15:13:55Z</time>
      </trkpt>
      <trkpt lat="46.32064" lon="4.59617">
        <ele>513</ele>
        <time>2015-07-06T15:14:04Z</time>
      </trkpt>
      <trkpt lat="46.32062" lon="4.59628">
        <ele>513</ele>
        <time>2015-07-06T15:14:11Z</time>
      </trkpt>
      <trkpt lat="46.32061" lon="4.59636">
        <ele>512</ele>
        <time>2015-07-06T15:14:15Z</time>
      </trkpt>
      <trkpt lat="46.32055" lon="4.59647">
        <ele>510</ele>
        <time>2015-07-06T15:14:26Z</time>
      </trkpt>
      <trkpt lat="46.32051" lon="4.59655">
        <ele>511</ele>
        <time>2015-07-06T15:14:50Z</time>
      </trkpt>
      <trkpt lat="46.3205" lon="4.59662">
        <ele>510</ele>
        <time>2015-07-06T15:14:55Z</time>
      </trkpt>
      <trkpt lat="46.3205" lon="4.59711">
        <ele>504</ele>
        <time>2015-07-06T15:15:28Z</time>
      </trkpt>
      <trkpt lat="46.32044" lon="4.59767">
        <ele>496</ele>
        <time>2015-07-06T15:16:05Z</time>
      </trkpt>
      <trkpt lat="46.32029" lon="4.59814">
        <ele>492</ele>
        <time>2015-07-06T15:16:37Z</time>
      </trkpt>
      <trkpt lat="46.32024" lon="4.5983">
        <ele>489</ele>
        <time>2015-07-06T15:16:47Z</time>
      </trkpt>
      <trkpt lat="46.32011" lon="4.59841">
        <ele>487</ele>
        <time>2015-07-06T15:17:01Z</time>
      </trkpt>
      <trkpt lat="46.32007" lon="4.59846">
        <ele>487</ele>
        <time>2015-07-06T15:17:05Z</time>
      </trkpt>
      <trkpt lat="46.31984" lon="4.59877">
        <ele>483</ele>
        <time>2015-07-06T15:17:28Z</time>
      </trkpt>
      <trkpt lat="46.31978" lon="4.59887">
        <ele>482</ele>
        <time>2015-07-06T15:17:36Z</time>
      </trkpt>
      <trkpt lat="46.31971" lon="4.59896">
        <ele>483</ele>
        <time>2015-07-06T15:17:45Z</time>
      </trkpt>
      <trkpt lat="46.31968" lon="4.59901">
        <ele>483</ele>
        <time>2015-07-06T15:17:48Z</time>
      </trkpt>
      <trkpt lat="46.31951" lon="4.59954">
        <ele>487</ele>
        <time>2015-07-06T15:18:22Z</time>
      </trkpt>
      <trkpt lat="46.31939" lon="4.59979">
        <ele>487</ele>
        <time>2015-07-06T15:18:40Z</time>
      </trkpt>
      <trkpt lat="46.31922" lon="4.59986">
        <ele>487</ele>
        <time>2015-07-06T15:19:11Z</time>
      </trkpt>
      <trkpt lat="46.31919" lon="4.59987">
        <ele>487</ele>
        <time>2015-07-06T15:19:17Z</time>
      </trkpt>
      <trkpt lat="46.319" lon="4.5999">
        <ele>487</ele>
        <time>2015-07-06T15:19:39Z</time>
      </trkpt>
      <trkpt lat="46.3189" lon="4.59991">
        <ele>487</ele>
        <time>2015-07-06T15:19:54Z</time>
      </trkpt>
      <trkpt lat="46.31887" lon="4.59993">
        <ele>487</ele>
        <time>2015-07-06T15:20:01Z</time>
      </trkpt>
      <trkpt lat="46.31878" lon="4.59997">
        <ele>488</ele>
        <time>2015-07-06T15:20:27Z</time>
      </trkpt>
      <trkpt lat="46.31858" lon="4.60002">
        <ele>486</ele>
        <time>2015-07-06T15:20:48Z</time>
      </trkpt>
      <trkpt lat="46.31852" lon="4.60005">
        <ele>486</ele>
        <time>2015-07-06T15:20:54Z</time>
      </trkpt>
      <trkpt lat="46.31845" lon="4.60007">
        <ele>484</ele>
        <time>2015-07-06T15:21:05Z</time>
      </trkpt>
      <trkpt lat="46.31841" lon="4.60008">
        <ele>485</ele>
        <time>2015-07-06T15:21:12Z</time>
      </trkpt>
      <trkpt lat="46.31836" lon="4.60008">
        <ele>484</ele>
        <time>2015-07-06T15:21:22Z</time>
      </trkpt>
      <trkpt lat="46.31823" lon="4.60017">
        <ele>480</ele>
        <time>2015-07-06T15:21:46Z</time>
      </trkpt>
      <trkpt lat="46.31819" lon="4.60021">
        <ele>480</ele>
        <time>2015-07-06T15:21:51Z</time>
      </trkpt>
      <trkpt lat="46.31806" lon="4.60031">
        <ele>478</ele>
        <time>2015-07-06T15:22:08Z</time>
      </trkpt>
      <trkpt lat="46.31802" lon="4.60035">
        <ele>478</ele>
        <time>2015-07-06T15:22:13Z</time>
      </trkpt>
      <trkpt lat="46.31794" lon="4.60042">
        <ele>479</ele>
        <time>2015-07-06T15:22:40Z</time>
      </trkpt>
      <trkpt lat="46.3179" lon="4.60047">
        <ele>478</ele>
        <time>2015-07-06T15:22:45Z</time>
      </trkpt>
      <trkpt lat="46.31787" lon="4.60052">
        <ele>478</ele>
        <time>2015-07-06T15:22:50Z</time>
      </trkpt>
      <trkpt lat="46.31785" lon="4.60055">
        <ele>477</ele>
        <time>2015-07-06T15:22:57Z</time>
      </trkpt>
      <trkpt lat="46.31782" lon="4.60061">
        <ele>478</ele>
        <time>2015-07-06T15:23:05Z</time>
      </trkpt>
      <trkpt lat="46.31776" lon="4.60073">
        <ele>476</ele>
        <time>2015-07-06T15:23:14Z</time>
      </trkpt>
      <trkpt lat="46.31775" lon="4.6008">
        <ele>476</ele>
        <time>2015-07-06T15:23:18Z</time>
      </trkpt>
      <trkpt lat="46.31778" lon="4.60085">
        <ele>475</ele>
        <time>2015-07-06T15:23:22Z</time>
      </trkpt>
      <trkpt lat="46.31782" lon="4.60087">
        <ele>474</ele>
        <time>2015-07-06T15:23:27Z</time>
      </trkpt>
      <trkpt lat="46.31786" lon="4.60093">
        <ele>474</ele>
        <time>2015-07-06T15:23:33Z</time>
      </trkpt>
      <trkpt lat="46.31806" lon="4.60113">
        <ele>470</ele>
        <time>2015-07-06T15:23:58Z</time>
      </trkpt>
      <trkpt lat="46.31805" lon="4.6012">
        <ele>469</ele>
        <time>2015-07-06T15:24:03Z</time>
      </trkpt>
      <trkpt lat="46.318" lon="4.60123">
        <ele>469</ele>
        <time>2015-07-06T15:24:09Z</time>
      </trkpt>
      <trkpt lat="46.31791" lon="4.60125">
        <ele>468</ele>
        <time>2015-07-06T15:24:17Z</time>
      </trkpt>
      <trkpt lat="46.31776" lon="4.60127">
        <ele>467</ele>
        <time>2015-07-06T15:24:29Z</time>
      </trkpt>
      <trkpt lat="46.31767" lon="4.6013">
        <ele>467</ele>
        <time>2015-07-06T15:24:37Z</time>
      </trkpt>
      <trkpt lat="46.31732" lon="4.60136">
        <ele>466</ele>
        <time>2015-07-06T15:25:07Z</time>
      </trkpt>
      <trkpt lat="46.31717" lon="4.60134">
        <ele>465</ele>
        <time>2015-07-06T15:25:20Z</time>
      </trkpt>
      <trkpt lat="46.31709" lon="4.60127">
        <ele>463</ele>
        <time>2015-07-06T15:25:29Z</time>
      </trkpt>
      <trkpt lat="46.31706" lon="4.6012">
        <ele>463</ele>
        <time>2015-07-06T15:25:33Z</time>
      </trkpt>
      <trkpt lat="46.31703" lon="4.60113">
        <ele>463</ele>
        <time>2015-07-06T15:25:37Z</time>
      </trkpt>
      <trkpt lat="46.31702" lon="4.60098">
        <ele>463</ele>
        <time>2015-07-06T15:25:45Z</time>
      </trkpt>
      <trkpt lat="46.31699" lon="4.60044">
        <ele>462</ele>
        <time>2015-07-06T15:26:15Z</time>
      </trkpt>
      <trkpt lat="46.31699" lon="4.60036">
        <ele>461</ele>
        <time>2015-07-06T15:26:20Z</time>
      </trkpt>
      <trkpt lat="46.31699" lon="4.60029">
        <ele>461</ele>
        <time>2015-07-06T15:26:24Z</time>
      </trkpt>
      <trkpt lat="46.31698" lon="4.60021">
        <ele>462</ele>
        <time>2015-07-06T15:26:28Z</time>
      </trkpt>
      <trkpt lat="46.31697" lon="4.60007">
        <ele>461</ele>
        <time>2015-07-06T15:26:36Z</time>
      </trkpt>
      <trkpt lat="46.31697" lon="4.6">
        <ele>461</ele>
        <time>2015-07-06T15:26:40Z</time>
      </trkpt>
      <trkpt lat="46.31698" lon="4.59985">
        <ele>461</ele>
        <time>2015-07-06T15:26:48Z</time>
      </trkpt>
      <trkpt lat="46.31694" lon="4.59973">
        <ele>461</ele>
        <time>2015-07-06T15:26:56Z</time>
      </trkpt>
      <trkpt lat="46.31687" lon="4.5996">
        <ele>460</ele>
        <time>2015-07-06T15:27:04Z</time>
      </trkpt>
      <trkpt lat="46.31678" lon="4.59956">
        <ele>460</ele>
        <time>2015-07-06T15:27:12Z</time>
      </trkpt>
      <trkpt lat="46.31673" lon="4.59955">
        <ele>460</ele>
        <time>2015-07-06T15:27:17Z</time>
      </trkpt>
      <trkpt lat="46.31669" lon="4.59961">
        <ele>460</ele>
        <time>2015-07-06T15:27:22Z</time>
      </trkpt>
      <trkpt lat="46.31666" lon="4.59966">
        <ele>460</ele>
        <time>2015-07-06T15:27:26Z</time>
      </trkpt>
      <trkpt lat="46.31642" lon="4.59998">
        <ele>459</ele>
        <time>2015-07-06T15:27:57Z</time>
      </trkpt>
      <trkpt lat="46.3164" lon="4.60004">
        <ele>459</ele>
        <time>2015-07-06T15:28:01Z</time>
      </trkpt>
      <trkpt lat="46.31619" lon="4.60041">
        <ele>455</ele>
        <time>2015-07-06T15:28:29Z</time>
      </trkpt>
      <trkpt lat="46.31606" lon="4.6006">
        <ele>454</ele>
        <time>2015-07-06T15:28:48Z</time>
      </trkpt>
      <trkpt lat="46.31595" lon="4.60099">
        <ele>453</ele>
        <time>2015-07-06T15:29:12Z</time>
      </trkpt>
      <trkpt lat="46.31592" lon="4.60105">
        <ele>452</ele>
        <time>2015-07-06T15:29:17Z</time>
      </trkpt>
      <trkpt lat="46.31587" lon="4.60122">
        <ele>451</ele>
        <time>2015-07-06T15:29:26Z</time>
      </trkpt>
      <trkpt lat="46.31583" lon="4.60126">
        <ele>451</ele>
        <time>2015-07-06T15:29:29Z</time>
      </trkpt>
      <trkpt lat="46.31578" lon="4.60137">
        <ele>450</ele>
        <time>2015-07-06T15:29:37Z</time>
      </trkpt>
      <trkpt lat="46.31574" lon="4.60139">
        <ele>450</ele>
        <time>2015-07-06T15:29:40Z</time>
      </trkpt>
      <trkpt lat="46.31569" lon="4.60142">
        <ele>449</ele>
        <time>2015-07-06T15:29:43Z</time>
      </trkpt>
      <trkpt lat="46.31551" lon="4.60151">
        <ele>451</ele>
        <time>2015-07-06T15:30:00Z</time>
      </trkpt>
      <trkpt lat="46.31546" lon="4.6015">
        <ele>452</ele>
        <time>2015-07-06T15:30:05Z</time>
      </trkpt>
      <trkpt lat="46.3154" lon="4.6015">
        <ele>453</ele>
        <time>2015-07-06T15:30:09Z</time>
      </trkpt>
      <trkpt lat="46.31525" lon="4.60148">
        <ele>454</ele>
        <time>2015-07-06T15:30:21Z</time>
      </trkpt>
      <trkpt lat="46.31501" lon="4.60148">
        <ele>458</ele>
        <time>2015-07-06T15:30:42Z</time>
      </trkpt>
      <trkpt lat="46.31491" lon="4.60144">
        <ele>458</ele>
        <time>2015-07-06T15:30:50Z</time>
      </trkpt>
      <trkpt lat="46.31475" lon="4.60141">
        <ele>459</ele>
        <time>2015-07-06T15:31:03Z</time>
      </trkpt>
      <trkpt lat="46.31455" lon="4.60137">
        <ele>460</ele>
        <time>2015-07-06T15:31:19Z</time>
      </trkpt>
      <trkpt lat="46.3145" lon="4.60135">
        <ele>460</ele>
        <time>2015-07-06T15:31:24Z</time>
      </trkpt>
      <trkpt lat="46.31429" lon="4.60129">
        <ele>457</ele>
        <time>2015-07-06T15:31:41Z</time>
      </trkpt>
      <trkpt lat="46.31425" lon="4.60123">
        <ele>456</ele>
        <time>2015-07-06T15:31:47Z</time>
      </trkpt>
      <trkpt lat="46.31421" lon="4.60121">
        <ele>456</ele>
        <time>2015-07-06T15:31:50Z</time>
      </trkpt>
      <trkpt lat="46.31418" lon="4.60119">
        <ele>456</ele>
        <time>2015-07-06T15:31:51Z</time>
      </trkpt>
      <trkpt lat="46.31394" lon="4.60117">
        <ele>456</ele>
        <time>2015-07-06T15:32:14Z</time>
      </trkpt>
      <trkpt lat="46.3139" lon="4.60118">
        <ele>456</ele>
        <time>2015-07-06T15:32:20Z</time>
      </trkpt>
      <trkpt lat="46.31376" lon="4.60114">
        <ele>454</ele>
        <time>2015-07-06T15:32:31Z</time>
      </trkpt>
      <trkpt lat="46.31368" lon="4.60114">
        <ele>454</ele>
        <time>2015-07-06T15:32:35Z</time>
      </trkpt>
      <trkpt lat="46.31366" lon="4.60115">
        <ele>454</ele>
        <time>2015-07-06T15:32:39Z</time>
      </trkpt>
      <trkpt lat="46.31361" lon="4.60117">
        <ele>454</ele>
        <time>2015-07-06T15:32:45Z</time>
      </trkpt>
      <trkpt lat="46.31348" lon="4.60108">
        <ele>454</ele>
        <time>2015-07-06T15:32:56Z</time>
      </trkpt>
      <trkpt lat="46.31336" lon="4.60106">
        <ele>454</ele>
        <time>2015-07-06T15:33:05Z</time>
      </trkpt>
      <trkpt lat="46.3133" lon="4.60105">
        <ele>454</ele>
        <time>2015-07-06T15:33:09Z</time>
      </trkpt>
      <trkpt lat="46.31324" lon="4.60106">
        <ele>454</ele>
        <time>2015-07-06T15:33:15Z</time>
      </trkpt>
      <trkpt lat="46.3132" lon="4.60104">
        <ele>453</ele>
        <time>2015-07-06T15:33:19Z</time>
      </trkpt>
      <trkpt lat="46.31309" lon="4.60102">
        <ele>454</ele>
        <time>2015-07-06T15:33:27Z</time>
      </trkpt>
      <trkpt lat="46.31304" lon="4.60101">
        <ele>453</ele>
        <time>2015-07-06T15:33:30Z</time>
      </trkpt>
      <trkpt lat="46.313" lon="4.601">
        <ele>453</ele>
        <time>2015-07-06T15:33:33Z</time>
      </trkpt>
      <trkpt lat="46.31278" lon="4.60092">
        <ele>456</ele>
        <time>2015-07-06T15:33:52Z</time>
      </trkpt>
      <trkpt lat="46.31272" lon="4.60092">
        <ele>455</ele>
        <time>2015-07-06T15:33:57Z</time>
      </trkpt>
      <trkpt lat="46.31267" lon="4.6009">
        <ele>455</ele>
        <time>2015-07-06T15:34:02Z</time>
      </trkpt>
      <trkpt lat="46.31261" lon="4.6009">
        <ele>455</ele>
        <time>2015-07-06T15:34:08Z</time>
      </trkpt>
      <trkpt lat="46.31251" lon="4.60086">
        <ele>454</ele>
        <time>2015-07-06T15:34:20Z</time>
      </trkpt>
      <trkpt lat="46.31216" lon="4.60082">
        <ele>458</ele>
        <time>2015-07-06T15:34:50Z</time>
      </trkpt>
      <trkpt lat="46.31212" lon="4.60081">
        <ele>458</ele>
        <time>2015-07-06T15:34:53Z</time>
      </trkpt>
      <trkpt lat="46.31172" lon="4.60077">
        <ele>464</ele>
        <time>2015-07-06T15:35:25Z</time>
      </trkpt>
      <trkpt lat="46.31167" lon="4.60079">
        <ele>464</ele>
        <time>2015-07-06T15:35:33Z</time>
      </trkpt>
      <trkpt lat="46.31163" lon="4.60078">
        <ele>464</ele>
        <time>2015-07-06T15:35:37Z</time>
      </trkpt>
      <trkpt lat="46.31157" lon="4.60078">
        <ele>464</ele>
        <time>2015-07-06T15:35:42Z</time>
      </trkpt>
      <trkpt lat="46.31153" lon="4.60078">
        <ele>464</ele>
        <time>2015-07-06T15:35:46Z</time>
      </trkpt>
      <trkpt lat="46.31148" lon="4.60078">
        <ele>465</ele>
        <time>2015-07-06T15:35:50Z</time>
      </trkpt>
      <trkpt lat="46.31144" lon="4.60078">
        <ele>464</ele>
        <time>2015-07-06T15:35:54Z</time>
      </trkpt>
      <trkpt lat="46.31138" lon="4.60077">
        <ele>463</ele>
        <time>2015-07-06T15:35:59Z</time>
      </trkpt>
      <trkpt lat="46.31124" lon="4.60075">
        <ele>464</ele>
        <time>2015-07-06T15:36:11Z</time>
      </trkpt>
      <trkpt lat="46.31118" lon="4.60074">
        <ele>465</ele>
        <time>2015-07-06T15:36:15Z</time>
      </trkpt>
      <trkpt lat="46.31103" lon="4.60074">
        <ele>462</ele>
        <time>2015-07-06T15:36:27Z</time>
      </trkpt>
      <trkpt lat="46.31088" lon="4.60073">
        <ele>463</ele>
        <time>2015-07-06T15:36:40Z</time>
      </trkpt>
      <trkpt lat="46.31083" lon="4.60072">
        <ele>464</ele>
        <time>2015-07-06T15:36:44Z</time>
      </trkpt>
      <trkpt lat="46.31078" lon="4.60072">
        <ele>464</ele>
        <time>2015-07-06T15:36:48Z</time>
      </trkpt>
      <trkpt lat="46.31073" lon="4.60072">
        <ele>464</ele>
        <time>2015-07-06T15:36:52Z</time>
      </trkpt>
      <trkpt lat="46.31068" lon="4.60071">
        <ele>464</ele>
        <time>2015-07-06T15:36:56Z</time>
      </trkpt>
      <trkpt lat="46.31063" lon="4.60072">
        <ele>462</ele>
        <time>2015-07-06T15:37:00Z</time>
      </trkpt>
      <trkpt lat="46.31058" lon="4.60071">
        <ele>462</ele>
        <time>2015-07-06T15:37:04Z</time>
      </trkpt>
      <trkpt lat="46.31043" lon="4.60069">
        <ele>463</ele>
        <time>2015-07-06T15:37:16Z</time>
      </trkpt>
      <trkpt lat="46.31009" lon="4.60058">
        <ele>462</ele>
        <time>2015-07-06T15:38:38Z</time>
      </trkpt>
      <trkpt lat="46.30972" lon="4.60034">
        <ele>467</ele>
        <time>2015-07-06T15:39:11Z</time>
      </trkpt>
      <trkpt lat="46.30967" lon="4.60032">
        <ele>467</ele>
        <time>2015-07-06T15:39:16Z</time>
      </trkpt>
      <trkpt lat="46.30931" lon="4.60025">
        <ele>471</ele>
        <time>2015-07-06T15:39:48Z</time>
      </trkpt>
      <trkpt lat="46.30916" lon="4.60018">
        <ele>473</ele>
        <time>2015-07-06T15:40:01Z</time>
      </trkpt>
      <trkpt lat="46.30912" lon="4.60014">
        <ele>473</ele>
        <time>2015-07-06T15:40:05Z</time>
      </trkpt>
      <trkpt lat="46.3088" lon="4.59995">
        <ele>475</ele>
        <time>2015-07-06T15:40:36Z</time>
      </trkpt>
      <trkpt lat="46.30863" lon="4.59981">
        <ele>477</ele>
        <time>2015-07-06T15:40:54Z</time>
      </trkpt>
      <trkpt lat="46.30851" lon="4.59975">
        <ele>476</ele>
        <time>2015-07-06T15:41:10Z</time>
      </trkpt>
      <trkpt lat="46.30842" lon="4.59969">
        <ele>477</ele>
        <time>2015-07-06T15:41:21Z</time>
      </trkpt>
      <trkpt lat="46.30837" lon="4.5997">
        <ele>478</ele>
        <time>2015-07-06T15:41:26Z</time>
      </trkpt>
      <trkpt lat="46.30832" lon="4.59972">
        <ele>478</ele>
        <time>2015-07-06T15:41:30Z</time>
      </trkpt>
      <trkpt lat="46.3081" lon="4.59993">
        <ele>475</ele>
        <time>2015-07-06T15:41:50Z</time>
      </trkpt>
      <trkpt lat="46.30805" lon="4.5999">
        <ele>474</ele>
        <time>2015-07-06T15:41:56Z</time>
      </trkpt>
      <trkpt lat="46.30801" lon="4.59994">
        <ele>474</ele>
        <time>2015-07-06T15:42:02Z</time>
      </trkpt>
      <trkpt lat="46.30795" lon="4.60006">
        <ele>473</ele>
        <time>2015-07-06T15:42:13Z</time>
      </trkpt>
      <trkpt lat="46.30791" lon="4.60012">
        <ele>470</ele>
        <time>2015-07-06T15:42:17Z</time>
      </trkpt>
      <trkpt lat="46.30789" lon="4.60019">
        <ele>471</ele>
        <time>2015-07-06T15:42:21Z</time>
      </trkpt>
      <trkpt lat="46.30786" lon="4.60024">
        <ele>471</ele>
        <time>2015-07-06T15:42:26Z</time>
      </trkpt>
      <trkpt lat="46.30781" lon="4.60028">
        <ele>472</ele>
        <time>2015-07-06T15:42:42Z</time>
      </trkpt>
      <trkpt lat="46.30776" lon="4.60032">
        <ele>472</ele>
        <time>2015-07-06T15:43:18Z</time>
      </trkpt>
      <trkpt lat="46.30771" lon="4.60043">
        <ele>476</ele>
        <time>2015-07-06T15:43:32Z</time>
      </trkpt>
      <trkpt lat="46.30766" lon="4.60046">
        <ele>476</ele>
        <time>2015-07-06T15:43:39Z</time>
      </trkpt>
      <trkpt lat="46.30762" lon="4.60051">
        <ele>475</ele>
        <time>2015-07-06T15:43:45Z</time>
      </trkpt>
      <trkpt lat="46.3076" lon="4.60058">
        <ele>472</ele>
        <time>2015-07-06T15:43:52Z</time>
      </trkpt>
      <trkpt lat="46.30764" lon="4.60079">
        <ele>469</ele>
        <time>2015-07-06T15:44:07Z</time>
      </trkpt>
      <trkpt lat="46.30766" lon="4.60085">
        <ele>468</ele>
        <time>2015-07-06T15:44:11Z</time>
      </trkpt>
      <trkpt lat="46.30764" lon="4.60099">
        <ele>466</ele>
        <time>2015-07-06T15:44:20Z</time>
      </trkpt>
      <trkpt lat="46.30757" lon="4.60112">
        <ele>466</ele>
        <time>2015-07-06T15:44:28Z</time>
      </trkpt>
      <trkpt lat="46.30753" lon="4.60117">
        <ele>466</ele>
        <time>2015-07-06T15:44:32Z</time>
      </trkpt>
      <trkpt lat="46.3075" lon="4.60123">
        <ele>466</ele>
        <time>2015-07-06T15:44:36Z</time>
      </trkpt>
      <trkpt lat="46.30751" lon="4.6013">
        <ele>466</ele>
        <time>2015-07-06T15:44:41Z</time>
      </trkpt>
      <trkpt lat="46.30749" lon="4.60137">
        <ele>466</ele>
        <time>2015-07-06T15:44:45Z</time>
      </trkpt>
      <trkpt lat="46.3075" lon="4.60144">
        <ele>466</ele>
        <time>2015-07-06T15:44:50Z</time>
      </trkpt>
      <trkpt lat="46.3075" lon="4.60151">
        <ele>466</ele>
        <time>2015-07-06T15:44:54Z</time>
      </trkpt>
      <trkpt lat="46.3075" lon="4.60159">
        <ele>466</ele>
        <time>2015-07-06T15:44:59Z</time>
      </trkpt>
      <trkpt lat="46.30752" lon="4.60181">
        <ele>465</ele>
        <time>2015-07-06T15:45:11Z</time>
      </trkpt>
      <trkpt lat="46.30753" lon="4.60188">
        <ele>465</ele>
        <time>2015-07-06T15:45:16Z</time>
      </trkpt>
      <trkpt lat="46.30746" lon="4.60196">
        <ele>465</ele>
        <time>2015-07-06T15:45:21Z</time>
      </trkpt>
      <trkpt lat="46.30725" lon="4.60226">
        <ele>462</ele>
        <time>2015-07-06T15:45:43Z</time>
      </trkpt>
      <trkpt lat="46.30718" lon="4.60234">
        <ele>462</ele>
        <time>2015-07-06T15:45:53Z</time>
      </trkpt>
      <trkpt lat="46.3071" lon="4.60243">
        <ele>463</ele>
        <time>2015-07-06T15:46:01Z</time>
      </trkpt>
      <trkpt lat="46.30706" lon="4.60242">
        <ele>464</ele>
        <time>2015-07-06T15:46:13Z</time>
      </trkpt>
      <trkpt lat="46.30698" lon="4.60249">
        <ele>464</ele>
        <time>2015-07-06T15:46:21Z</time>
      </trkpt>
      <trkpt lat="46.30688" lon="4.60255">
        <ele>467</ele>
        <time>2015-07-06T15:46:29Z</time>
      </trkpt>
      <trkpt lat="46.30679" lon="4.60257">
        <ele>467</ele>
        <time>2015-07-06T15:46:39Z</time>
      </trkpt>
      <trkpt lat="46.3066" lon="4.60246">
        <ele>471</ele>
        <time>2015-07-06T15:47:02Z</time>
      </trkpt>
      <trkpt lat="46.30656" lon="4.60246">
        <ele>470</ele>
        <time>2015-07-06T15:47:10Z</time>
      </trkpt>
      <trkpt lat="46.30658" lon="4.6024">
        <ele>470</ele>
        <time>2015-07-06T15:47:14Z</time>
      </trkpt>
      <trkpt lat="46.30653" lon="4.60239">
        <ele>470</ele>
        <time>2015-07-06T15:47:17Z</time>
      </trkpt>
      <trkpt lat="46.30651" lon="4.6024">
        <ele>470</ele>
        <time>2015-07-06T15:47:18Z</time>
      </trkpt>
      <trkpt lat="46.30649" lon="4.60237">
        <ele>470</ele>
        <time>2015-07-06T15:47:33Z</time>
      </trkpt>
      <trkpt lat="46.30645" lon="4.60232">
        <ele>472</ele>
        <time>2015-07-06T15:47:47Z</time>
      </trkpt>
      <trkpt lat="46.30645" lon="4.60225">
        <ele>472</ele>
        <time>2015-07-06T15:47:50Z</time>
      </trkpt>
      <trkpt lat="46.30644" lon="4.60218">
        <ele>472</ele>
        <time>2015-07-06T15:47:55Z</time>
      </trkpt>
      <trkpt lat="46.30649" lon="4.60216">
        <ele>472</ele>
        <time>2015-07-06T15:47:59Z</time>
      </trkpt>
      <trkpt lat="46.30652" lon="4.60211">
        <ele>473</ele>
        <time>2015-07-06T15:48:03Z</time>
      </trkpt>
      <trkpt lat="46.30656" lon="4.60221">
        <ele>473</ele>
        <time>2015-07-06T15:48:31Z</time>
      </trkpt>
      <trkpt lat="46.30655" lon="4.60219">
        <ele>471</ele>
        <time>2015-07-06T15:49:28Z</time>
      </trkpt>
      <trkpt lat="46.30657" lon="4.60213">
        <ele>471</ele>
        <time>2015-07-06T15:49:34Z</time>
      </trkpt>
      <trkpt lat="46.3066" lon="4.60209">
        <ele>468</ele>
        <time>2015-07-06T15:50:18Z</time>
      </trkpt>
    </trkseg>
  </trk>
</gpx>